     2              OBSERVATION DATA    GPS                 RINEX VERSION / TYPE
                                                            PGM / RUN BY / DATE
                                                            COMMENT
sig: 9 8 7 6 5 4 1 0                                        COMMENT
sig: 9 8 7 6 5 4 1 0                                        COMMENT
sig: 9 8 7 6 5 4 1 0                                        COMMENT
Original Marker Name: LOVE                                  COMMENT
Campaign Name: jpl 1993-1997                                COMMENT
4-Character Station Name: LOVE                              COMMENT
6-Character Antenna Code: DMRCHT                            COMMENT
Vertical Measurement Point: BPA                             COMMENT
Vertical Offset to Rinex Ref. Point: 0.0000                 COMMENT
Radial Measurement Point: RRP                               COMMENT
Radial Offset to Rinex Ref. Point: 0.0000                   COMMENT
Antenna Height from Field Measurement: 0.0814 m             COMMENT
Additional Antenna Identification Info.:                    COMMENT
Turborogue and Ashtech Choke Ring                           COMMENT
Original XYZ: -2493567.4245 -4655142.1777 3565534.2750      COMMENT
New XYZ position is based on association with SCEC monument COMMENT
E1E9J0Z4+0011. Position of that monument is believed to be  COMMENT
valid to within 1 m horizontally; vertical accuracy         COMMENT
should be no worse than 3-times this value.                 COMMENT
                                                            COMMENT
Revised Rinex header created by UCSD GPS archive for        COMMENT
GSAC on 15-Apr-1999 (1999:105) 01:47:19 GMT                 COMMENT
For assistance contact dagnew@ucsd.edu or hjohnson@ucsd.edu COMMENT
                                                            COMMENT
LOMA VERDE RE 1961                                          MARKER NAME
LOVE                                                        MARKER NUMBER
KJH JET PROPULSION LABORATORY                               OBSERVER / AGENCY
392 TURBOROGUE SNR-8000 96.03.24                            REC # / TYPE / VERS
291 DORNE-MARGOL. TYPE T                                    ANT # / TYPE
 -2524830.0000 -4617691.0000  3592367.0000                  APPROX POSITION XYZ
        0.0814        0.0000        0.0000                  ANTENNA: DELTA H/E/N
     1     1     0                                          WAVELENGTH FACT L1/2
     5    L1    L2    P1    P2    C1                        # / TYPES OF OBSERV
    30                                                      INTERVAL
  1997     5     1     0     0    0.000000                  TIME OF FIRST OBS
  1997     5     1    23    59   30.000000                  TIME OF LAST OBS
    26                                                      # OF SATELLITES
                                                            END OF HEADER
 97 05 01 00 00 00.0000000  0  8 05 06 10 17 23 24 26 30
 -12205933.43948  -9511118.46246         0.00041  22654756.11546  22654748.31048
 -23055572.42749 -17965366.84347         0.00041  20718842.36247  20718837.16749
 -14268683.87649 -11118442.78646         0.00041  21675305.50846  21675299.34149
 -15381255.84648 -11985374.76646         0.00041  22435681.06946  22435673.51648
  -3104846.41948         0.00041         0.00041         0.00041  24646646.35748
  -5064416.99648  -3946288.94144         0.00041  24113813.51444  24113804.57848
  -3003256.04248  -2340193.22444         0.00041  24425062.98144  24425052.30748
 -22246971.85649 -17335295.35947         0.00041  21030844.77747  21030839.53849
 97 05 01 00 00 30.0000000  0  8 05 06 10 17 23 24 26 30
 -12105653.51848  -9432978.34246         0.00041  22673838.36246  22673831.03248
 -23095492.39149 -17996473.29147         0.00041  20711245.79347  20711240.70449
 -14209853.15749 -11072600.65546         0.00041  21686500.34546  21686494.38149
 -15444598.60548 -12034732.68646         0.00041  22423627.14646  22423619.61148
  -3211396.44248         0.00041         0.00041         0.00041  24626370.26048
  -4985712.43548  -3884960.70844         0.00041  24128789.49944  24128781.30848
  -3082481.71848  -2401927.36444         0.00041  24409987.04044  24409975.87148
 -22185027.50049 -17287027.04947         0.00041  21042632.50447  21042627.17649
 97 05 01 00 01 00.0000000  0  8 05 06 10 17 23 24 26 30
 -12005208.64448  -9354709.68346         0.00041  22692952.40746  22692945.27448
 -23135219.34749 -18027429.34347         0.00041  20703686.09147  20703680.90549
 -14150565.58149 -11026402.53446         0.00041  21697782.42646  21697776.41249
 -15507752.06248 -12083943.10146         0.00041  22411609.21246  22411601.78548
  -3317946.98748  -2585408.18444         0.00041  24606105.75444  24606094.08848
  -4907087.35048  -3823694.43244         0.00041  24143753.35444  24143743.17748
  -3161727.57348  -2463677.19944         0.00041  24394906.94544  24394895.77648
 -22122626.49749 -17238402.91147         0.00041  21054507.01347  21054501.67549
 97 05 01 00 01 30.0000000  0  8 05 06 10 17 23 24 26 30
 -11904553.39048  -9276277.09946         0.00041  22712108.35246  22712099.41648
 -23174703.28149 -18058196.02747         0.00041  20696172.33947  20696167.25249
 -14090791.42249 -10979825.26046         0.00041  21709156.96946  21709150.97549
 -15570669.81748 -12132969.84846         0.00041  22399636.68746  22399628.88748
  -3424435.99248  -2668386.37644         0.00041  24585840.25544  24585829.58248
  -4828517.43148  -3762471.14644         0.00041  24158702.44244  24158694.67248
  -3240954.94348  -2525412.61844         0.00041  24379829.85844  24379819.43348
 -22059726.26249 -17189389.75847         0.00041  21066476.53447  21066471.16149
 97 05 01 00 02 00.0000000  0  8 05 06 10 17 23 24 26 30
 -11803627.99448  -9197634.01346         0.00041  22731313.36446  22731304.92448
 -23213858.62849 -18088706.66947         0.00041  20688721.23547  20688716.13749
 -14030465.94049 -10932818.37946         0.00041  21720636.65146  21720630.48149
 -15633258.94948 -12181740.52946         0.00041  22387725.96646  22387718.44148
  -3530771.60248         0.00041         0.00041         0.00041  24565594.55348
  -4749930.09348  -3701234.28244         0.00041  24173657.28844  24173649.09648
  -3320091.08848  -2587077.00844         0.00041  24364769.54744  24364760.11548
 -21996236.57849 -17139917.29847         0.00041  21078558.44547  21078552.84149
 97 05 01 00 02 30.0000000  0  8 05 06 10 17 23 24 26 30
 -11702493.22048  -9118827.77546         0.00041  22750558.55846  22750550.11948
 -23252734.26949 -18118999.35747         0.00041  20681323.40447  20681318.33449
 -13969664.89349 -10885440.93546         0.00041  21732206.68646  21732200.51349
 -15695589.76948 -12230309.92146         0.00041  22375864.59246  22375857.22048
  -3637003.35348         0.00041         0.00041         0.00041  24545379.05448
  -4671367.81448  -3640016.96344         0.00041  24188605.74444  24188599.04648
  -3399184.17948         0.00041         0.00041         0.00041  24349708.86348
 -21932226.26049 -17090039.14647         0.00041  21090738.91647  21090733.56949
 97 05 01 00 03 00.0000000  0  8 05 06 10 17 23 24 26 30
 -11601212.33048  -9039907.66946         0.00041  22769831.16946  22769823.35448
 -23291379.16949 -18149112.24547         0.00041  20673969.73447  20673964.54149
 -13908453.76049 -10837743.94046         0.00041  21743854.90146  21743848.63149
 -15757725.46148 -12278727.26846         0.00041  22364040.61646  22364033.18648
  -3743165.14648         0.00041         0.00041         0.00041  24525177.06748
  -4592882.09848  -3578859.29544         0.00041  24203540.54544  24203534.52648
  -3478272.21948  -2710334.65944         0.00041  24334669.05744  24334658.38448
 -21867758.51349 -17039804.55847         0.00041  21103006.85847  21103001.43949
 97 05 01 00 03 30.0000000  0  8 05 06 10 17 23 24 26 30
 -11499777.60848  -8960867.71246         0.00041  22789134.36246  22789125.92348
 -23329770.55949 -18179027.59347         0.00041  20666664.09147  20666658.95349
 -13846811.29449 -10789710.84446         0.00041  21755585.23146  21755578.88549
 -15819636.00348 -12326969.16746         0.00041  22352259.45746  22352252.05148
  -3849234.91048  -2999397.55144         0.00041  24505003.33344  24504992.41248
  -4514442.46948  -3517737.53744         0.00041  24218471.17044  24218461.24248
  -3557321.32048  -2771931.22144         0.00041  24319625.47344  24319615.79348
 -21802825.73449 -16989207.60547         0.00041  21115363.09647  21115357.72049
 97 05 01 00 04 00.0000000  0  8 05 06 10 17 23 24 26 30
 -11398229.55648  -8881739.43646         0.00041  22808457.59646  22808449.93348
 -23367961.01849 -18208786.37647         0.00041  20659396.50747  20659391.41349
 -13784793.90849 -10741385.59746         0.00041  21767386.70846  21767380.34149
 -15881377.87848 -12375079.64546         0.00041  22340510.34146  22340502.92648
  -3955279.75948         0.00041         0.00041         0.00041  24484812.49248
  -4436087.49248  -3456681.76344         0.00041  24233383.14444  24233371.72648
  -3636367.51548  -2833525.44644         0.00041  24304583.30544  24304573.62448
 -21737484.01949 -16938292.00247         0.00041  21127797.34347  21127791.90649
 97 05 01 00 04 30.0000000  0  8 05 06 10 17 23 24 26 30
 -11296555.80448  -8802513.21446         0.00041  22827806.37846  22827797.93948
 -23405949.54949 -18238387.81347         0.00041  20652167.61847  20652162.45849
 -13722408.04449 -10692773.22846         0.00041  21779258.20446  21779251.98549
 -15942958.90348 -12423064.78446         0.00041  22328791.94146  22328784.42448
  -4061305.69048  -3164647.03344         0.00041  24464646.88944  24464636.21648
  -4357825.97648  -3395698.75844         0.00041  24248273.34944  24248264.41348
  -3715399.30348  -2895108.46544         0.00041  24289539.17944  24289534.49048
 -21671753.26749 -16887073.25247         0.00041  21140305.34447  21140300.04249
 97 05 01 00 05 00.0000000  0  8 05 06 10 17 23 24 26 30
 -11194561.43548  -8723037.16746         0.00041  22847215.55446  22847206.86648
 -23443533.66549 -18267674.12147         0.00041  20645015.56047  20645010.42449
 -13659443.19049 -10643709.69746         0.00041  21791239.72446  21791233.78849
 -16004184.66848 -12470773.09646         0.00041  22317141.21346  22317133.53548
  -4167119.56148  -3247099.15244         0.00041  24444510.88444  24444500.45948
  -4279477.63048  -3334648.10244         0.00041  24263180.02344  24263173.77948
  -3794225.61448  -2956531.34844         0.00041  24274543.76144  24274533.83348
 -21605436.23949 -16835397.66447         0.00041  21152925.29947  21152919.82649
 97 05 01 00 05 30.0000000  0  8 05 06 10 17 23 24 26 30
 -11092412.67648  -8643440.81146         0.00041  22866652.97946  22866645.21348
 -23480894.79049 -18296786.67147         0.00041  20637905.88047  20637900.82849
 -13596090.64849 -10594344.07246         0.00041  21803295.31146  21803289.32649
 -16065235.95248 -12518345.45246         0.00041  22305523.07446  22305515.73648
  -4272932.96748         0.00041         0.00041         0.00041  24424364.69148
  -4201221.70048  -3273669.50044         0.00041  24278070.82244  24278065.51848
  -3873048.15848  -3017951.31744         0.00041  24259544.68044  24259534.25548
 -21538708.75849 -16783402.24147         0.00041  21165623.37647  21165617.61449
 97 05 01 00 06 00.0000000  0  8 05 06 10 17 23 24 26 30
 -10990056.59348  -8563682.90946         0.00041  22886130.64546  22886122.89448
 -23517983.53749 -18325686.97747         0.00041  20630848.07447  20630842.98449
 -13532303.48649 -10544639.78546         0.00041  21815433.74346  21815427.65749
 -16126073.51048 -12565751.26446         0.00041  22293946.35246  22293938.52548
  -4378704.60548  -3411970.14944         0.00041  24404248.34844  24404236.68248
  -4123032.09348  -3212742.57944         0.00041  24292950.98744  24292944.33748
  -3951841.79548  -3079348.76044         0.00041  24244551.32244  24244540.15248
 -21471525.75249 -16731051.86846         0.00041  21178407.55146  21178402.06849
 97 05 01 00 06 30.0000000  0  8 05 06 10 17 23 24 26 30
 -10887470.69048  -8483745.92946         0.00041  22905653.00046  22905644.31348
 -23554760.09649 -18354344.01947         0.00041  20623849.80247  20623844.62549
 -13468037.73849 -10494562.57346         0.00041  21827663.35246  21827656.96049
 -16186658.31348 -12612960.12746         0.00041  22282416.95046  22282409.66348
  -4484387.47948         0.00041         0.00041         0.00041  24384125.79348
  -4044880.32848  -3151845.11544         0.00041  24307823.26744  24307816.28948
  -4030579.87048  -3140702.89344         0.00041  24229568.27744  24229556.85948
 -21403854.38249 -16678320.94646         0.00041  21191285.13946  21191279.60949
 97 05 01 00 07 00.0000000  0  8 05 06 10 17 23 24 26 30
 -10784640.32548  -8403618.45446         0.00041  22925220.81546  22925212.37648
 -23591207.42949 -18382744.52247         0.00041  20616914.16447  20616909.06749
 -13403273.31549 -10444096.78446         0.00041  21839987.44446  21839981.23049
 -16246960.20148 -12659948.53846         0.00041  22270941.73246  22270934.54148
  -4589972.40148         0.00041         0.00041         0.00041  24364033.29648
  -3966727.92748  -3090947.19144         0.00041  24322695.38844  24322688.39048
  -4109241.88448  -3201997.77944         0.00041  24214596.57344  24214587.88548
 -21335661.70749 -16625183.81346         0.00041  21204261.49446  21204256.18949
 97 05 01 00 07 30.0000000  0  8 05 06 10 17 23 24 26 30
 -10681538.92748  -8323279.78846         0.00041  22944840.96246  22944832.02648
 -23627302.96349 -18410870.89947         0.00041  20610045.36747  20610040.28049
 -13337986.56849 -10393223.99646         0.00041  21852411.15846  21852404.89649
 -16306942.91048 -12706688.24046         0.00041  22259527.50946  22259520.26948
  -4695413.55948         0.00041         0.00041         0.00041  24343968.40248
  -3888530.89348  -3030014.48244         0.00041  24337575.02444  24337568.82148
  -4187782.79848  -3263198.27944         0.00041  24199652.04244  24199641.86648
 -21266912.87449 -16571613.31346         0.00041  21217344.20746  21217338.66749
 97 05 01 00 08 00.0000000  0  8 05 06 10 17 23 24 26 30
 -10578276.23648  -8242815.42846         0.00041  22964490.41746  22964482.22648
 -23663133.93049 -18438791.11947         0.00041  20603227.02147  20603221.83349
 -13272256.66949 -10342005.88746         0.00041  21864919.56746  21864913.02849
 -16366704.65248 -12753255.75846         0.00041  22248155.20046  22248148.03148
  -4800763.21648         0.00041         0.00041         0.00041  24323920.98548
  -3810375.53948  -2969114.23544         0.00041  24352447.51844  24352441.11848
  -4266262.36948  -3324351.01644         0.00041  24184718.80144  24184707.87948
 -21197698.25749 -16517679.86146         0.00041  21230515.23646  21230509.82949
 97 05 01 00 08 30.0000000  0  8 05 06 10 17 23 24 26 30
 -10474848.40348  -8162222.40946         0.00041  22984172.68846  22984164.00148
 -23698686.49649 -18466494.40447         0.00041  20596461.49147  20596456.42649
 -13206076.22649 -10290436.71646         0.00041  21877512.66846  21877506.65949
 -16426234.75548 -12799642.77946         0.00041  22236827.37846  22236819.73648
  -4906000.01548         0.00041         0.00041         0.00041  24303894.92448
  -3732221.55548  -2908215.06044         0.00041  24367321.53244  24367313.09348
  -4344634.71948         0.00041         0.00041         0.00041  24169793.89648
 -21128002.45449 -16463371.46046         0.00041  21243777.84546  21243772.59449
 97 05 01 00 09 00.0000000  0  8 05 06 10 17 23 24 26 30
 -10371409.50648  -8081620.76246         0.00041  23003857.58446  23003847.90348
 -23734120.04149 -18494104.94147         0.00041  20589718.60847  20589713.62749
 -13139592.55349 -10238631.25246         0.00041  21890164.14746  21890158.02149
 -16485699.02648 -12845978.51046         0.00041  22225510.81946  22225503.84748
  -5011266.77148         0.00041         0.00041         0.00041  24283863.17548
  -3654223.51748         0.00041         0.00041         0.00041  24382155.92048
  -4423036.03548  -3446511.90144         0.00041  24154885.54944  24154874.37948
 -21057994.32349 -16408819.68946         0.00041  21257100.07346  21257094.65249
 97 05 01 00 09 30.0000000  0  8 05 06 10 17 23 24 26 30
 -10267898.41448  -8000962.85745         0.00041  23023554.02545  23023545.33748
 -23769369.69649 -18521572.19047         0.00041  20583010.84947  20583005.70549
 -13072739.56049 -10186538.00646         0.00041  21902885.89246  21902879.69849
 -16545049.30948 -12892225.41646         0.00041  22214217.14846  22214209.93348
  -5116479.94048         0.00041         0.00041         0.00041  24263841.51648
  -3576342.65748  -2786751.05544         0.00041  24396983.37744  24396976.25648
  -4501403.54148         0.00041         0.00041         0.00041  24139961.44548
 -20987627.27449 -16353988.23946         0.00041  21270490.29146  21270484.98349
 97 05 01 00 10 00.0000000  0  8 05 06 10 17 23 24 26 30
 -10164083.93848  -7920068.55645         0.00041  23043309.14745  23043300.70748
 -23804203.89449 -18548715.70647         0.00041  20576382.03547  20576376.98049
 -13005292.75549 -10133982.05546         0.00041  21915720.34846  21915714.36149
 -16604056.49248 -12938204.97746         0.00041  22202988.33846  22202981.10148
  -5221433.10748  -4068639.65744         0.00041  24243880.82144  24243869.40348
  -3498355.30248  -2725981.67644         0.00041  24411820.56844  24411816.49548
  -4579516.27248  -3568444.12844         0.00041  24125102.92444  24125096.81748
 -20916688.61449 -16298711.37946         0.00041  21283989.66346  21283984.19949
 97 05 01 00 10 30.0000000  0  8 05 06 10 17 23 24 26 30
 -10060112.81048  -7839052.17845         0.00041  23063092.98045  23063085.81748
 -23838776.23849 -18575655.18147         0.00041  20569803.18347  20569798.13949
 -12937414.47049 -10081089.88146         0.00041  21928637.29846  21928631.05849
 -16662865.94248 -12984030.46146         0.00041  22191797.30046  22191790.06448
  -5326292.91948         0.00041         0.00041         0.00041  24223915.04848
  -3420424.95948  -2665256.84244         0.00041  24426657.06744  24426646.39448
  -4657546.66948         0.00041         0.00041         0.00041  24110247.61448
 -20845334.55849 -16243110.83446         0.00041  21297568.12846  21297562.42849
 97 05 01 00 11 00.0000000  0  8 05 06 10 17 23 24 26 30
  -9955971.16748  -7757902.95645         0.00041  23082911.22045  23082903.45648
 -23873061.16449 -18602370.69447         0.00041  20563279.00847  20563273.86649
 -12869087.57349 -10027848.14146         0.00041  21941639.38746  21941633.35949
 -16721443.25448 -13029675.05446         0.00041  22180649.54646  22180643.10348
  -5431042.07448         0.00041         0.00041         0.00041  24203981.91648
  -3342550.08748  -2604575.15341         0.00041         0.00041  24441465.37848
  -4735496.09748  -3689986.44844         0.00041  24095424.50944  24095414.08448
 -20773538.60049 -16187165.94846         0.00041  21311230.24246  21311224.76049
 97 05 01 00 11 30.0000000  0  8 05 06 10 17 23 24 26 30
  -9851681.06648  -7676638.03645         0.00041  23102758.51345  23102749.32948
 -23907057.00349 -18628860.94447         0.00041  20556809.87347  20556804.69349
 -12800337.64949  -9974276.77046         0.00041  21954722.26646  21954716.07549
 -16779778.94048 -13075131.37046         0.00041  22169548.95446  22169542.14348
  -5535704.79248         0.00041         0.00041         0.00041  24184065.00348
  -3264725.98148  -2543933.03541         0.00041         0.00041  24456274.63948
  -4813378.60848  -3750673.88344         0.00041  24080600.76344  24080593.79148
 -20701285.76449 -16130865.05346         0.00041  21324979.55846  21324974.05449
 97 05 01 00 12 00.0000000  0  8 05 06 10 17 23 24 26 30
  -9747253.79848  -7595266.24045         0.00041  23122631.22745  23122621.29948
 -23940751.69149 -18655116.53247         0.00041  20550397.91447  20550392.71949
 -12731171.04249  -9920380.70746         0.00041  21967884.07546  21967878.09349
 -16837858.78048 -13120388.32346         0.00041  22158496.73046  22158489.78148
  -5640288.47248         0.00041         0.00041         0.00041  24164163.12048
  -3186928.15248  -2483311.34341         0.00041         0.00041  24471079.27548
  -4891180.66048  -3811298.64744         0.00041  24065794.38044  24065788.57148
 -20628561.17349 -16074196.55946         0.00041  21338818.54746  21338813.09749
 97 05 01 00 12 30.0000000  0  8 05 06 10 17 23 24 26 30
  -9642687.22948  -7513785.89945         0.00041  23142527.29745  23142519.59248
 -23974117.90249 -18681116.16347         0.00041  20544048.45947  20544043.32649
 -12661575.39549  -9866150.33146         0.00041  21981127.72646  21981121.56949
 -16895672.18448 -13165437.66546         0.00041  22147495.06846  22147488.21548
  -5744746.54948  -4476415.02044         0.00041  24144296.15044  24144285.22948
  -3109154.13848  -2422708.24844         0.00041  24485885.40744  24485879.35048
  -4968875.33648  -3871839.71244         0.00041  24051013.12744  24051003.44648
 -20555349.45349 -16017148.48346         0.00041  21352750.33846  21352744.80249
 97 05 01 00 13 00.0000000  0  8 05 06 10 17 23 24 26 30
  -9537955.47948  -7432176.84345         0.00041  23162457.81245  23162449.37348
 -24007132.74249 -18706841.99747         0.00041  20537765.99547  20537760.81049
 -12591530.31449  -9811569.74346         0.00041  21994456.88346  21994450.73349
 -16953198.69448 -13210263.45446         0.00041  22136548.41146  22136541.29848
  -5849045.74248  -4557686.80544         0.00041  24124446.11744  24124437.42948
  -3031381.06748  -2362105.88044         0.00041  24500683.22344  24500679.00148
  -5046413.84148  -3932259.09944         0.00041  24036258.91444  24036248.24148
 -20481639.68549 -15959712.32046         0.00041  21366776.83546  21366771.36949
 97 05 01 00 13 30.0000000  0  8 05 06 10 17 23 24 26 30
  -9432996.67148  -7350390.86745         0.00041  23182430.78845  23182422.34848
 -24039752.02349 -18732259.60547         0.00041  20531558.77847  20531553.70449
 -12520998.90749  -9756610.20146         0.00041  22007878.73246  22007872.47649
 -17010408.24348 -13254842.25246         0.00041  22125661.87646  22125654.52248
  -5953125.72848  -4638787.83844         0.00041  24104641.24544  24104631.56548
  -2953562.78748  -2301468.28344         0.00041  24515493.61744  24515487.26648
  -5123734.82548  -3992508.99144         0.00041  24021543.90044  24021534.46748
 -20407407.97649 -15901869.44746         0.00041  21380902.67746  21380897.21449
 97 05 01 00 14 00.0000000  0  8 05 06 10 17 23 24 26 30
  -9328093.02548  -7268647.87845         0.00041  23202393.69445  23202385.00748
 -24072278.65649 -18757605.01847         0.00041  20525369.05447  20525364.06649
 -12450276.33649  -9701501.70246         0.00041  22021336.76546  22021330.58149
 -17067607.13948 -13299412.75746         0.00041  22114777.00546  22114769.89848
  -6057261.75248  -4719932.49244         0.00041  24084826.46744  24084814.80148
  -2876011.59648  -2241038.90544         0.00041  24530252.68244  24530244.80448
  -5201130.78148  -4052817.28044         0.00041  24006814.90344  24006806.21548
 -20332970.83449 -15843866.49946         0.00041  21395067.58846  21395062.10849
 97 05 01 00 14 30.0000000  0  8 05 06 10 17 23 24 26 30
  -9223100.73948  -7186835.81345         0.00041  23222373.12845  23222364.44048
 -24104589.83849 -18782782.54747         0.00041  20519220.53047  20519215.45349
 -12379221.86549  -9646134.58146         0.00041  22034857.94946  22034851.66349
 -17124676.93748 -13343882.66446         0.00041  22103917.14346  22103909.80448
  -6161319.72548         0.00041         0.00041         0.00041  24065012.97548
  -2798608.86548  -2180725.21444         0.00041  24544979.61744  24544974.23148
  -5278477.14848  -4113086.98344         0.00041  23992096.85944  23992087.67548
 -20258211.25449 -15785612.29746         0.00041  21409294.24246  21409288.43349
 97 05 01 00 15 00.0000000  0  8 05 06 10 17 23 24 26 30
  -9117796.94048  -7104781.01245         0.00041  23242413.55745  23242403.13248
 -24136473.14649 -18807626.66547         0.00041  20513153.17547  20513148.30949
 -12307614.42849  -9590336.57746         0.00041  22048484.44446  22048478.13349
 -17181394.43948 -13388078.05446         0.00041  22093123.51246  22093116.72048
  -6265106.24648         0.00041         0.00041         0.00041  24045262.61548
  -2721115.67448         0.00041         0.00041         0.00041  24559720.46448
  -5355558.96848  -4173150.49844         0.00041  23977427.73944  23977419.29948
 -20182905.00149 -15726932.11746         0.00041  21423624.13046  21423618.74749
 97 05 01 00 15 30.0000000  0  8 05 06 10 17 23 24 26 30
  -9012354.69148  -7022618.32745         0.00041  23262476.79545  23262468.35648
 -24168082.78249 -18832257.53447         0.00041  20507137.98947  20507133.08749
 -12235608.28449  -9534227.89246         0.00041  22062186.45746  22062180.54549
 -17237921.27548 -13432124.86846         0.00041  22082367.10946  22082360.05048
  -6368786.63548  -4962678.31844         0.00041  24025544.06744  24025532.64948
  -2643676.81548  -2060000.05341         0.00041         0.00041  24574456.58448
  -5432542.08348  -4233137.13844         0.00041  23962779.33544  23962769.65448
 -20107204.50349 -15667944.73446         0.00041  21438029.51146  21438024.07149
 97 05 01 00 16 00.0000000  0  8 05 06 10 17 23 24 26 30
  -8906739.57048  -6940320.94945         0.00041  23282577.59445  23282566.17648
 -24199376.08649 -18856641.90947         0.00041  20501183.05547  20501178.14049
 -12163150.53749  -9477767.31146         0.00041  22075974.78646  22075968.93149
 -17294203.71048 -13475981.24046         0.00041  22071657.06446  22071649.78848
  -6472325.02848  -5043357.31744         0.00041  24005841.00744  24005829.83748
  -2566244.43148  -1999662.54044         0.00041  24589186.39644  24589191.51348
  -5509379.39948  -4293010.15544         0.00041  23948158.48544  23948147.81248
 -20031059.83949 -15608611.24846         0.00041  21452519.27946  21452513.91749
 97 05 01 00 16 30.0000000  0  8 05 06 10 17 23 24 26 30
  -8801001.40448  -6857927.69245         0.00041  23302696.95545  23302687.52348
 -24230384.92649 -18880804.62547         0.00041  20495282.42847  20495277.43149
 -12090281.02749  -9420985.87346         0.00041  22089841.44146  22089835.49649
 -17350275.67748 -13519673.61746         0.00041  22060986.18146  22060979.67448
  -6575764.05048  -5123958.86844         0.00041  23986156.30144  23986145.87648
  -2488846.12348  -1939350.69745         0.00041  24603925.40145  24603919.94848
  -5586104.87248         0.00041         0.00041         0.00041  23933547.23548
 -19954506.94349 -15548959.65546         0.00041  21467087.17646  21467081.58949
 97 05 01 00 17 00.0000000  0  8 05 06 10 17 23 24 26 30
  -8695168.03848  -6775460.25045         0.00041  23322835.70045  23322827.01248
 -24261129.03449 -18904761.05647         0.00041  20489431.93947  20489426.90549
 -12017036.81548  -9363912.46646         0.00041  22103779.28946  22103773.31948
 -17406141.23048 -13563205.14546         0.00041  22050356.15646  22050348.77848
  -6679107.51848         0.00041         0.00041         0.00041  23966480.14248
  -2411492.00548  -1879064.43446         0.00041  24618645.56546  24618640.21848
  -5662723.91648  -4412498.97244         0.00041  23918976.58944  23918966.90848
 -19877567.11549 -15489006.56046         0.00041  21481728.10546  21481722.73649
 97 05 01 00 17 30.0000000  0  8 05 06 10 17 23 24 26 30
  -8589152.43848  -6692850.81745         0.00041  23343010.94445  23343001.26348
 -24291518.05949 -18928440.79847         0.00041  20483649.09047  20483644.07149
 -11943345.16148  -9306490.39946         0.00041  22117802.56746  22117796.33248
 -17461709.15348 -13606504.76446         0.00041  22039781.01046  22039774.54848
  -6782247.66148         0.00041         0.00041         0.00041  23946853.00948
  -2334108.19248  -1818766.61146         0.00041  24633371.29546  24633365.89048
  -5739148.46648  -4472050.34744         0.00041  23904431.12144  23904423.71348
 -19800166.87949 -15428694.70546         0.00041  21496456.80646  21496451.52549
 97 05 01 00 18 00.0000000  0  8 05 06 10 17 23 24 26 30
  -8482942.58248  -6610090.00545         0.00041  23363220.33945  23363212.43848
 -24321530.41649 -18951827.03347         0.00041  20477937.75547  20477932.78549
 -11869198.48348  -9248713.76846         0.00041  22131912.44546  22131905.94848
 -17516953.23048 -13649552.03746         0.00041  22029268.90146  22029261.91648
  -6885164.58248  -5365049.44544         0.00041  23927278.03444  23927268.35348
  -2256687.80448  -1758448.52345         0.00041  24648104.71845  24648098.37348
  -5815366.37548  -4531440.71344         0.00041  23889929.19144  23889919.75948
 -19722296.20149 -15368016.27446         0.00041  21511275.54546  21511269.87849
 97 05 01 00 18 30.0000000  0  8 05 06 10 17 23 24 26 30
  -8376687.93348  -6527294.31445         0.00041  23383442.57345  23383432.14848
 -24351292.96149 -18975018.60947         0.00041  20472274.22347  20472269.10949
 -11794733.50048  -9190689.11146         0.00041  22146082.22346  22146076.10348
 -17572010.18348 -13692453.49446         0.00041  22018791.47346  22018784.76548
  -6987986.33748  -5445170.04645         0.00041  23907712.71245  23907701.79148
  -2179364.15148         0.00041         0.00041         0.00041  24662812.84248
  -5891508.02548  -4590771.68144         0.00041  23875438.95844  23875430.27048
 -19644084.37649 -15307072.01146         0.00041  21526158.37846  21526152.96749
 97 05 01 00 19 00.0000000  0  8 05 06 10 17 23 24 26 30
  -8270472.97148  -6444529.51545         0.00041  23403652.13045  23403644.26948
 -24380877.85649 -18998071.75747         0.00041  20466644.45547  20466639.34649
 -11720029.25248  -9132478.01446         0.00041  22160298.36746  22160291.82948
 -17626961.94848 -13735272.99346         0.00041  22008334.80146  22008327.69248
  -7090793.68848  -5525279.40945         0.00041  23888148.79745  23888138.12348
  -2102229.69948         0.00041         0.00041         0.00041  24677490.72548
  -5967655.05548  -4650106.85844         0.00041  23860947.10544  23860939.68548
 -19565612.87749 -15245925.40946         0.00041  21541091.12646  21541085.58649
 97 05 01 00 19 30.0000000  0  8 05 06 10 17 23 24 26 30
  -8164080.07748  -6361626.07645         0.00041  23423898.66345  23423890.22348
 -24410048.74749 -19020802.30747         0.00041  20461093.33647  20461088.40449
 -11644853.67648  -9073899.64646         0.00041  22174603.76146  22174597.23648
 -17681593.35749 -13777842.86846         0.00041  21997938.44846  21997931.83549
  -7193374.78448         0.00041         0.00041         0.00041  23868617.44448
  -2025072.84848         0.00041         0.00041         0.00041  24692173.22448
  -6043595.04648  -4709280.69244         0.00041  23846498.00444  23846488.82048
 -19486645.03149 -15184392.03946         0.00041  21556118.24146  21556112.73849
 97 05 01 00 20 00.0000000  0  8 05 06 10 17 23 24 26 30
  -8057628.96848  -6278677.30545         0.00041  23444156.82645  23444147.39348
 -24438923.79949 -19043302.33147         0.00041  20455598.52547  20455593.58149
 -11569313.18548  -9015036.93346         0.00041  22188978.59746  22188972.24148
 -17736040.50749 -13820269.16146         0.00041  21987577.80646  21987570.73249
  -7295857.31948         0.00041         0.00041         0.00041  23849115.55048
  -1948009.72448         0.00041         0.00041         0.00041  24706838.09848
  -6119439.04548  -4768379.74744         0.00041  23832061.05544  23832055.97248
 -19407286.17949 -15122553.99346         0.00041  21571219.85846  21571214.20649
 97 05 01 00 20 30.0000000  0  8 05 06 10 17 23 24 26 30
  -7951084.28648  -6195655.61645         0.00041  23464430.99745  23464422.31048
 -24467467.02849 -19065543.79247         0.00041  20450167.08947  20450161.99549
 -11493378.36448  -8955866.94446         0.00041  22203428.48146  22203422.13448
 -17790284.52049 -13862537.16846         0.00041  21977255.37846  21977248.37649
  -7398216.75748  -5764829.05345         0.00041  23829647.55545  23829636.88248
  -1871011.41848         0.00041         0.00041         0.00041  24721490.27048
  -6195146.47848  -4827372.36544         0.00041  23817657.65744  23817649.21748
 -19327507.30649 -15060388.65646         0.00041  21586401.51146  21586395.64349
 97 05 01 00 21 00.0000000  0  8 05 06 10 17 23 24 26 30
  -7844417.56148  -6112538.81445         0.00041  23484730.39245  23484720.46448
 -24495657.32249 -19087510.24047         0.00041  20444802.49247  20444797.53649
 -11417039.64648  -8896382.23946         0.00041  22217955.40746  22217948.94848
 -17844317.48749 -13904640.72646         0.00041  21966973.24646  21966966.25949
  -7500443.94748         0.00041         0.00041         0.00041  23810183.47148
  -1794060.25848         0.00041         0.00041         0.00041  24736133.62748
  -6270706.17048  -4886249.88144         0.00041  23803276.80144  23803270.45548
 -19247310.14849 -14997897.38346         0.00041  21601662.46546  21601656.61349
 97 05 01 00 21 30.0000000  0  8 05 06 10 17 23 24 26 30
  -7737600.92448  -6029305.20745         0.00041  23505054.69745  23505047.03748
 -24523476.79549 -19109187.73647         0.00041  20439508.59047  20439503.62249
 -11340278.12948  -8836568.06746         0.00041  22232562.16546  22232556.29448
 -17898121.12749 -13946565.58946         0.00041  21956734.52246  21956727.75849
  -7602515.44548         0.00041         0.00041         0.00041  23790759.72348
  -1717122.88448  -1338007.00445         0.00041  24750780.28045  24750774.37448
  -6346084.65948  -4944986.21444         0.00041  23788932.94944  23788926.54648
 -19166691.81549 -14935077.92346         0.00041  21617003.24046  21616997.81249
 97 05 01 00 22 00.0000000  0  8 05 06 10 17 23 24 26 30
  -7630681.00048  -5945991.11845         0.00041  23525402.98845  23525393.30848
 -24550967.60249 -19130609.13047         0.00041  20434277.40247  20434272.40649
 -11263142.72648  -8776462.56446         0.00041  22247240.10546  22247234.61648
 -17951729.88649 -13988338.59746         0.00041  21946533.28246  21946526.23149
  -7704455.35748  -6003455.71945         0.00041  23771370.63945  23771360.95948
  -1640234.83148  -1278098.55144         0.00041  24765408.54944  24765405.75348
  -6421301.34548  -5003596.44044         0.00041  23774619.14144  23774613.17148
 -19085726.71949 -14871988.26046         0.00041  21632410.65946  21632405.04449
 97 05 01 00 22 30.0000000  0  8 05 06 10 17 23 24 26 30
  -7523714.41648  -5862640.66945         0.00041  23545758.04845  23545748.61648
 -24578168.43449 -19151804.56947         0.00041  20429101.18747  20429096.29549
 -11185681.39048  -8716103.08846         0.00041  22261980.82646  22261974.99348
 -18005164.88249 -14029976.19946         0.00041  21936364.83146  21936357.91049
  -7806279.22148  -6082798.71745         0.00041  23751995.08045  23751984.40748
  -1563444.00648         0.00041         0.00041         0.00041  24780018.74248
  -6496392.60948  -5062108.93444         0.00041  23760330.11344  23760323.47748
 -19004474.81649 -14808675.11446         0.00041  21647872.39446  21647866.74149
 97 05 01 00 23 00.0000000  0  8 05 06 10 17 23 24 26 30
  -7416615.39948  -5779187.04845         0.00041  23566138.36945  23566128.93748
 -24605004.83249 -19172716.03447         0.00041  20423994.36047  20423989.42749
 -11107817.04648  -8655429.58046         0.00041  22276798.01146  22276792.09348
 -18058330.58149 -14071403.96646         0.00041  21926247.57246  21926240.77549
  -7907872.31448  -6161961.90645         0.00041  23732661.77445  23732651.59748
  -1486673.25248         0.00041         0.00041         0.00041  24794627.52248
  -6571272.60448  -5120456.78644         0.00041  23746084.67744  23746074.25248
 -18922849.41849 -14745070.93046         0.00041  21663405.38946  21663399.55549
 97 05 01 00 23 30.0000000  0  8 05 06 10 17 23 24 26 30
  -7309406.47648  -5695647.76845         0.00041  23586539.23045  23586530.04748
 -24631499.32949 -19193361.08247         0.00041  20418952.69547  20418947.65449
 -11029570.65948  -8594458.37846         0.00041  22291688.37246  22291681.80948
 -18111217.44949 -14112614.45946         0.00041  21916183.36746  21916176.64849
  -8009225.50348  -6240938.14145         0.00041  23713375.59245  23713364.42248
  -1409946.69248         0.00041         0.00041         0.00041  24809228.38048
  -6645933.29548  -5178633.80644         0.00041  23731873.81744  23731866.69248
 -18840839.65849 -14681167.24446         0.00041  21679011.10846  21679005.51549
 97 05 01 00 24 00.0000000  0  8 05 06 10 17 23 24 26 30
  -7202154.52448  -5612074.98445         0.00041  23606948.23345  23606939.54648
 -24657714.41049 -19213788.40347         0.00041  20413963.95247  20413959.04749
 -10951013.99348  -8533245.39746         0.00041  22306637.07546  22306630.65948
 -18163885.09049 -14153654.12746         0.00041  21906161.09246  21906154.29249
  -8110407.44548  -6319780.96545         0.00041  23694120.95345  23694110.03248
  -1333332.44248         0.00041         0.00041         0.00041  24823807.61648
  -6720435.12048  -5236686.97144         0.00041  23717696.75644  23717688.98848
 -18758483.44049 -14616993.59646         0.00041  21694682.82546  21694677.42349
 97 05 01 00 24 30.0000000  0  8 05 06 10 17 23 24 26 30
  -7094792.49348  -5528416.40645         0.00041  23627380.59745  23627369.92348
 -24683595.56449 -19233955.52347         0.00041  20409038.92647  20409033.97149
 -10872091.08648  -8471747.03646         0.00041  22321655.61046  22321649.17548
 -18216279.35349 -14194480.77346         0.00041  21896190.75846  21896183.84749
  -8211382.00548         0.00041         0.00041         0.00041  23674894.85548
  -1256768.75348         0.00041         0.00041         0.00041  24838377.18348
  -6794728.14148  -5294577.46244         0.00041  23703558.77944  23703551.53248
 -18675686.24249 -14552476.33046         0.00041  21710438.70446  21710433.27149
 97 05 01 00 25 00.0000000  0  7 05 06 10 17 23 24 30
  -6987387.30648  -5444724.19545         0.00041  23647817.49845  23647808.56248
 -24709216.81249 -19253920.12047         0.00041  20404163.46947  20404158.40749
 -10792882.66348  -8410026.19346         0.00041  22336728.18846  22336722.11748
 -18268481.28249 -14235157.54346         0.00041  21886256.83746  21886250.22949
  -8312250.79048  -6477060.97045         0.00041  23655709.41745  23655699.98448
  -1180309.27447         0.00041         0.00041         0.00041  24852926.73647
 -18592510.75849 -14487664.29446         0.00041  21726266.47746  21726261.02149
 97 05 01 00 25 30.0000000  0  7 05 06 10 17 23 24 30
  -6879956.38448         0.00041         0.00041         0.00041  23668252.11548
 -24734566.74549 -19273673.30347         0.00041  20399339.49747  20399334.54449
 -10713390.55648  -8348084.29546         0.00041  22351855.78046  22351848.90648
 -18320508.57649 -14275698.23346         0.00041  21876356.18446  21876349.69949
  -8413043.59648  -6555600.55545         0.00041  23636530.53845  23636519.61748
  -1103942.72147         0.00041         0.00041         0.00041  24867458.84247
 -18508980.72649 -14422575.98946         0.00041  21742162.04946  21742156.22649
 97 05 01 00 26 00.0000000  0  7 05 06 10 17 23 24 30
  -6772483.48448  -5277267.01345         0.00041  23688715.16145  23688703.74348
 -24759607.65249 -19293185.68647         0.00041  20394574.33747  20394569.41449
 -10633595.68448  -8285906.48146         0.00041  22367039.57346  22367033.41848
 -18372368.90349 -14316108.82046         0.00041  21866487.72746  21866480.86049
  -8513747.98048  -6634071.25245         0.00041  23617365.78845  23617356.10748
  -1027638.90548         0.00041         0.00041         0.00041  24881979.59548
 -18425097.51349 -14357212.48046         0.00041  21758123.98546  21758118.74049
 97 05 01 00 26 30.0000000  0  7 05 06 10 17 23 24 30
  -6664851.39148  -5193398.02145         0.00041  23709195.79845  23709185.62148
 -24784203.21349 -19312351.05147         0.00041  20389893.91347  20389888.99249
 -10553372.98948  -8223395.29446         0.00041  22382305.94146  22382299.31848
 -18423937.02949 -14356291.71446         0.00041  21856674.49446  21856667.85949
  -8614213.26248  -6712355.63945         0.00041  23598247.73345  23598238.05348
   -951271.80548         0.00041         0.00041         0.00041  24896511.86748
 -18340757.50349 -14291493.02346         0.00041  21774173.57846  21774168.19949
 97 05 01 00 27 00.0000000  0  7 05 06 10 17 23 24 30
  -6557091.62448  -5109429.53645         0.00041  23729701.49845  23729691.81848
 -24808376.38049 -19331187.27647         0.00041  20385293.87747  20385289.00149
 -10472753.19348  -8160574.67746         0.00041  22397646.72346  22397640.77348
 -18475242.63949 -14396270.05046         0.00041  21846911.39346  21846904.64849
  -8714445.56148  -6790458.48645         0.00041  23579173.48045  23579164.29648
   -874876.85448         0.00041         0.00041         0.00041  24911049.33648
 -18256023.91449 -14225466.88446         0.00041  21790297.96246  21790292.37249
 97 05 01 00 27 30.0000000  0  7 05 06 10 17 23 24 30
  -6449258.42148  -5025403.83045         0.00041  23750220.43245  23750211.99348
 -24832182.21949 -19349737.26947         0.00041  20380763.87647  20380758.88249
 -10391789.61248  -8097486.18046         0.00041  22413053.77446  22413047.62348
 -18526335.73449 -14436082.79946         0.00041  21837188.53246  21837181.92049
  -8814487.34048  -6868412.87645         0.00041  23560135.67645  23560126.74048
   -798519.45748         0.00041         0.00041         0.00041  24925579.21048
 -18170964.30349 -14159186.70046         0.00041  21806484.37446  21806478.63849
 97 05 01 00 28 00.0000000  0  7 05 06 10 17 23 24 30
  -6341324.51548  -4941299.67945         0.00041  23770761.50645  23770751.32948
 -24855615.11149 -19367996.65247         0.00041  20376304.66947  20376299.72849
 -10310458.19348  -8034111.05746         0.00041  22428530.68046  22428524.42848
 -18577175.95249 -14475698.49246         0.00041  21827513.95546  21827507.16649
  -8914299.90148  -6946188.66945         0.00041  23541142.62045  23541132.93948
   -722184.75248         0.00041         0.00041         0.00041  24940105.41748
 -18085539.01749 -14092621.57446         0.00041  21822740.53446  21822734.56649
 97 05 01 00 28 30.0000000  0  7 05 06 10 17 23 24 30
  -6233303.12248  -4857127.34744         0.00041  23791315.78044  23791307.34048
 -24878702.67649 -19385986.95247         0.00041  20371911.27747  20371906.30649
 -10228755.55948  -7970446.67846         0.00041  22444078.06546  22444071.91848
 -18627758.92649 -14515113.73946         0.00041  21817888.31946  21817881.58649
  -9013900.40048  -7023799.20645         0.00041  23522188.22345  23522179.28748
   -645889.00048   -503284.08841         0.00041         0.00041  24954623.78248
 -17999765.43649 -14025785.05646         0.00041  21839062.59946  21839056.73349
 97 05 01 00 29 00.0000000  0  7 05 06 10 17 23 24 30
  -6125248.32648  -4772928.99445         0.00041  23811879.90545  23811869.48048
 -24901494.34449 -19403746.68247         0.00041  20367574.07547  20367569.14049
 -10146729.57348  -7906530.33446         0.00041  22459686.53346  22459680.91948
 -18678138.28849 -14554370.32946         0.00041  21808301.29546  21808294.60849
  -9113354.88048  -7101295.98045         0.00041  23503261.65945  23503253.46848
   -569678.70048   -443899.49241         0.00041         0.00041  24969126.25248
 -17913692.14349 -13958714.99146         0.00041  21855441.77446  21855436.03749
 97 05 01 00 29 30.0000000  0  7 05 06 10 17 23 24 30
  -6017145.57448  -4688693.28244         0.00041  23832450.19444  23832441.01048
 -24923947.36849 -19421242.53447         0.00041  20363301.50847  20363296.52849
 -10064352.10748  -7842340.11046         0.00041  22475362.97246  22475356.82948
 -18728284.37249 -14593445.14346         0.00041  21798758.81346  21798752.12949
  -9212633.82848  -7178655.98045         0.00041  23484371.10745  23484361.17848
   -493510.41148   -384547.65841         0.00041         0.00041  24983620.66248
 -17827267.38849 -13891371.06646         0.00041  21871888.12846  21871882.23849
 97 05 01 00 30 00.0000000  0  7 05 06 10 17 23 24 30
  -5909038.63448  -4604454.29745         0.00041  23853024.55345  23853013.13548
 -24946088.20749 -19438495.12747         0.00041  20359088.22447  20359083.30249
  -9981659.57148  -7777904.37546         0.00041  22491098.98346  22491092.79048
 -18778236.47949 -14632368.80946         0.00041  21789253.14046  21789246.53449
  -9311759.01548  -7255896.16545         0.00041  23465508.43145  23465498.25448
   -417419.42748   -325255.98541         0.00041         0.00041  24998100.44548
 -17740520.91449 -13823776.44346         0.00041  21888395.47246  21888389.55749
 97 05 01 00 30 30.0000000  0  7 05 06 10 17 23 24 30
  -5800923.77348  -4520209.14944         0.00041  23873598.44444  23873586.77848
 -24967879.66449 -19455475.47447         0.00041  20354941.51647  20354936.53649
  -9898649.11448  -7713220.91846         0.00041  22506895.24046  22506889.20348
 -18827996.74249 -14671142.98946         0.00041  21779784.07146  21779777.40249
  -9410722.55448  -7333010.38645         0.00041  23446675.37345  23446665.94148
   -341385.76048         0.00041         0.00041         0.00041  25012569.18048
 -17653452.67149 -13755931.10146         0.00041  21904963.93646  21904958.03249
 97 05 01 00 31 00.0000000  0  7 05 06 10 17 23 24 30
  -5692792.88448  -4435951.51644         0.00041  23894175.13344  23894163.71548
 -24989306.07749 -19472171.37047         0.00041  20350864.03147  20350859.15349
  -9815331.09448  -7648297.79146         0.00041  22522750.25246  22522744.03048
 -18877559.51649 -14709763.28246         0.00041  21770352.34146  21770345.91649
  -9509498.72848  -7409978.63445         0.00041  23427879.74945  23427869.32448
   -265392.53848   -206793.59341         0.00041         0.00041  25027030.24848
 -17566045.31349 -13687821.50446         0.00041  21921597.19246  21921591.22349
 97 05 01 00 31 30.0000000  0  7 05 06 10 17 23 24 30
  -5584639.95548  -4351676.69545         0.00041  23914754.42645  23914744.49748
 -25010381.45949 -19488593.73547         0.00041  20346853.52847  20346848.64849
  -9731701.78148  -7583132.10946         0.00041  22538664.78646  22538658.08248
 -18926916.22049 -14748223.00546         0.00041  21760960.22246  21760953.58449
  -9608075.08848  -7486791.17045         0.00041  23409119.74545  23409110.56148
   -189446.17748   -147614.65344         0.00041  25041485.94444  25041482.50648
 -17478297.35949 -13619446.51846         0.00041  21938294.89246  21938289.13049
 97 05 01 00 32 00.0000000  0  7 05 06 10 17 23 24 30
  -5476437.68448  -4267363.43244         0.00041  23935346.18144  23935335.01248
 -25031106.27149 -19504742.92747         0.00041  20342909.71647  20342904.90149
  -9647741.56548  -7517708.57146         0.00041  22554641.62846  22554635.22648
 -18976046.69049 -14786506.44046         0.00041  21751610.98046  21751604.46749
  -9706440.59448  -7563439.41145         0.00041  23390401.10145  23390392.16548
   -113557.88248    -88480.94741         0.00041         0.00041  25055923.83148
 -17390214.74649 -13550810.75246         0.00041  21955056.60446  21955050.72249
 97 05 01 00 32 30.0000000  0  7 05 06 10 17 23 24 30
  -5368161.60348  -4182992.66544         0.00041  23955948.55944  23955939.37548
 -25051464.67149 -19520606.60347         0.00041  20339035.51947  20339030.82249
  -9563441.23148  -7452020.00846         0.00041  22570683.36646  22570677.02748
 -19024938.00749 -14824603.52846         0.00041  21742307.15746  21742300.57749
  -9804578.83648  -7639910.57145         0.00041  23371724.58545  23371716.93448
    -37712.79148    -29380.93841         0.00041         0.00041  25070356.52348
 -17301785.87349 -13481905.17646         0.00041  21971884.20046  21971878.25849
 97 05 01 00 33 00.0000000  0  7 05 06 10 17 23 24 30
  -5259789.73748  -4098547.28244         0.00041  23976572.51944  23976562.09348
 -25071466.80049 -19536192.66847         0.00041  20335229.18347  20335224.50949
  -9478796.63548  -7386063.19646         0.00041  22586791.10246  22586784.29148
 -19073578.40349 -14862505.09346         0.00041  21733051.17146  21733044.57549
  -9902469.85248  -7716189.08245         0.00041  23353097.63545  23353088.69948
     38093.42948         0.00041         0.00041         0.00041  25084781.74248
 -17213005.09949 -13412725.39146         0.00041  21988778.55346  21988772.66649
 97 05 01 00 33 30.0000000  0  7 05 06 10 17 23 24 30
  -5151369.04348  -4014063.82744         0.00041  23997204.73344  23997194.06048
 -25091140.59349 -19551522.88747         0.00041  20331485.43947  20331480.58549
  -9393847.49148  -7319869.07446         0.00041  22602955.77546  22602949.60548
 -19122010.89749 -14900244.65846         0.00041  21723834.75246  21723828.22549
 -10000157.66448  -7792309.26845         0.00041  23334508.93345  23334499.25348
    113813.81948         0.00041         0.00041         0.00041  25099190.98648
 -17123917.14449 -13343306.24846         0.00041  22005731.37846  22005725.50849
 97 05 01 00 34 00.0000000  0  7 05 06 10 17 23 24 30
  -5042916.57548         0.00041         0.00041         0.00041  24017831.95648
 -25110471.78549 -19566586.14347         0.00041  20327806.80847  20327802.03549
  -9308616.42548  -7253455.26246         0.00041  22619174.92646  22619168.60348
 -19170251.76749 -14937834.90646         0.00041  21714654.92746  21714648.37749
 -10097651.27248  -7868278.12445         0.00041  23315956.38045  23315946.70048
    189455.09348    147632.85541         0.00041         0.00041  25113584.82648
 -17034532.36049 -13273655.80446         0.00041  22022740.84946  22022734.81749
 97 05 01 00 34 30.0000000  0  7 05 06 10 17 23 24 30
  -4934457.84148  -3845042.53244         0.00041  24038481.43444  24038471.25748
 -25129460.04049 -19581382.17547         0.00041  20324193.49247  20324188.59849
  -9223122.54348  -7186836.67346         0.00041  22635443.84446  22635437.50048
 -19218318.87049 -14975289.74846         0.00041  21705507.63146  21705501.43449
 -10194952.10448  -7944096.77145         0.00041  23297439.01745  23297430.82648
    265036.41848    206527.29544         0.00041  25127972.42044  25127967.63348
 -16944861.08649 -13203782.12846         0.00041  22039804.39946  22039798.67449
 97 05 01 00 35 00.0000000  0  7 05 06 10 17 23 24 30
  -4825985.96948         0.00041         0.00041         0.00041  24059112.57548
 -25148076.14549 -19595888.21947         0.00041  20320650.93547  20320646.08949
  -9137326.96148  -7119982.98546         0.00041  22651770.57746  22651763.96348
 -19266184.95149 -15012587.95546         0.00041  21696399.01946  21696392.85349
 -10292047.03848  -8019754.97845         0.00041  23278963.55545  23278954.12348
    340574.74948    265388.27844         0.00041  25142350.93544  25142342.49548
 -16854887.23449 -13133672.67846         0.00041  22056926.24046  22056920.28549
 97 05 01 00 35 30.0000000  0  7 05 06 10 17 23 24 30
  -4717509.83048  -3675992.58544         0.00041  24079764.47844  24079755.04648
 -25166291.00949 -19610081.60747         0.00041  20317184.74147  20317179.91949
  -9051213.35948  -7052881.48646         0.00041  22668157.48146  22668150.82748
 -19313828.61049 -15049712.84646         0.00041  21687332.58046  21687326.41649
 -10388939.59348  -8095255.48546         0.00041  23260522.95646  23260516.03748
    416075.71648         0.00041         0.00041         0.00041  25156709.85548
 -16764601.55449 -13063320.24246         0.00041  22074106.67646  22074101.14249
 97 05 01 00 36 00.0000000  0  7 05 06 10 17 23 24 30
  -4609021.52948         0.00041         0.00041         0.00041  24100399.85348
 -25184112.67649 -19623968.60947         0.00041  20313793.38247  20313788.59049
  -8964786.25648  -6985535.70846         0.00041  22684604.00146  22684597.39848
 -19361240.91449 -15086657.45946         0.00041  21678310.65746  21678304.17449
 -10485624.60948  -8170594.27845         0.00041  23242126.24045  23242117.30448
    491538.35948    383022.14241         0.00041         0.00041  25171069.90748
 -16674007.98349 -12992727.89746         0.00041  22091346.35346  22091340.54549
 97 05 01 00 36 30.0000000  0  7 05 06 10 17 23 24 30
  -4500534.00248         0.00041         0.00041         0.00041  24121044.61148
 -25201568.47849 -19637570.52447         0.00041  20310471.73247  20310466.88049
  -8878058.61348  -6917955.74646         0.00041  22701108.25646  22701101.13748
 -19408432.88749 -15123430.38846         0.00041  21669330.22246  21669323.72349
 -10582116.03648  -8245782.22845         0.00041  23223763.37445  23223755.60648
    566932.04548    441770.45141         0.00041         0.00041  25185416.76248
 -16583119.55449 -12921905.78946         0.00041  22108642.33646  22108635.94649
 97 05 01 00 37 00.0000000  0  7 05 06 10 17 23 24 30
  -4392054.34748         0.00041         0.00041         0.00041  24141687.51748
 -25218677.13349 -19650901.93547         0.00041  20307215.90347  20307211.18849
  -8791059.90448  -6850164.55646         0.00041  22717662.40746  22717656.53248
 -19455420.98549 -15160044.45246         0.00041  21660388.40746  21660382.16549
 -10678443.08248  -8320842.08446         0.00041  23205434.55146  23205425.11948
    642220.85748         0.00041         0.00041         0.00041  25199743.86748
 -16491948.70549 -12850863.61946         0.00041  22125991.63146  22125985.31349
 97 05 01 00 37 30.0000000  0  7 05 06 10 17 23 24 30
  -4283553.19448         0.00041         0.00041         0.00041  24162334.62848
 -25235429.49549 -19663955.71647         0.00041  20304028.03347  20304023.19349
  -8703804.55948  -6782173.39446         0.00041  22734266.91346  22734260.59148
 -19502195.09449 -15196491.77146         0.00041  21651487.71246  21651481.41349
 -10774580.48848  -8395754.18346         0.00041  23187138.02446  23187130.69248
    717430.09448    559041.53141         0.00041         0.00041  25214055.73348
 -16400486.67649 -12779594.55146         0.00041  22143395.84046  22143390.01149
 97 05 01 00 38 00.0000000  0  7 05 06 10 17 23 24 30
  -4175003.20348         0.00041         0.00041         0.00041  24182991.24148
 -25251810.34949 -19676720.01347         0.00041  20300910.96547  20300906.04949
  -8616272.45248  -6713966.57146         0.00041  22750924.59046  22750917.39048
 -19548747.58349 -15232766.39746         0.00041  21642629.07946  21642622.67949
 -10870491.27748  -8470489.69446         0.00041  23168886.77446  23168879.21248
    792589.28048         0.00041         0.00041         0.00041  25228357.68548
 -16308718.64749 -12708087.04546         0.00041  22160858.75246  22160852.92849
 97 05 01 00 38 30.0000000  0  7 05 06 10 17 23 24 30
  -4066402.72648         0.00041         0.00041         0.00041  24203657.47848
 -25267794.40749 -19689175.11747         0.00041  20297869.35347  20297864.43449
  -8528450.24948  -6645533.70246         0.00041  22767636.28946  22767629.44448
 -19595077.42949 -15268867.53746         0.00041  21633812.85046  21633806.45549
 -10966170.17148  -8545044.51246         0.00041  23150680.57046  23150671.88348
    867713.28448    676145.22341         0.00041         0.00041  25242653.59848
 -16216644.22449 -12636340.79046         0.00041  22178380.42846  22178374.11949
 97 05 01 00 39 00.0000000  0  7 05 06 10 17 23 24 30
  -3957735.88848         0.00041         0.00041         0.00041  24224336.46248
 -25283352.67849 -19701298.43947         0.00041  20294908.59947  20294903.81749
  -8440319.54048  -6576860.44346         0.00041  22784406.62446  22784400.16648
 -19641163.36049 -15304778.61246         0.00041  21625042.66346  21625036.47249
 -11061593.63348  -8619400.29246         0.00041  23132521.08946  23132513.25748
    942829.42048         0.00041         0.00041         0.00041  25256947.69748
 -16124266.27949 -12564358.02746         0.00041  22195959.30046  22195953.14249
 97 05 01 00 39 30.0000000  0  7 05 06 10 17 23 24 30
  -3849034.08048  -2999260.17544         0.00041  24245028.06244  24245021.93048
 -25298490.96749 -19713094.50247         0.00041  20292027.79447  20292023.04649
  -8351878.39548  -6507945.28046         0.00041  22801235.68346  22801229.97548
 -19687009.44949 -15340502.79546         0.00041  21616318.45646  21616312.28949
 -11156749.01348  -8693547.18446         0.00041  23114413.46646  23114405.62948
   1017936.46248    793202.07441         0.00041         0.00041  25271240.51048
 -16031598.85949 -12492149.70046         0.00041  22213593.08146  22213587.16949
 97 05 01 00 40 00.0000000  0  7 05 06 10 17 23 24 30
  -3740340.39148         0.00041         0.00041         0.00041  24265706.01748
 -25313221.93649 -19724573.17547         0.00041  20289224.58947  20289219.83249
  -8263125.87048  -6438787.48646         0.00041  22818125.13646  22818119.01048
 -19732614.59149 -15376039.23046         0.00041  21607640.43746  21607633.87249
 -11251639.21548  -8767487.44846         0.00041  23096356.30846  23096348.46048
   1093016.97948         0.00041         0.00041         0.00041  25285527.68248
 -15938645.99948 -12419718.95546         0.00041  22231281.98446  22231275.57348
 97 05 01 00 40 30.0000000  0  7 05 06 10 17 23 24 30
  -3631665.55548         0.00041         0.00041         0.00041  24286386.37048
 -25327558.59049 -19735744.58947         0.00041  20286496.59547  20286491.68649
  -8174088.80848  -6369407.96446         0.00041  22835068.50946  22835062.21248
 -19777981.72749 -15411390.20546         0.00041  21599007.16246  21599000.68449
 -11346276.79848  -8841230.86846         0.00041  23078348.12846  23078339.44048
   1167642.35547         0.00041         0.00041         0.00041  25299801.26247
 -15845424.98848 -12347079.26046         0.00041  22249021.28546  22249014.95948
 97 05 01 00 41 00.0000000  0  6 05 06 10 17 23 30
  -3523025.08248         0.00041         0.00041         0.00041  24307060.32848
 -25341519.88349 -19746623.51347         0.00041  20283839.74647  20283834.97349
  -8084775.84848  -6299813.47746         0.00041  22852064.55546  22852057.98048
 -19823114.36149 -15446558.45146         0.00041  21590418.64546  21590412.24049
 -11440664.16348  -8914779.31446         0.00041  23060387.37646  23060378.19248
 -15751938.05948 -12274232.35646         0.00041  22266810.75046  22266804.99748
 97 05 01 00 41 30.0000000  0  6 05 06 10 17 23 30
  -3414436.24448         0.00041         0.00041         0.00041  24327724.17148
 -25355118.26249 -19757219.64647         0.00041  20281252.10247  20281247.25649
  -7995206.09848  -6230018.87746         0.00041  22869108.41846  22869102.49948
 -19868025.39449 -15481554.02146         0.00041  21581872.47146  21581865.95549
 -11534813.26548  -8988142.11346         0.00041  23042469.64146  23042462.03048
 -15658185.42548 -12201178.41046         0.00041  22284651.37746  22284645.41648
 97 05 01 00 42 00.0000000  0  7 05 06 10 17 22 23 30
  -3305886.30248  -2576029.51444         0.00041  24348389.88444  24348380.45148
 -25368354.69949 -19767533.74947         0.00041  20278733.21047  20278728.46049
  -7905388.93248  -6160031.49846         0.00041  22886200.60946  22886194.10048
 -19912733.51249 -15516391.47946         0.00041  21573364.67946  21573358.13049
        -0.84758         0.51854         0.00051  24253488.80254  24253480.36258
 -11628743.80948  -9061334.60446         0.00041  23024595.36046  23024587.48748
 -15564172.31948 -12127921.50246         0.00041  22302542.02746  22302535.63748
 97 05 01 00 42 30.0000000  0  7 05 06 10 17 22 23 30
  -3197345.28048         0.00041         0.00041         0.00041  24369035.31848
 -25381203.51149 -19777545.80447         0.00041  20276288.13947  20276283.28449
  -7815324.60648  -6089851.52146         0.00041  22903339.93646  22903332.86948
 -19957242.37549 -15551073.67646         0.00041  21564894.58846  21564888.40349
    -69932.06348    -54491.31244         0.00041  24240183.20944  24240172.78448
 -11722462.38248  -9134361.92646         0.00041  23006761.50846  23006753.31748
 -15469889.28248 -12054454.25946         0.00041  22320483.38646  22320477.31448
 97 05 01 00 43 00.0000000  0  7 05 06 10 17 22 23 30
  -3088845.90348         0.00041         0.00041         0.00041  24389682.26648
 -25393683.07649 -19787270.13447         0.00041  20273913.33847  20273908.50549
  -7725029.55848  -6019491.76746         0.00041  22920521.45546  22920515.39248
 -20001578.98949 -15585621.65146         0.00041  21556457.71646  21556451.47149
   -139504.76348   -108703.77044         0.00041  24226940.73444  24226933.47148
 -11815996.84648  -9207245.79646         0.00041  22988961.94446  22988954.23248
 -15375347.90048 -11980785.70646         0.00041  22338474.06946  22338468.05448
 97 05 01 00 43 30.0000000  0  7 05 06 10 17 22 23 30
  -2980365.31948         0.00041         0.00041         0.00041  24410325.82648
 -25405759.40249 -19796680.25347         0.00041  20271615.20847  20271610.54949
  -7634482.77048  -5948935.85046         0.00041  22937752.29946  22937745.98148
 -20045722.34949 -15620019.03546         0.00041  21548057.53946  21548051.26549
   -208682.30948   -162608.32044         0.00041  24213777.26244  24213769.66348
 -11909311.27048  -9279958.20946         0.00041  22971205.39246  22971196.95348
 -15280514.71648 -11906889.77746         0.00041  22356520.20646  22356514.12548
 97 05 01 00 44 00.0000000  0  7 05 06 10 17 22 23 30
  -2871797.50948         0.00041         0.00041         0.00041  24430985.92448
 -25417334.20949 -19805699.57547         0.00041  20269412.66147  20269407.96749
  -7543589.14748  -5878109.67346         0.00041  22955048.32846  22955042.43548
 -20089566.45349 -15654183.23946         0.00041  21539714.28846  21539708.01449
   -277348.20648   -216114.16944         0.00041  24200710.69444  24200702.77948
 -12002299.13648  -9352416.17146         0.00041  22953510.03646  22953501.84548
 -15185292.59748 -11832690.78946         0.00041  22374640.50946  22374634.24748
 97 05 01 00 44 30.0000000  0  7 05 06 10 17 22 23 30
  -2763252.20348  -2153199.15344         0.00041  24451651.97644  24451641.30348
 -25428513.05649 -19814410.36047         0.00041  20267285.47247  20267280.63849
  -7452453.13048  -5807094.61046         0.00041  22972391.28146  22972385.09248
 -20133198.19949 -15688181.96946         0.00041  21531411.29546  21531405.12449
   -345618.83748   -269312.03344         0.00041  24187718.70644  24187711.08348
 -12095041.95048  -9424683.18446         0.00041  22935862.09346  22935853.40648
 -15089796.71348 -11758278.46946         0.00041  22392812.52046  22392806.63448
 97 05 01 00 45 00.0000000  0  7 05 06 10 17 22 23 30
  -2654735.16648         0.00041         0.00041         0.00041  24472291.62048
 -25439320.00749 -19822831.35347         0.00041  20265228.83547  20265224.17349
  -7361075.72148  -5735891.46146         0.00041  22989780.30446  22989773.66648
 -20176617.00649 -15722014.77746         0.00041  21523148.82646  21523142.81949
   -413502.59248   -322208.41344         0.00041  24174802.35244  24174793.66448
 -12187517.65448  -9496742.06246         0.00041  22918263.90646  22918255.71548
 -14994043.75548 -11683665.83746         0.00041  22411033.84546  22411027.90648
 97 05 01 00 45 30.0000000  0  7 05 06 10 17 22 23 30
  -2546228.89848         0.00041         0.00041         0.00041  24492939.99548
 -25449755.07849 -19830962.57047         0.00041  20263243.39347  20263238.44849
  -7269458.47448  -5664501.42246         0.00041  23007213.76646  23007207.84048
 -20219818.37749 -15755678.15246         0.00041  21514928.03446  21514921.61949
   -480980.72948   -374788.75244         0.00041  24161959.74644  24161953.07248
 -12279709.90148  -9568580.06246         0.00041  22900720.40046  22900711.96148
 -14898045.79548 -11608862.30246         0.00041  22429301.89646  22429295.66848
 97 05 01 00 46 00.0000000  0  7 05 06 10 17 22 23 30
  -2437722.82448  -1899540.79344         0.00041  24513598.39044  24513588.21348
 -25459821.28149 -19838806.35647         0.00041  20261327.71747  20261322.94349
  -7177608.50148  -5592930.03346         0.00041  23024692.42846  23024686.31048
 -20262806.31149 -15789175.21446         0.00041  21506747.26846  21506741.30749
   -548061.54448   -427059.50844         0.00041  24149191.95644  24149188.14348
 -12371631.39848  -9640207.10246         0.00041  22883228.74246  22883219.80748
 -14801827.28248 -11533886.90246         0.00041  22447611.70746  22447605.51248
 97 05 01 00 46 30.0000000  0  7 05 06 10 17 22 23 30
  -2329231.11048         0.00041         0.00041         0.00041  24534233.66348
 -25469522.35949 -19846365.63047         0.00041  20259481.69547  20259476.80249
  -7085520.99948  -5521173.55846         0.00041  23042216.20546  23042209.92748
 -20305610.30449 -15822528.94446         0.00041  21498601.97746  21498596.00149
   -614759.67148   -479032.04544         0.00041  24136500.20544  24136495.69248
 -12463298.14048  -9711635.62546         0.00041  22865783.88246  22865776.15648
 -14705400.57848 -11458749.27446         0.00041  22465961.13046  22465955.00148
 97 05 01 00 47 00.0000000  0  7 05 06 10 17 22 23 30
  -2220744.28448         0.00041         0.00041         0.00041  24554878.29948
 -25478835.80549 -19853622.85247         0.00041  20257709.46747  20257704.55849
  -6993177.22748  -5449217.40446         0.00041  23059788.98246  23059782.45348
 -20348214.61449 -15855727.07846         0.00041  21490494.95946  21490488.63549
   -681038.99748   -530678.27044         0.00041  24123887.79244  24123883.32348
 -12554705.96248  -9782862.40046         0.00041  22848389.09046  22848381.79948
 -14608737.06848 -11383427.13146         0.00041  22484355.31046  22484349.45548
 97 05 01 00 47 30.0000000  0  7 05 06 10 17 22 23 30
  -2112294.17948         0.00041         0.00041         0.00041  24575516.02948
 -25487751.45349 -19860570.10347         0.00041  20256012.67047  20256007.85149
  -6900595.92448  -5377076.14846         0.00041  23077406.90946  23077400.14948
 -20390638.80849 -15888784.86246         0.00041  21482421.85446  21482415.44849
   -746920.34548   -582014.35844         0.00041  24111354.11944  24111346.43948
 -12645890.78148  -9853915.39846         0.00041  22831037.53546  22831029.84548
 -14511861.58248 -11307939.81046         0.00041  22502790.73146  22502784.20848
 97 05 01 00 48 00.0000000  0  7 05 06 10 17 22 23 30
  -2003903.18448         0.00041         0.00041         0.00041  24596142.62948
 -25496257.28349 -19867198.01547         0.00041  20254394.10847  20254389.35449
  -6807766.64048  -5304741.67346         0.00041  23095070.57246  23095064.99848
 -20432873.00749 -15921694.60146         0.00041  21474384.74246  21474378.51449
   -812394.40848   -633033.08744         0.00041  24098896.50244  24098887.07048
 -12736847.84048  -9924790.93446         0.00041  22813729.10946  22813721.19648
 -14414767.94448 -11232282.49946         0.00041  22521266.92746  22521260.59448
 97 05 01 00 48 30.0000000  0  7 05 06 10 17 22 23 30
  -1895578.72948         0.00041         0.00041         0.00041  24616756.15548
 -25504340.28849 -19873496.45547         0.00041  20252855.97247  20252851.21149
  -6714688.27348  -5232213.09246         0.00041  23112783.05946  23112777.17048
 -20474898.01149 -15954441.32646         0.00041  21466387.84546  21466381.51049
   -877449.81148   -683725.57444         0.00041  24086514.64244  24086507.23748
 -12827559.72448  -9995475.41346         0.00041  22796466.69646  22796459.27648
 -14317437.37048 -11156440.56946         0.00041  22539788.31946  22539782.04348
 97 05 01 00 49 00.0000000  0  7 05 06 10 17 22 23 30
  -1787361.12648  -1392767.34644         0.00041  24637360.88244  24637349.71348
 -25512027.97449 -19879486.85447         0.00041  20251392.99747  20251388.26549
  -6621413.41348  -5159531.39846         0.00041  23130533.69046  23130526.85648
 -20516725.64449 -15987034.26246         0.00041  21458428.31646  21458421.81349
   -942127.52948   -734123.77044         0.00041  24074205.15144  24074199.54448
 -12918046.05048 -10065984.14846         0.00041  22779248.69146  22779240.25248
 -14219912.88748 -11080447.54146         0.00041  22558347.00246  22558340.38048
 97 05 01 00 49 30.0000000  0  7 05 06 10 17 22 23 30
  -1679249.88348         0.00041         0.00041         0.00041  24657922.83348
 -25519314.01749 -19885164.28447         0.00041  20250006.50147  20250001.78549
  -6527951.20548  -5086703.72546         0.00041  23148318.98846  23148312.11948
 -20558369.18349 -16019483.74546         0.00041  21450503.54746  21450497.45349
  -1006444.54548   -784240.86644         0.00041  24061968.53444  24061960.67348
 -13008304.15648 -10136315.04246         0.00041  22762072.94346  22762064.50448
 -14122207.84348 -11004313.81646         0.00041  22576939.54046  22576933.06548
 97 05 01 00 50 00.0000000  0  7 05 06 10 17 22 23 30
  -1571217.77048         0.00041         0.00041         0.00041  24678480.85548
 -25526185.76549 -19890518.88447         0.00041  20248698.84947  20248694.07549
  -6434279.37348  -5013712.71445         0.00041  23166143.89045  23166137.24548
 -20599810.02449 -16051775.27846         0.00041  21442617.99546  21442611.47349
  -1070373.66848   -834055.73744         0.00041  24049802.82244  24049795.20648
 -13098296.30848 -10206438.70146         0.00041  22744947.71146  22744939.52048
 -14024285.40748 -10928010.70046         0.00041  22595573.44346  22595567.05548
 97 05 01 00 50 30.0000000  0  7 05 06 10 17 22 23 30
  -1463264.25848         0.00041         0.00041         0.00041  24699024.02948
 -25532654.26149 -19895559.26747         0.00041  20247467.98247  20247463.23349
  -6340424.42048  -4940579.01345         0.00041  23184004.05445  23183997.30448
 -20641068.67649 -16083924.84846         0.00041  21434766.10846  21434760.16549
  -1133935.25748   -883584.18944         0.00041  24037707.09244  24037699.68848
 -13188038.98148 -10276367.96146         0.00041  22727869.63746  22727861.93148
 -13926169.72648 -10851556.99746         0.00041  22614244.54346  22614237.92248
 97 05 01 00 51 00.0000000  0  7 05 06 10 17 22 23 30
  -1355341.51148         0.00041         0.00041         0.00041  24719561.31948
 -25538681.83849 -19900256.07447         0.00041  20246320.92247  20246316.19549
  -6246334.01848  -4867261.85045         0.00041  23201908.14045  23201902.07448
 -20682098.87849 -16115896.40346         0.00041  21426958.37246  21426952.34349
  -1197081.62748   -932789.14844         0.00041  24025691.17744  24025683.26748
 -13277489.74148 -10346069.76146         0.00041  22710847.28946  22710839.97648
 -13827822.84448 -10774923.14346         0.00041  22632959.26946  22632952.76748
 97 05 01 00 51 30.0000000  0  7 05 06 10 17 22 23 30
  -1247439.13848         0.00041         0.00041         0.00041  24740094.67048
 -25544261.66149 -19904603.98547         0.00041  20245259.06447  20245254.27849
  -6151988.81048  -4793746.12545         0.00041  23219861.35545  23219855.35748
 -20722886.75349 -16147679.13346         0.00041  21419196.72546  21419190.55449
  -1259767.59648   -981635.31344         0.00041  24013758.38844  24013754.34748
 -13366630.00948 -10415529.61646         0.00041  22693884.65846  22693877.05048
 -13729223.82648 -10698092.81946         0.00041  22651721.65946  22651715.66048
 97 05 01 00 52 00.0000000  0  7 05 06 10 17 22 23 30
  -1139558.70948         0.00041         0.00041         0.00041  24760623.75748
 -25549404.84149 -19908611.65447         0.00041  20244280.42547  20244275.66349
  -6057393.89348  -4720035.82145         0.00041  23237862.20245  23237856.23648
 -20763406.31349 -16179252.78646         0.00041  21411485.91946  21411480.04249
  -1321965.87148  -1030101.45844         0.00041  24001924.67244  24001918.37648
 -13455455.47548 -10484744.16946         0.00041  22676981.44846  22676974.09948
 -13630373.88248 -10621066.97846         0.00041  22670533.19746  22670526.25548
 97 05 01 00 52 30.0000000  0  7 05 06 10 17 22 23 30
  -1031712.94148         0.00041         0.00041         0.00041  24781146.32448
 -25554119.52149 -19912285.42747         0.00041  20243383.24547  20243378.39649
  -5962562.48748  -4646141.23445         0.00041  23255908.26445  23255902.05248
 -20803646.07849 -16210608.41446         0.00041  21403828.70046  21403822.68449
  -1383672.46948  -1078184.48345         0.00041  23990183.14245  23990176.04648
 -13543975.60148 -10553720.79646         0.00041  22660136.70046  22660129.21348
 -13531299.10248 -10543865.93946         0.00041  22689386.40046  22689379.61248
 97 05 01 00 53 00.0000000  0  7 05 06 10 17 22 23 30
   -923962.12648   -719991.52244         0.00041  24801661.77344  24801650.85248
 -25558451.96549 -19915661.35547         0.00041  20242558.82747  20242553.99049
  -5867542.41348  -4572099.63745         0.00041  23273990.65145  23273983.77748
 -20843652.03449 -16241781.85946         0.00041  21396215.80646  21396209.80149
  -1444929.02848  -1125916.85645         0.00041  23978526.04145  23978519.44048
 -13632230.36348 -10622490.64546         0.00041  22643342.12446  22643334.78148
 -13432053.91448 -10466532.11046         0.00041  22708272.23846  22708265.42448
 97 05 01 00 53 30.0000000  0  7 05 06 10 17 22 23 30
   -816321.78148         0.00041         0.00041         0.00041  24822134.32048
 -25562397.96049 -19918736.15347         0.00041  20241807.71847  20241803.05349
  -5772350.30248  -4497923.98945         0.00041  23292104.39045  23292098.19148
 -20883450.25349 -16272793.42946         0.00041  21388642.64446  21388636.36149
  -1505744.00448  -1173305.10844         0.00041  23966952.00644  23966946.63848
 -13720229.19748 -10691061.07346         0.00041  22626596.48646  22626589.07548
 -13332663.94148 -10389085.46646         0.00041  22727185.33646  22727178.80648
 97 05 01 00 54 00.0000000  0  7 05 06 10 17 22 23 30
   -708745.04248         0.00041         0.00041         0.00041  24842605.98048
 -25565907.87349 -19921471.14747         0.00041  20241139.92147  20241135.13749
  -5676955.58848  -4423590.47345         0.00041  23310258.82245  23310251.33948
 -20923019.15549 -16303626.31546         0.00041  21381112.99946  21381106.57949
  -1566112.14448  -1220345.18044         0.00041  23955465.78344  23955458.69448
 -13807943.62448 -10759409.88346         0.00041  22609904.45246  22609897.45248
 -13233101.16848 -10311504.17046         0.00041  22746132.35846  22746125.01148
 97 05 01 00 54 30.0000000  0  7 05 06 10 17 22 23 30
   -601234.08148         0.00041         0.00041         0.00041  24863064.73348
 -25568977.00749 -19923862.67847         0.00041  20240555.97947  20240551.14149
  -5581360.87548  -4349101.11145         0.00041  23328449.48245  23328442.44248
 -20962389.88549 -16334304.77646         0.00041  21373620.77146  21373614.67249
  -1626054.71848  -1267053.66345         0.00041  23944059.65945  23944052.11848
 -13895364.44848 -10827529.90946         0.00041  22593269.18846  22593261.88948
 -13133359.95948 -10233783.84046         0.00041  22765112.40046  22765105.25648
 97 05 01 00 55 00.0000000  0  7 05 06 10 17 22 23 30
   -493764.18748   -384773.66741         0.00041         0.00041  24883515.80948
 -25571584.01049 -19925894.10547         0.00041  20240059.69647  20240054.96149
  -5485545.75648  -4274440.00545         0.00041  23346681.50045  23346675.47848
 -21001568.30649 -16364833.38946         0.00041  21366165.39646  21366159.12249
  -1685578.73948  -1313435.97845         0.00041  23932730.55745  23932725.06048
 -13982468.15548 -10895402.82946         0.00041  22576693.95646  22576686.43548
 -13033412.35048 -10155902.68146         0.00041  22784131.45046  22784124.77648
 97 05 01 00 55 30.0000000  0  7 05 06 10 17 22 23 30
   -386332.50648         0.00041         0.00041         0.00041  24903959.71648
 -25573739.31149 -19927573.55847         0.00041  20239649.74947  20239644.96649
  -5389511.47748  -4199608.12645         0.00041  23364956.16045  23364950.19948
 -21040562.16449 -16395218.18746         0.00041  21358745.35746  21358739.04249
  -1744693.27348  -1359499.22345         0.00041  23921482.38445  23921476.02948
 -14069259.96448 -10963032.72146         0.00041  22560177.79946  22560170.39848
 -12933236.67348 -10077843.81346         0.00041  22803194.14246  22803187.55948
 97 05 01 00 56 00.0000000  0  7 05 06 10 17 22 23 30
   -278945.39248         0.00041         0.00041         0.00041  24924395.16248
 -25575456.90149 -19928911.93747         0.00041  20239322.73247  20239318.05149
  -5293266.94348  -4124612.40245         0.00041  23383271.15445  23383265.03448
 -21079366.36949 -16425455.20446         0.00041  21351360.88546  21351354.61849
  -1803400.95648  -1405245.45145         0.00041  23910312.69645  23910304.25648
 -14155738.93548 -11030418.84746         0.00041  22543721.43846  22543713.88348
 -12832815.71548  -9999593.81646         0.00041  22822303.71946  22822297.10848
 97 05 01 00 56 30.0000000  0  7 05 06 10 17 22 23 30
   -171641.01048         0.00041         0.00041         0.00041  24944814.83848
 -25576762.01249 -19929928.90447         0.00041  20239074.48647  20239069.71749
  -5196830.47148  -4049467.12445         0.00041  23401622.83245  23401616.26248
 -21117985.27449 -16455547.83046         0.00041  21344011.85346  21344005.64349
  -1861705.41148  -1450677.45645         0.00041  23899216.47445  23899209.28648
 -14241927.23948 -11097578.47046         0.00041  22527320.44246  22527312.87148
 -12732174.95448  -9921172.53846         0.00041  22841455.57546  22841448.45548
 97 05 01 00 57 00.0000000  0  7 05 06 10 17 22 23 30
    -64421.27948         0.00041         0.00041         0.00041  24965218.37148
 -25577639.54449 -19930612.69447         0.00041  20238907.43847  20238902.72949
  -5100198.38648  -3974169.43345         0.00041  23420011.77945  23420004.81248
 -21156382.78749 -16485467.94246         0.00041  21336704.93046  21336698.87449
  -1919579.48648  -1495774.12545         0.00041  23888202.70845  23888196.15948
 -14327828.11248 -11164514.12946         0.00041  22510973.47646  22510966.41048
 -12631320.66548  -9842584.88246         0.00041  22860647.62846  22860640.53748
 97 05 01 00 57 30.0000000  0  7 05 06 10 17 22 23 30
     42684.62848         0.00041         0.00041         0.00041  24985600.33848
 -25578105.46849 -19930975.75047         0.00041  20238818.75347  20238814.07849
  -5003401.83548  -3898743.55845         0.00041  23438431.25045  23438424.60048
 -21194554.87749 -16515212.40046         0.00041  21329441.04346  21329434.95749
  -1977007.32748  -1540523.06545         0.00041  23877273.81645  23877267.73748
 -14413459.51948 -11231239.81646         0.00041  22494678.80146  22494671.18948
 -12530273.95348  -9763847.28846         0.00041  22879876.33846  22879869.10448
 97 05 01 00 58 00.0000000  0  7 05 06 10 17 22 23 30
    149640.36648         0.00041         0.00041         0.00041  25005953.37048
 -25578182.23849 -19931035.57047         0.00041  20238804.15547  20238799.49649
  -4906477.55648  -3823218.17045         0.00041  23456874.47845  23456868.65048
 -21232523.79049 -16544798.54046         0.00041  21322215.67146  21322209.66049
  -2034000.87448  -1584933.60245         0.00041  23866427.48045  23866422.08248
 -14498851.43848 -11297778.88746         0.00041  22478428.74046  22478421.65148
 -12429094.67448  -9685006.38446         0.00041  22899129.74746  22899122.89748
 97 05 01 00 58 30.0000000  0  7 05 06 10 17 22 23 30
    256483.36548         0.00041         0.00041         0.00041  25026285.46148
 -25577839.93449 -19930768.83947         0.00041  20238869.31147  20238864.63149
  -4809388.46148  -3747564.36345         0.00041  23475351.39745  23475344.00948
 -21270260.24049 -16574203.53846         0.00041  21315034.52846  21315028.60649
  -2090521.67148  -1628975.74945         0.00041  23855673.86145  23855666.71848
 -14583969.38348 -11364104.47846         0.00041  22462231.87646  22462224.18648
 -12327762.47548  -9606046.33546         0.00041  22918413.30346  22918405.83948
 97 05 01 00 59 00.0000000  0  7 05 06 10 17 22 23 30
    363247.45848         0.00041         0.00041         0.00041  25046602.05048
 -25577058.32849 -19930159.79447         0.00041  20239018.16247  20239013.38149
  -4712109.53948  -3671762.63045         0.00041  23493861.97645  23493855.66848
 -21307769.57549 -16603431.56346         0.00041  21307897.00846  21307890.92049
  -2146547.43348  -1672632.17245         0.00041  23845012.57845  23845005.46748
 -14668782.20848 -11430192.31146         0.00041  22446091.98746  22446084.70048
 -12226250.53048  -9526946.22746         0.00041  22937730.07046  22937723.01048
 97 05 01 00 59 30.0000000  0  7 05 06 10 17 22 23 30
    469925.86948         0.00041         0.00041         0.00041  25066902.51448
 -25575848.98949 -19929217.45047         0.00041  20239248.33647  20239243.46349
  -4614633.51648  -3595807.30945         0.00041  23512410.72545  23512404.66248
 -21345087.06049 -16632510.09546         0.00041  21300795.54346  21300789.62049
  -2202097.42648  -1715917.85845         0.00041  23834441.96845  23834434.57848
 -14753282.33548 -11496036.48646         0.00041  22430012.16846  22430004.93948
 -12124565.05348  -9447710.89446         0.00041  22957080.14246  22957073.17548
 97 05 01 01 00 00.0000000  0  7 05 06 10 17 22 23 30
    576517.49048         0.00041         0.00041         0.00041  25087186.44348
 -25574197.48049 -19927930.56147         0.00041  20239562.47247  20239557.63249
  -4516942.39248  -3519684.37145         0.00041  23531001.30945  23530994.63648
 -21382227.36149 -16661450.56146         0.00041  21293727.99446  21293721.94249
  -2257189.83448  -1758846.99245         0.00041  23823955.72645  23823950.84348
 -14837465.06148 -11561633.33646         0.00041  22413992.29046  22413985.34548
 -12022717.10848  -9368348.97546         0.00041  22976461.90546  22976454.25448
 97 05 01 01 00 30.0000000  0  7 05 06 10 17 22 23 30
    683019.89748         0.00041         0.00041         0.00041  25107453.61348
 -25572099.48249 -19926295.75847         0.00041  20239961.68547  20239956.92549
  -4419037.78348  -3443395.11245         0.00041  23549631.31145  23549625.33848
 -21419195.18749 -16690256.63446         0.00041  21286693.28246  21286687.28149
  -2311844.53748  -1801435.05345         0.00041  23813557.56745  23813550.63248
 -14921325.25748 -11626978.87246         0.00041  22398034.47446  22398027.26948
 -11920713.24948  -9288865.55746         0.00041  22995872.36246  22995865.02348
 97 05 01 01 01 00.0000000  0  6 05 06 10 17 23 30
    789405.66148         0.00041         0.00041         0.00041  25127698.24648
 -25569560.09149 -19924317.01347         0.00041  20240444.99447  20240440.15149
  -4320950.34148  -3366963.35845         0.00041  23568297.67245  23568290.65248
 -21456003.39449 -16718938.33246         0.00041  21279688.72446  21279682.89649
 -15004867.27448 -11692076.47246         0.00041  22382136.81346  22382129.72048
 -11818591.11648  -9209289.98746         0.00041  23015305.86246  23015298.46848
 97 05 01 01 01 30.0000000  0  6 05 06 10 17 23 30
    895652.82448         0.00041         0.00041         0.00041  25147916.62848
 -25566589.76549 -19922002.47647         0.00041  20241010.16047  20241005.34249
  -4222721.00548  -3290421.05945         0.00041  23586989.92145  23586983.16648
 -21492634.20249 -16747481.79646         0.00041  21272718.15346  21272712.18949
 -15088112.11248 -11756942.50646         0.00041  22366295.78446  22366288.71248
 -11716382.65948  -9129647.14546         0.00041  23034755.18346  23034748.22548
 97 05 01 01 02 00.0000000  0  7 05 06 10 17 21 23 30
   1001778.26448    780579.16141         0.00041         0.00041  25168111.71348
 -25563182.01449 -19919347.08747         0.00041  20241658.56847  20241653.81149
  -4124367.19348  -3213781.75245         0.00041  23605706.80845  23605699.24548
 -21529061.08649 -16775866.35946         0.00041  21265786.00446  21265780.33849
         0.05558         0.00051         0.00051         0.00051  25554046.00058
 -15171068.03648 -11821583.41446         0.00041  22350509.81646  22350502.65948
 -11614079.75148  -9049930.71846         0.00041  23054222.54546  23054215.84348
 97 05 01 01 02 30.0000000  0  7 05 06 10 17 21 23 30
   1107825.95648    863213.41941         0.00041         0.00041  25188292.51048
 -25559324.55549 -19916341.27747         0.00041  20242392.66947  20242387.96649
  -4025874.97148  -3137034.60545         0.00041  23624448.86445  23624441.81548
 -21565242.66649 -16804059.77846         0.00041  21258901.14546  21258895.25349
   -100497.79348         0.00041         0.00041         0.00041  25534921.52748
 -15253699.54548 -11885971.52946         0.00041  22334785.17546  22334778.29248
 -11511645.74548  -8970112.12746         0.00041  23073715.57546  23073708.45648
 97 05 01 01 03 00.0000000  0  7 05 06 10 17 21 23 30
   1213792.65748         0.00041         0.00041         0.00041  25208457.30448
 -25555020.25649 -19912987.28147         0.00041  20243211.77947  20243207.08349
  -3927250.51248  -3060184.41845         0.00041  23643215.84245  23643209.28348
 -21601182.02049 -16832064.45046         0.00041  21252062.14946  21252056.10949
   -200938.18448         0.00041         0.00041         0.00041  25515808.04348
 -15336012.52248 -11950111.44446         0.00041  22319121.63346  22319114.54948
 -11409069.69648  -8890182.86246         0.00041  23093235.11146  23093228.08648
 97 05 01 01 03 30.0000000  0  7 05 06 10 17 21 23 30
   1319690.24648         0.00041         0.00041         0.00041  25228609.22648
 -25550250.30549 -19909270.44047         0.00041  20244119.40347  20244114.73449
  -3828474.02048  -2983215.75445         0.00041  23662012.85945  23662005.99648
 -21636880.51449 -16859881.44346         0.00041  21245268.99746  21245262.91849
   -301301.60148         0.00041         0.00041         0.00041  25496709.43148
 -15418012.81248 -12014007.70546         0.00041  22303517.44446  22303510.44648
 -11306324.44548  -8810121.76046         0.00041  23112786.71946  23112779.98348
 97 05 01 01 04 00.0000000  0  7 05 06 10 17 21 23 30
   1425516.59048         0.00041         0.00041         0.00041  25248747.52848
 -25545005.77849 -19905183.79847         0.00041  20245117.45247  20245112.76849
  -3729522.36948  -2906110.60445         0.00041  23680843.55845  23680835.80148
 -21672355.63049 -16887524.37446         0.00041  21238518.11346  21238512.13549
   -401597.04048         0.00041         0.00041         0.00041  25477623.44948
 -15499684.53448 -12077647.94246         0.00041  22287975.95746  22287968.73348
 -11203399.00548  -8729920.24246         0.00041  23132373.18346  23132366.07948
 97 05 01 01 04 30.0000000  0  7 05 06 10 17 21 23 30
   1531222.00948         0.00041         0.00041         0.00041  25268862.65148
 -25539313.29249 -19900748.09547         0.00041  20246200.43947  20246195.91349
  -3630421.15848  -2828888.91145         0.00041  23699701.36445  23699694.12548
 -21707651.48149 -16915027.61646         0.00041  21231801.67246  21231795.63449
   -501848.58448         0.00041         0.00041         0.00041  25458545.73248
 -15581052.12648 -12141051.19346         0.00041  22272491.74146  22272484.94748
 -11100331.61048  -8649608.10846         0.00041  23151985.53646  23151979.14948
 97 05 01 01 05 00.0000000  0  7 05 06 10 17 21 23 30
   1636753.39348         0.00041         0.00041         0.00041  25288944.79448
 -25533192.91949 -19895978.97647         0.00041  20247365.44247  20247360.53849
  -3531199.33648  -2751573.24445         0.00041  23718583.96445  23718575.52548
 -21742799.91949 -16942415.99346         0.00041  21225113.23346  21225107.17449
   -602074.34948         0.00041         0.00041         0.00041  25439473.11448
 -15662149.30348 -12204243.73346         0.00041  22257059.66446  22257052.66348
 -10997149.65548  -8569206.72346         0.00041  23171621.40746  23171614.25448
 97 05 01 01 05 30.0000000  0  7 05 06 10 17 21 23 30
   1742213.87248         0.00041         0.00041         0.00041  25309013.68448
 -25526534.31149 -19890790.45047         0.00041  20248632.37047  20248627.70949
  -3431744.09448  -2674075.69245         0.00041  23737507.75645  23737501.09048
 -21777677.49649 -16969593.30846         0.00041  21218475.96146  21218469.99949
   -702135.20548         0.00041         0.00041         0.00041  25420431.47648
 -15742853.48648 -12267130.04946         0.00041  22241702.04246  22241695.17148
 -10893734.95148  -8488623.96546         0.00041  23191300.98346  23191293.56848
 97 05 01 01 06 00.0000000  0  7 05 06 10 17 21 23 30
   1847527.49048         0.00041         0.00041         0.00041  25329054.44848
 -25519431.12249 -19885255.49847         0.00041  20249984.06847  20249979.33549
  -3332138.07248  -2596460.63545         0.00041  23756461.95345  23756455.69348
 -21812342.87949 -16996605.27746         0.00041  21211879.46646  21211873.43449
   -802098.37648         0.00041         0.00041         0.00041  25401408.98748
 -15823223.79348 -12329756.19646         0.00041  22226407.94646  22226401.10048
 -10790157.93348  -8407914.72746         0.00041  23211010.49046  23211003.73948
 97 05 01 01 06 30.0000000  0  7 05 06 10 17 21 23 30
   1952670.40748         0.00041         0.00041         0.00041  25349062.75048
 -25511915.40349 -19879399.09647         0.00041  20251414.28247  20251409.49649
  -3232411.40948  -2518751.57845         0.00041  23775438.94445  23775433.03648
 -21846807.48649 -17023460.79846         0.00041  21205321.02046  21205315.01049
   -901980.91148         0.00041         0.00041         0.00041  25382401.82748
 -15903282.74548 -12392139.73146         0.00041  22211173.24446  22211166.41448
 -10686440.69748  -8327096.24245         0.00041  23230747.75045  23230740.54548
 97 05 01 01 07 00.0000000  0  7 05 06 10 17 21 23 30
   2057661.27748         0.00041         0.00041         0.00041  25369042.07748
 -25503971.52049 -19873209.05847         0.00041  20252926.04647  20252921.22949
  -3132544.12248  -2440932.94445         0.00041  23794445.47145  23794437.28048
 -21881048.47649 -17050142.07046         0.00041  21198805.14046  21198799.21949
  -1001769.14048         0.00041         0.00041         0.00041  25363412.38448
 -15983009.72548 -12454264.59246         0.00041  22196001.52146  22195994.88748
 -10582581.64048  -8246167.24945         0.00041  23250512.06545  23250504.42048
 97 05 01 01 07 30.0000000  0  7 05 06 10 17 21 23 30
   2162507.28348         0.00041         0.00041         0.00041  25388993.80648
 -25495595.71649 -19866682.45747         0.00041  20254519.85347  20254515.10749
  -3032533.67048  -2363002.76544         0.00041  23813473.05944  23813468.70148
 -21915076.76049 -17076657.59746         0.00041  21192329.74046  21192323.85849
  -1101466.14848         0.00041         0.00041         0.00041  25344440.62248
 -16062403.37948 -12516129.71446         0.00041  22180893.46246  22180886.64748
 -10478598.79148  -8165141.79646         0.00041  23270299.49446  23270291.83848
 97 05 01 01 08 00.0000000  0  7 05 06 10 17 21 23 30
   2267182.26548         0.00041         0.00041         0.00041  25408913.31748
 -25486811.42049 -19859837.55247         0.00041  20256191.42647  20256186.72149
  -2932406.47948  -2284981.63445         0.00041  23832528.95145  23832522.27448
 -21948930.42349 -17103037.05446         0.00041  21185887.45946  21185881.61549
  -1201136.59248         0.00041         0.00041         0.00041  25325473.68048
 -16141496.71948 -12577760.83046         0.00041  22165842.01746  22165835.54948
 -10374550.39348  -8084065.26545         0.00041  23290099.13445  23290091.66148
 97 05 01 01 08 30.0000000  0  7 05 06 10 17 21 23 30
   2371682.49148         0.00041         0.00041         0.00041  25428798.94848
 -25477595.17549 -19852656.06347         0.00041  20257945.15747  20257940.47949
  -2832150.26448  -2206859.94644         0.00041  23851609.20844  23851600.52148
 -21982605.70149 -17129277.51347         0.00041  21179479.36547  21179473.40149
  -1300777.25248  -1013586.79944         0.00041  25306523.79844  25306512.38048
 -16220286.41848 -12639155.34546         0.00041  22150849.06646  22150842.33248
 -10270451.22848  -8002949.18345         0.00041  23309909.18345  23309900.99248
 97 05 01 01 09 00.0000000  0  7 05 06 10 17 21 23 30
   2476016.88248   1929333.13244         0.00041  25448658.53144  25448653.19248
 -25467924.64549 -19845120.58647         0.00041  20259785.54247  20259780.80049
  -2731769.43448  -2128641.13144         0.00041  23870708.56244  23870702.21848
 -22016101.23149 -17155377.90447         0.00041  21173105.38647  21173099.54349
  -1400380.48548         0.00041         0.00041         0.00041  25287558.32148
 -16298771.59348 -12700312.56746         0.00041  22135913.86446  22135906.98648
 -10166292.08748  -7921786.36145         0.00041  23329729.57145  23329721.88348
 97 05 01 01 09 30.0000000  0  7 05 06 10 17 21 23 30
   2580212.78748         0.00041         0.00041         0.00041  25468481.33348
 -25457775.62049 -19837212.25647         0.00041  20261716.81147  20261712.14949
  -2631265.77448  -2050326.63944         0.00041  23889834.98044  23889827.63548
 -22049398.44049 -17181323.76147         0.00041  21166769.08347  21166763.14949
  -1499939.10048         0.00041         0.00041         0.00041  25268612.55248
 -16376932.46648 -12761217.08846         0.00041  22121040.23246  22121033.48948
 -10062039.20248  -7840550.49845         0.00041  23349568.35345  23349560.70148
 97 05 01 01 10 00.0000000  0  7 05 06 10 17 21 23 30
   2684300.24447         0.00041         0.00041         0.00041  25488288.95647
 -25447130.56749 -19828917.41147         0.00041  20263742.48547  20263737.72449
  -2530638.90548  -1971916.11744         0.00041  23908980.34944  23908976.34048
 -22082463.71549 -17207088.89147         0.00041  21160476.89047  21160470.95049
  -1599434.79848         0.00041         0.00041         0.00041  25249678.63748
 -16454749.59748 -12821853.75446         0.00041  22106232.10646  22106225.30948
  -9957671.00248  -7759224.78745         0.00041  23369429.03045  23369421.55248
 97 05 01 01 10 30.0000000  0  7 05 06 10 17 21 23 30
   2788240.95847         0.00041         0.00041         0.00041  25508068.57947
 -25436036.46349 -19820272.65647         0.00041  20265853.55747  20265848.77249
  -2429959.05948  -1893464.32044         0.00041  23928139.48344  23928135.05248
 -22115359.48349 -17232721.93747         0.00041  21154217.19447  21154211.17249
  -1698898.04648  -1323809.30944         0.00041  25230762.22844  25230751.05848
 -16532264.70648 -12882255.08746         0.00041  22091481.46546  22091474.72548
  -9853237.71448  -7677848.35945         0.00041  23389302.38345  23389294.85548
 97 05 01 01 11 00.0000000  0  7 05 06 10 17 21 23 30
   2892110.31747         0.00041         0.00041         0.00041  25527834.45247
 -25424435.49849 -19811232.94947         0.00041  20268061.25647  20268056.43549
  -2329167.83748  -1814925.75944         0.00041  23947321.68544  23947315.11448
 -22148036.85949 -17258184.80847         0.00041  21147998.85347  21147992.93349
  -1798262.06848         0.00041         0.00041         0.00041  25211842.63948
 -16609407.98849 -12942366.67946         0.00041  22076801.38046  22076794.78049
  -9748685.91648  -7596379.57245         0.00041  23409197.37945  23409190.49148
 97 05 01 01 11 30.0000000  0  7 05 06 10 17 21 23 30
   2995900.12547         0.00041         0.00041         0.00041  25547585.12447
 -25412343.08449 -19801810.29347         0.00041  20270362.25647  20270357.51049
  -2228258.30248  -1736294.97444         0.00041  23966525.04144  23966517.49248
 -22180499.44649 -17283480.31147         0.00041  21141821.32247  21141815.47149
  -1897520.48248         0.00041         0.00041         0.00041  25192954.10848
 -16686170.18749 -13002181.32446         0.00041  22062194.35846  22062187.33849
  -9644041.59348  -7514838.70145         0.00041  23429110.99045  23429103.76448
 97 05 01 01 12 00.0000000  0  7 05 06 10 17 21 23 30
   3099592.67147         0.00041         0.00041         0.00041  25567316.10847
 -25399762.40449 -19792007.17047         0.00041  20272756.39947  20272751.59849
  -2127213.28048  -1657558.65244         0.00041  23985753.26044  23985745.76448
 -22212749.70649 -17308610.36647         0.00041  21135684.08847  21135678.42349
  -1996653.21948         0.00041         0.00041         0.00041  25174089.50348
 -16762545.74149 -13061694.69246         0.00041  22047660.28846  22047653.56449
  -9539313.67848  -7433232.68845         0.00041  23449041.32945  23449032.89048
 97 05 01 01 12 30.0000000  0  6 06 10 17 21 23 30
 -25386711.71549 -19781837.80647         0.00041  20275239.68447  20275235.08049
  -2026019.41048  -1578706.29644         0.00041  24005009.61444  24005002.33048
 -22244803.67149 -17333587.46247         0.00041  21129584.65647  21129578.79949
  -2095657.10448         0.00041         0.00041         0.00041  25155249.34848
 -16838539.63749 -13120910.66346         0.00041  22033199.00146  22033192.30049
  -9434502.96348  -7351562.18145         0.00041  23468986.31045  23468977.87148
 97 05 01 01 13 00.0000000  0  6 06 10 17 21 23 30
 -25373191.23449 -19771302.37347         0.00041  20277812.68347  20277807.92049
  -1924647.91248  -1499715.54744         0.00041  24024297.57344  24024292.60948
 -22276620.75949 -17358379.97547         0.00041  21123529.89547  21123524.13549
  -2194515.13748         0.00041         0.00041         0.00041  25136437.05948
 -16914150.83849 -13179828.43146         0.00041  22018810.72746  22018803.94449
  -9329571.72048  -7269797.74445         0.00041  23488954.28145  23488945.59448
 97 05 01 01 13 30.0000000  0  6 06 10 17 21 23 30
 -25359224.71349 -19760419.37447         0.00041  20280470.46847  20280465.67349
  -1823131.07748  -1420611.54844         0.00041  24043617.14544  24043610.55948
 -22308211.01649 -17382995.74247         0.00041  21117518.47447  21117512.66349
  -2293243.05248         0.00041         0.00041         0.00041  25117649.56948
 -16989413.43849 -13238474.56346         0.00041  22004488.68546  22004481.86849
  -9224521.98248  -7187940.97545         0.00041  23508945.13145  23508935.94748
 97 05 01 01 14 00.0000000  0  6 06 10 17 21 23 30
 -25344842.07549 -19749212.13047         0.00041  20283207.34047  20283202.54649
  -1721498.54048  -1341417.39044         0.00041  24062958.01644  24062950.63348
 -22339602.14649 -17407456.34247         0.00041  21111544.90747  21111539.20549
  -2391880.23248         0.00041         0.00041         0.00041  25098879.32348
 -17064361.39749 -13296875.52246         0.00041  21990226.31246  21990219.69949
  -9119376.04048  -7106009.24145         0.00041  23528954.19645  23528944.76448
 97 05 01 01 14 30.0000000  0  7 06 10 17 21 23 26 30
 -25330033.89349 -19737673.29547         0.00041  20286025.28147  20286020.53249
  -1619754.35848  -1262136.24444         0.00041  24082317.18144  24082311.73448
 -22370782.04149 -17431752.34147         0.00041  21105611.65347  21105605.82249
  -2490428.39648  -1940583.55144         0.00041  25080136.75344  25080126.08048
 -17138985.32049 -13355023.98546         0.00041  21976026.00446  21976019.29649
        -0.49758         0.67756         0.00051  22561031.27256  22561026.41358
  -9014127.09248  -7023997.24945         0.00041  23548980.71145  23548973.00948
 97 05 01 01 15 00.0000000  0  7 06 10 17 21 23 26 30
 -25314828.10149 -19725824.63147         0.00041  20288918.87447  20288914.15349
  -1517959.11448  -1182815.31544         0.00041  24101688.60144  24101682.76548
 -22401799.11949 -17455921.47247         0.00041  21099709.17447  21099703.29849
  -2588935.32148         0.00041         0.00041         0.00041  25061380.43448
 -17213325.35749 -13412951.23646         0.00041  21961879.78746  21961872.72049
    -40756.00848    -31756.82646         0.00041  22553276.00246  22553270.82248
  -8908834.93548  -6941951.59145         0.00041  23569017.17345  23569009.69648
 97 05 01 01 15 30.0000000  0  7 06 10 17 21 23 26 30
 -25299200.79649 -19713647.51647         0.00041  20291892.58047  20291887.84649
  -1416110.88848  -1103453.08444         0.00041  24121070.87744  24121063.95948
 -22432658.16049 -17479967.45747         0.00041  21093837.04447  21093831.11149
  -2687407.12748         0.00041         0.00041         0.00041  25042641.60448
 -17287362.43549 -13470642.41746         0.00041  21947790.73346  21947783.88049
    -81059.87048    -63162.39046         0.00041  22545606.91446  22545601.53148
  -8803513.63148  -6859883.22545         0.00041  23589060.05045  23589051.85948
 97 05 01 01 16 00.0000000  0  7 06 10 17 21 23 26 30
 -25283105.40649 -19701105.65947         0.00041  20294955.49647  20294950.74049
  -1314176.43248  -1024023.69044         0.00041  24140471.05044  24140461.36948
 -22463333.57749 -17503870.35847         0.00041  21087999.70747  21087993.74349
  -2785817.49548         0.00041         0.00041         0.00041  25023914.43648
 -17361050.42449 -13528061.58346         0.00041  21933768.31546  21933761.51449
   -120873.95048    -94186.30646         0.00041  22538030.06046  22538025.07848
  -8698143.52748  -6777776.83745         0.00041  23609112.05445  23609103.36648
 97 05 01 01 16 30.0000000  0  7 06 10 17 21 23 26 30
 -25266555.63949 -19688209.74447         0.00041  20298104.90347  20298100.02749
  -1212193.70948   -944556.64544         0.00041  24159873.05944  24159868.21048
 -22493852.37449 -17527651.21847         0.00041  21082192.05447  21082186.19849
  -2884179.99048         0.00041         0.00041         0.00041  25005196.51548
 -17434423.39549 -13585235.28546         0.00041  21919805.71946  21919799.09149
   -160216.17048   -124842.54346         0.00041  22530543.77346  22530538.40348
  -8592754.51248  -6695655.70445         0.00041  23629166.81445  23629158.37548
 97 05 01 01 17 00.0000000  0  7 06 10 17 21 23 26 30
 -25249519.22949 -19674934.62447         0.00041  20301346.67547  20301341.92749
  -1110120.95148   -865019.47444         0.00041  24179300.49144  24179291.80348
 -22524176.20049 -17551280.15247         0.00041  21076421.51547  21076415.65949
  -2982456.65748         0.00041         0.00041         0.00041  24986494.96548
 -17507448.86549 -13642138.20346         0.00041  21905909.31546  21905902.77149
   -199062.92448   -155112.69846         0.00041  22523151.40846  22523146.25548
  -8487318.61248  -6613498.04245         0.00041  23649230.82345  23649222.13548
 97 05 01 01 17 30.0000000  0  7 06 10 17 21 23 26 30
 -25232004.08149 -19661286.46247         0.00041  20304679.59447  20304674.85149
  -1007971.98648   -785422.91544         0.00041  24198733.56544  24198730.09348
 -22554309.30049 -17574760.47247         0.00041  21070687.36447  21070681.43349
  -3080642.83948         0.00041         0.00041         0.00041  24967810.62548
 -17580131.98549 -13698774.35346         0.00041  21892078.36746  21892071.58549
   -237443.10348   -185019.29046         0.00041  22515847.47446  22515842.47548
  -8381827.31248  -6531297.23945         0.00041  23669305.72445  23669296.54048
 97 05 01 01 18 00.0000000  0  7 06 10 17 21 23 26 30
 -25214016.82249 -19647270.42347         0.00041  20308102.64247  20308097.83349
   -905753.74348   -705772.35344         0.00041  24218189.13744  24218181.65948
 -22584248.89349 -17598090.00847         0.00041  21064989.95347  21064984.28649
  -3178714.44248  -2476908.35944         0.00041  24949159.53744  24949147.87148
 -17652461.78149 -13755135.18946         0.00041  21878314.03346  21878307.61749
   -275376.91748   -214578.06746         0.00041  22508629.22646  22508623.98748
  -8276275.27148  -6449049.10545         0.00041  23689390.58045  23689382.38948
 97 05 01 01 18 30.0000000  0  7 06 10 17 21 23 26 30
 -25195547.31449 -19632878.60447         0.00041  20311617.13947  20311612.44849
   -803440.54848   -626047.82144         0.00041  24237659.66344  24237651.22448
 -22613961.24449 -17621242.47147         0.00041  21059336.08547  21059330.22249
  -3276631.21448         0.00041         0.00041         0.00041  24930514.74548
 -17724407.95949 -13811197.10046         0.00041  21864623.45446  21864616.69049
   -312846.07648   -243774.78246         0.00041  22501498.29446  22501493.64048
  -8170633.30848  -6366730.87445         0.00041  23709495.18745  23709485.50648
 97 05 01 01 19 00.0000000  0  7 06 10 17 21 23 26 30
 -25176599.01349 -19618113.69947         0.00041  20315223.07547  20315218.21649
   -701033.77348   -546250.38744         0.00041  24257146.57944  24257138.85148
 -22643452.86049 -17644222.93247         0.00041  21053723.72347  21053718.02549
  -3374390.35048         0.00041         0.00041         0.00041  24911911.79048
 -17795945.24649 -13866940.39446         0.00041  21851010.02346  21851003.51149
   -349841.77948   -272602.55946         0.00041  22494459.11046  22494453.79148
  -8064898.26948  -6284340.14945         0.00041  23729615.46945  23729606.53448
 97 05 01 01 19 30.0000000  0  7 06 10 17 21 23 26 30
 -25157199.84449 -19602997.47047         0.00041  20318914.47947  20318909.69949
   -598573.69748   -466411.37944         0.00041  24276645.73744  24276636.30548
 -22672758.32949 -17667058.34347         0.00041  21048147.13347  21048141.47049
  -3472027.04648         0.00041         0.00041         0.00041  24893331.94148
 -17867104.14249 -13922388.84346         0.00041  21837469.17046  21837462.37449
   -386379.11548   -301073.17346         0.00041  22487505.64346  22487501.00548
  -7959106.07448  -6201904.88045         0.00041  23749747.98345  23749738.30248
 97 05 01 01 20 00.0000000  0  7 06 10 17 21 23 26 30
 -25137306.94349 -19587496.51547         0.00041  20322700.06747  20322695.31649
   -496005.73448   -386488.33544         0.00041  24296162.00044  24296154.25748
 -22701842.22949 -17689721.10547         0.00041  21042612.55847  21042606.97049
  -3569517.26648  -2781429.04744         0.00041  24874791.76744  24874780.10148
 -17937851.09749 -13977516.29446         0.00041  21824006.32546  21823999.72349
   -422396.62948   -329138.73846         0.00041  22480652.05246  22480647.09948
  -7853263.42248  -6119430.29945         0.00041  23769888.75345  23769879.81748
 97 05 01 01 20 30.0000000  0  7 06 10 17 21 23 26 30
 -25116925.96549 -19571615.24147         0.00041  20326578.43847  20326573.68649
   -393348.26648   -306495.54144         0.00041  24315699.53944  24315689.36248
 -22730727.88349 -17712229.38947         0.00041  21037115.85147  21037110.20749
  -3666901.60448         0.00041         0.00041         0.00041  24856248.44448
 -18008223.47949 -14032351.87446         0.00041  21810614.90846  21810608.23549
   -457900.20148   -356803.82346         0.00041  22473895.98946  22473890.82548
  -7747408.75948  -6036946.36145         0.00041  23790033.63745  23790023.46048
 97 05 01 01 21 00.0000000  0  7 06 10 17 21 23 26 30
 -25096045.77349 -19555344.97147         0.00041  20330551.73247  20330547.02749
   -290607.86748   -226438.12244         0.00041  24335250.18844  24335240.25948
 -22759424.20949 -17734590.14547         0.00041  21031655.04047  21031649.31249
  -3764203.73648  -2933132.32944         0.00041  24837743.49444  24837732.32448
 -18078241.21549 -14086911.10446         0.00041  21797290.99346  21797284.30749
   -492893.11348   -384070.96346         0.00041  22467236.83046  22467231.80748
  -7641565.56748  -5954471.37645         0.00041  23810173.71045  23810165.02248
 97 05 01 01 21 30.0000000  0  7 06 10 17 21 23 26 30
 -25074669.55249 -19538688.18347         0.00041  20334619.61347  20334614.79749
   -187788.75248   -146319.34144         0.00041  24354812.60044  24354806.23948
 -22787937.57449 -17756808.33347         0.00041  21026229.12547  21026223.27349
  -3861434.80248         0.00041         0.00041         0.00041  24819229.80248
 -18147947.23849 -14141227.44246         0.00041  21784026.25546  21784019.68549
   -527390.81048   -410952.25046         0.00041  22460672.95046  22460667.08248
  -7535757.17448  -5872023.48445         0.00041  23830310.10745  23830299.68248
 97 05 01 01 22 00.0000000  0  7 06 10 17 21 23 26 30
 -25052764.95449 -19521619.67647         0.00041  20338787.75147  20338783.05649
    -84860.37848    -66115.48144         0.00041  24374398.09844  24374392.86248
 -22816242.61949 -17778864.19547         0.00041  21020842.74947  21020837.09349
  -3958543.31048  -3084565.32244         0.00041  24800759.42644  24800750.49048
 -18217314.55849 -14195279.85846         0.00041  21770826.19446  21770819.51949
   -561364.81948   -437425.49246         0.00041  22454207.43846  22454202.10948
  -7429943.89748  -5789571.82645         0.00041  23850444.71445  23850435.53048
 97 05 01 01 22 30.0000000  0  7 06 10 17 21 23 26 30
 -25030367.43549 -19504167.07247         0.00041  20343050.05447  20343045.21549
     18138.85348     14143.62241         0.00041         0.00041  24393992.84648
 -22844352.81849 -17800768.23147         0.00041  21015493.69047  21015488.01449
  -4055537.25348         0.00041         0.00041         0.00041  24782292.97848
 -18286362.87549 -14249083.70246         0.00041  21757686.38446  21757680.04149
   -594837.95548   -463508.42546         0.00041  22447838.11346  22447832.21548
  -7324099.57248  -5707095.97545         0.00041  23870585.67445  23870577.23548
 97 05 01 01 23 00.0000000  0  7 06 10 17 21 23 26 30
 -25007457.39849 -19486315.10647         0.00041  20347409.54547  20347404.80449
    121249.35548     94489.45344         0.00041  24413620.09844  24413614.19448
 -22872229.48649 -17822490.29347         0.00041  21010189.01647  21010183.22949
  -4152352.78348         0.00041         0.00041         0.00041  24763869.22048
 -18355042.13749 -14302599.96546         0.00041  21744617.18846  21744610.69749
   -627766.66848   -489167.10546         0.00041  22441571.72446  22441566.08548
  -7218165.56748  -5624550.23545         0.00041  23890744.23845  23890736.04748
 97 05 01 01 23 30.0000000  0  7 06 10 17 21 23 26 30
 -24984081.27349 -19468099.95347         0.00041  20351857.93247  20351853.13949
    224433.50148    174892.64041         0.00041         0.00041  24433249.52448
 -22899893.21449 -17844046.43247         0.00041  21004924.34947  21004918.84449
  -4249002.74748         0.00041         0.00041         0.00041  24745476.98648
 -18423360.93949 -14355835.35546         0.00041  21731616.46646  21731610.01749
   -660173.74248   -514419.35446         0.00041  22435404.18146  22435399.25048
  -7112156.10448  -5541945.69445         0.00041  23910917.44645  23910909.00648
 97 05 01 01 24 00.0000000  0  7 06 10 17 21 23 26 30
 -24960270.53649 -19449546.14247         0.00041  20356388.92247  20356384.16849
    327658.57948    255327.77941         0.00041         0.00041  24452892.53748
 -22927353.50349 -17865444.04747         0.00041  20999698.97347  20999693.40549
  -4345517.38148         0.00041         0.00041         0.00041  24727110.43348
 -18491300.96149 -14408775.59246         0.00041  21718687.92046  21718681.39749
   -692085.43348   -539285.56646         0.00041  22429331.46746  22429326.59748
  -7006093.59448  -5459299.83845         0.00041  23931100.72845  23931092.28948
 97 05 01 01 24 30.0000000  0  7 06 10 17 21 23 26 30
 -24935969.37549 -19430610.18347         0.00041  20361013.45347  20361008.59949
    430961.84548    335823.76444         0.00041  24472556.45944  24472550.58448
 -22954556.03849 -17886640.81147         0.00041  20994522.81347  20994516.97149
  -4441857.88148         0.00041         0.00041         0.00041  24708777.32848
 -18558781.83349 -14461358.05246         0.00041  21705846.46446  21705840.09249
   -723446.53648   -563722.75046         0.00041  22423364.07746  22423358.65648
  -6899940.58948  -5376583.45645         0.00041  23951300.14045  23951292.75548
 97 05 01 01 25 00.0000000  0  7 06 10 17 21 23 26 30
 -24911271.91249 -19411365.41847         0.00041  20365713.10047  20365708.32049
    534239.32048    416299.62944         0.00041  24492209.03944  24492203.71748
 -22981605.74549 -17907718.49147         0.00041  20989374.96947  20989369.53049
  -4538132.47948  -3536192.04144         0.00041  24690467.65644  24690456.98348
 -18625892.45449 -14513652.00246         0.00041  21693075.79846  21693069.38049
   -754353.72148   -587806.23846         0.00041  22417482.34246  22417477.21348
  -6793837.35848  -5293905.88745         0.00041  23971494.06745  23971483.89048
 97 05 01 01 25 30.0000000  0  7 06 10 17 21 23 26 30
 -24886152.63149 -19391791.96447         0.00041  20370493.13347  20370488.33549
    637493.98748    496757.83041         0.00041         0.00041  24511852.52148
 -23008498.78449 -17928674.09047         0.00041  20984257.87347  20984251.90449
  -4634355.96548  -3611171.15644         0.00041  24672157.80744  24672146.14148
 -18692624.05949 -14565650.61446         0.00041  21680377.12446  21680370.81149
   -784796.82348   -611528.10046         0.00041  22411689.42646  22411684.10448
  -6687794.79948  -5211275.57445         0.00041  23991672.67845  23991663.24648
 97 05 01 01 26 00.0000000  0  7 06 10 17 21 23 26 30
 -24860558.24949 -19371848.30247         0.00041  20375363.55847  20375358.80249
    740764.24748    577228.09944         0.00041  24531511.02644  24531504.18248
 -23035217.81149 -17949494.09747         0.00041  20979173.14747  20979167.48349
  -4730494.11748         0.00041         0.00041         0.00041  24653851.52348
 -18758951.47149 -14617334.27446         0.00041  21667755.36246  21667749.08049
   -814734.65648   -634856.24946         0.00041  22405992.56346  22405987.08048
  -6581783.31648  -5128669.47545         0.00041  24011846.45045  24011836.76948
 97 05 01 01 26 30.0000000  0  7 06 10 17 21 23 26 30
 -24834458.06149 -19351510.50447         0.00041  20380330.38547  20380325.54449
    844081.63848         0.00041         0.00041         0.00041  24551164.80648
 -23061749.35449 -17970168.01247         0.00041  20974124.26747  20974118.66449
  -4826509.69748         0.00041         0.00041         0.00041  24635579.94748
 -18824890.49949 -14668715.29446         0.00041  21655207.62146  21655201.27749
   -844132.94148   -657763.96346         0.00041  22400397.71746  22400392.73148
  -6475773.55548  -5046064.74145         0.00041  24032020.35945  24032009.93448
 97 05 01 01 27 00.0000000  0  7 06 10 17 21 23 26 30
 -24807809.59949 -19330745.48047         0.00041  20385401.46147  20385396.52149
    947518.73548         0.00041         0.00041         0.00041  24570848.43348
 -23088045.53049 -17990658.52447         0.00041  20969120.27247  20969114.70349
  -4922357.14948         0.00041         0.00041         0.00041  24617340.68048
 -18890428.13749 -14719783.54446         0.00041  21642736.15846  21642729.90549
   -872950.53848   -680219.19546         0.00041  22394913.92646  22394908.82048
  -6369715.30448  -4963422.23945         0.00041  24052201.68245  24052192.25048
 97 05 01 01 27 30.0000000  0  7 06 10 17 21 23 26 30
 -24780648.58349 -19309581.06547         0.00041  20390569.97947  20390565.20649
   1051042.63948         0.00041         0.00041         0.00041  24590548.28948
 -23114152.09249 -18011001.28247         0.00041  20964152.37947  20964146.81049
  -5018072.31048  -3910170.08544         0.00041  24599137.12644  24599126.45248
 -18955624.09349 -14770585.54946         0.00041  21630329.77346  21630323.41049
   -901238.90948   -702262.05246         0.00041  22389531.29346  22389525.82948
  -6263640.48148  -4880766.81945         0.00041  24072388.62045  24072377.69948
 97 05 01 01 28 00.0000000  0  7 06 10 17 21 23 26 30
 -24753005.14149 -19288040.73347         0.00041  20395830.33547  20395825.55449
   1154644.33648         0.00041         0.00041         0.00041  24610263.05048
 -23140074.61949 -18031200.63647         0.00041  20959219.36447  20959213.94949
  -5113653.09948         0.00041         0.00041         0.00041  24580937.96648
 -19020498.49849 -14821136.99646         0.00041  21617984.79046  21617978.20949
   -929018.25948   -723908.26446         0.00041  22384245.47346  22384239.69348
  -6157556.41348  -4798104.17645         0.00041  24092575.08745  24092564.91048
 97 05 01 01 28 30.0000000  0  7 06 10 17 21 23 26 30
 -24724885.73849 -19266129.52247         0.00041  20401181.25647  20401176.49349
   1258337.54748         0.00041         0.00041         0.00041  24629995.04148
 -23165790.25049 -18051238.77247         0.00041  20954326.01747  20954320.36649
  -5209095.27248         0.00041         0.00041         0.00041  24562775.97348
 -19085037.34449 -14871426.96746         0.00041  21605703.19646  21605696.83349
   -956287.99448   -745157.38146         0.00041  22379055.37046  22379050.41848
  -6051462.08248  -4715433.55045         0.00041  24112764.43045  24112754.25348
 97 05 01 01 29 00.0000000  0  7 06 10 17 21 23 26 30
 -24696262.85849 -19243825.99347         0.00041  20406628.00947  20406623.29049
   1362152.53748         0.00041         0.00041         0.00041  24649750.65448
 -23191255.39149 -18071081.72447         0.00041  20949480.03847  20949474.46349
  -5304359.74948  -4133250.59944         0.00041  24544658.62744  24544647.20948
 -19149166.70049 -14921397.85646         0.00041  21593499.63846  21593493.28349
   -983007.99748   -765978.15246         0.00041  22373971.66546  22373965.72548
  -5945322.88548  -4632727.97245         0.00041  24132961.99745  24132952.06848
 97 05 01 01 29 30.0000000  0  8 06 10 17 21 23 26 28 30
 -24667223.32749 -19221197.80047         0.00041  20412154.04947  20412149.33549
   1465980.87848         0.00041         0.00041         0.00041  24669508.71548
 -23216547.48649 -18090789.83447         0.00041  20944667.35347  20944661.57149
  -5399510.73348         0.00041         0.00041         0.00041  24526540.60948
 -19212943.90749 -14971094.34146         0.00041  21581363.38246  21581356.82349
  -1009244.96648   -786422.51746         0.00041  22368977.67246  22368972.97848
        -0.27018        -0.48318  23025874.56318  23025879.28618         0.00011
  -5839214.52348  -4550046.41344         0.00041  24153153.42944  24153143.99748
 97 05 01 01 30 00.0000000  0  8 06 10 17 21 23 26 28 30
 -24637790.58449 -19198263.21047         0.00041  20417754.91247  20417750.13549
   1569786.70448         0.00041         0.00041         0.00041  24689262.18748
 -23241677.40349 -18110371.57247         0.00041  20939885.19747  20939879.32649
  -5494565.23748         0.00041         0.00041         0.00041  24508452.15348
 -19276369.47449 -15020516.82546         0.00041  21569293.97546  21569287.46249
  -1035003.77148   -806494.30746         0.00041  22364074.94346  22364071.09348
    -93570.46408    -72912.28008  23008068.72408  23008073.38708         0.00001
  -5733162.10548         0.00041         0.00041         0.00041  24173325.19548
 97 05 01 01 30 30.0000000  0  7 06 10 17 21 23 26 30
 -24607842.69749 -19174927.20847         0.00041  20423453.82547  20423449.02349
   1673659.14148         0.00041         0.00041         0.00041  24709028.43848
 -23266549.04349 -18129752.05647         0.00041  20935151.96747  20935146.42349
  -5589418.00848         0.00041         0.00041         0.00041  24490402.23848
 -19339330.00949 -15069576.94446         0.00041  21557312.65346  21557306.44249
  -1060168.07248   -826102.79846         0.00041  22359287.50146  22359282.40048
  -5627076.23648  -4384744.46144         0.00041  24193523.87744  24193512.95548
 97 05 01 01 31 00.0000000  0  7 06 10 17 21 23 26 30
 -24577420.41649 -19151221.54847         0.00041  20429243.11147  20429238.31049
   1777522.05748         0.00041         0.00041         0.00041  24728792.98448
 -23291230.82349 -18148984.59847         0.00041  20930455.19947  20930449.62849
  -5684122.95048  -4429169.15044         0.00041  24472390.25544  24472380.57448
 -19401890.15349 -15118325.07146         0.00041  21545408.24146  21545401.69949
  -1084778.71548   -845279.84346         0.00041  22354603.95646  22354599.19948
  -5521025.76748  -4302108.02245         0.00041  24213703.95145  24213694.02348
 97 05 01 01 31 30.0000000  0  7 06 10 17 21 23 26 30
 -24546575.54849 -19127186.60047         0.00041  20435112.56447  20435107.79449
   1881309.05748         0.00041         0.00041         0.00041  24748542.57048
 -23315791.99849 -18168123.16147         0.00041  20925781.41347  20925775.84849
  -5778752.07248  -4502905.90544         0.00041  24454382.04344  24454373.10848
 -19464139.83049 -15166831.27846         0.00041  21533562.11946  21533556.00249
  -1108898.45648   -864074.44146         0.00041  22350014.66046  22350009.31048
  -5415094.16348  -4219564.20444         0.00041  24233863.14744  24233852.47448
 97 05 01 01 32 00.0000000  0  7 06 10 17 21 23 26 30
 -24515222.37849 -19102755.57347         0.00041  20441079.04147  20441074.09149
   1985093.41747         0.00041         0.00041         0.00041  24768291.96447
 -23340165.51049 -18187115.49647         0.00041  20921143.31147  20921137.70049
  -5873246.65148  -4576537.86844         0.00041  24436401.70244  24436391.02848
 -19526012.34749 -15215043.59546         0.00041  21521788.11546  21521782.01349
  -1132457.99748   -882432.50246         0.00041  22345531.00646  22345526.03048
  -5309226.25948         0.00041         0.00041         0.00041  24253998.70648
 97 05 01 01 32 30.0000000  0  8 06 10 17 21 23 26 28 30
 -24483385.22649 -19077947.41847         0.00041  20447137.47147  20447132.47749
   2088852.90347         0.00041         0.00041         0.00041  24788036.87347
 -23364385.53449 -18205988.22847         0.00041  20916534.42947  20916528.72749
  -5967637.26048         0.00041         0.00041         0.00041  24418428.90848
 -19587544.60749 -15262990.77246         0.00041  21510078.76946  21510072.68149
  -1155492.29648   -900381.27846         0.00041  22341147.82646  22341142.78448
        -0.41518        -0.28718  22919431.60818  22919436.30218         0.00011
  -5203440.75048         0.00041         0.00041         0.00041  24274129.26848
 97 05 01 01 33 00.0000000  0  8 06 10 17 21 23 26 28 30
 -24451065.92849 -19052763.56547         0.00041  20453287.61347  20453282.73649
   2192602.62347         0.00041         0.00041         0.00041  24807779.82247
 -23388439.18349 -18224731.31547         0.00041  20911957.11447  20911951.47749
  -6061904.57448  -4723543.63144         0.00041  24400501.75944  24400490.09348
 -19648722.93649 -15310662.15846         0.00041  21498437.13946  21498430.73649
  -1178000.89048   -917920.41646         0.00041  22336864.14846  22336859.55248
    -92819.64308    -72326.92408  22901768.65608  22901773.37808         0.00001
  -5097715.25848  -3972256.87344         0.00041  24294257.99044  24294248.30948
 97 05 01 01 33 30.0000000  0  8 06 10 17 21 23 26 28 30
 -24418248.06649 -19027191.22247         0.00041  20459532.67547  20459527.70549
   2296369.17047         0.00041         0.00041         0.00041  24827525.81047
 -23412299.60749 -18243323.84147         0.00041  20907416.52947  20907410.93249
  -6156014.16548         0.00041         0.00041         0.00041  24382581.34648
 -19709503.52349 -15358023.61746         0.00041  21486870.85746  21486864.60149
  -1199972.88448   -935041.41946         0.00041  22332683.65546  22332678.43448
   -185488.17608   -144536.13608  22884134.40808  22884139.11908         0.00001
  -4992004.18148  -3889884.93344         0.00041  24314376.22544  24314364.80748
 97 05 01 01 34 00.0000000  0  8 06 10 17 21 23 26 28 30
 -24384918.51849 -19001220.16247         0.00041  20465874.94647  20465870.09549
   2400175.08147         0.00041         0.00041         0.00041  24847279.67147
 -23435956.07349 -18261757.43747         0.00041  20902914.94747  20902909.26849
  -6249946.74148  -4870069.57444         0.00041  24364717.20944  24364706.53548
 -19769847.28549 -15405044.69546         0.00041  21475387.78446  21475381.50349
  -1221400.75348   -951738.43446         0.00041  22328605.73746  22328600.72548
   -277980.20808   -216607.81608  22866533.76308  22866538.46208         0.00001
  -4886271.52948  -3807496.15244         0.00041  24334494.39644  24334485.21248
 97 05 01 01 34 30.0000000  0  8 06 10 17 21 23 26 28 30
 -24351117.18149 -18974881.47347         0.00041  20472307.28247  20472302.32449
   2504011.28647         0.00041         0.00041         0.00041  24867039.09347
 -23459430.12849 -18280048.89747         0.00041  20898447.98747  20898442.31449
  -6343718.87148         0.00041         0.00041         0.00041  24346862.13448
 -19829785.00749 -15451749.37646         0.00041  21463981.86246  21463975.66749
  -1242321.04348   -968039.92546         0.00041  22324625.06646  22324619.78548
   -370317.26908   -288558.73608  22848962.60708  22848967.29608         0.00001
  -4780547.31848         0.00041         0.00041         0.00041  24354603.91948
 97 05 01 01 35 00.0000000  0  8 06 10 17 21 23 26 28 30
 -24316822.62749 -18948158.46047         0.00041  20478833.37047  20478828.46149
   2607904.45847         0.00041         0.00041         0.00041  24886809.34047
 -23482697.78649 -18298179.52347         0.00041  20894020.44347  20894014.57249
  -6437300.44548  -5016059.09044         0.00041  24329064.89444  24329054.22148
 -19889288.16349 -15498115.43446         0.00041  21452658.54546  21452652.58449
  -1262703.66548   -983922.46046         0.00041  22320746.05246  22320740.97248
   -462466.92708   -360363.62708  22831427.18908  22831431.81108         0.00001
  -4674821.29548  -3642730.36044         0.00041  24374732.95644  24374723.02748
 97 05 01 01 35 30.0000000  0  8 06 10 17 21 23 26 28 30
 -24282037.77949 -18921053.40047         0.00041  20485452.68847  20485447.88549
   2711862.84147         0.00041         0.00041         0.00041  24906592.23047
 -23505745.19949 -18316138.53447         0.00041  20889634.14747  20889628.79649
  -6530703.21148  -5088840.27544         0.00041  24311290.42944  24311280.25248
 -19948366.52949 -15544150.48946         0.00041  21441416.56846  21441410.31449
  -1282537.15548   -999377.09446         0.00041  22316971.44446  22316966.89448
   -554423.49408   -432018.05308  22813928.40508  22813933.04808         0.00001
  -4569110.61648  -3560358.75444         0.00041  24394849.90344  24394839.22948
 97 05 01 01 36 00.0000000  0  8 06 10 17 21 23 26 28 30
 -24246794.17649 -18893590.86947         0.00041  20492159.40947  20492154.43649
   2815863.94947         0.00041         0.00041         0.00041  24926382.77747
 -23528591.59149 -18333940.90447         0.00041  20885286.85047  20885281.30049
  -6623963.16848  -5161510.16944         0.00041  24293544.62144  24293533.20348
 -20007074.87049 -15589897.21246         0.00041  21430244.55846  21430238.41049
  -1301846.93648  -1014423.65246         0.00041  22313297.02746  22313292.30348
   -646222.37008   -503549.60508  22796459.61008  22796464.26908         0.00001
  -4463476.67048  -3478046.88444         0.00041  24414951.91244  24414940.99048
 97 05 01 01 36 30.0000000  0  8 06 10 17 21 23 26 28 30
 -24211034.18849 -18865725.96347         0.00041  20498964.28747  20498959.28549
   2919945.99347         0.00041         0.00041         0.00041  24946188.91747
 -23551175.81249 -18351538.98347         0.00041  20880989.36247  20880983.66549
  -6717022.51848  -5234023.80244         0.00041  24275835.88344  24275824.46548
 -20065371.85349 -15635323.39446         0.00041  21419151.13446  21419144.95249
  -1320566.07148  -1029009.96246         0.00041  22309734.97146  22309730.09148
   -737813.58508   -574919.34108  22779030.35208  22779035.01308         0.00001
  -4357878.14748  -3395762.68344         0.00041  24435047.02444  24435035.85448
 97 05 01 01 37 00.0000000  0  8 06 10 17 21 23 26 28 30
 -24174773.51349 -18837470.91147         0.00041  20505864.33247  20505859.44549
   3024065.60547         0.00041         0.00041         0.00041  24966002.22247
 -23573523.60449 -18368952.83147         0.00041  20876736.66847  20876731.02749
  -6809893.46648         0.00041         0.00041         0.00041  24258151.59848
 -20123272.37349 -15680440.64546         0.00041  21408132.86346  21408126.74449
  -1338704.48448  -1043143.76646         0.00041  22306283.57646  22306278.38948
   -829219.80408   -646144.92708  22761636.30408  22761640.95308         0.00001
  -4252327.83248  -3313516.00244         0.00041  24455133.01944  24455121.84948
 97 05 01 01 37 30.0000000  0  8 06 10 17 21 23 26 28 30
 -24138000.61349 -18808816.72347         0.00041  20512862.20547  20512857.11449
   3128214.28347         0.00041         0.00041         0.00041  24985821.12447
 -23595635.25449 -18386182.67347         0.00041  20872528.92447  20872523.19949
  -6902584.29748  -5378617.01844         0.00041  24240523.73544  24240513.06248
 -20180769.92149 -15725243.89146         0.00041  21397191.47046  21397185.35549
  -1356258.02248  -1056821.82146         0.00041  22302942.85846  22302938.04948
   -920444.32008   -717228.93008  22744276.82808  22744281.41108         0.00001
  -4146815.45148         0.00041         0.00041         0.00041  24475200.54848
 97 05 01 01 38 00.0000000  0  8 06 10 17 21 23 26 28 30
 -24100738.05749 -18779780.98547         0.00041  20519952.93147  20519947.95049
   3232349.74747         0.00041         0.00041         0.00041  25005637.42247
 -23617564.58349 -18403270.44847         0.00041  20868355.64847  20868350.33249
  -6995120.46148  -5450722.93344         0.00041  24222910.51044  24222903.79248
 -20237893.87549 -15769756.02346         0.00041  21386320.95346  21386315.04549
  -1373255.43048  -1070066.52546         0.00041  22299708.08246  22299703.39348
  -1011518.31708   -788195.64408  22726945.97108  22726950.55908         0.00001
  -4041354.22648  -3149121.63744         0.00041  24495280.74544  24495269.32748
 97 05 01 01 38 30.0000000  0  8 06 10 17 21 23 26 28 30
 -24063046.60349 -18750411.03847         0.00041  20527125.38247  20527120.41849
   3336411.82147         0.00041         0.00041         0.00041  25025439.53447
 -23639380.14949 -18420269.57647         0.00041  20864204.35047  20864198.96649
  -7087559.03548  -5522752.82844         0.00041  24205321.10244  24205312.91148
 -20294683.66549 -15814007.76946         0.00041  21375514.30146  21375508.25349
  -1389746.23148  -1082916.47046         0.00041  22296570.71746  22296565.38948
  -1102487.42508   -859080.62808  22709635.03408  22709639.61808         0.00001
  -3935982.17848         0.00041         0.00041         0.00041  24515321.30048
 97 05 01 01 39 00.0000000  0  8 06 10 17 21 23 26 28 30
 -24024896.24749 -18720683.50647         0.00041  20534385.28947  20534380.19949
   3440456.69048         0.00041         0.00041         0.00041  25045238.73748
 -23661031.80849 -18437140.98447         0.00041  20860084.34747  20860078.66749
  -7179864.95748         0.00041         0.00041         0.00041  24187747.34548
 -20351083.57149 -15857955.70847         0.00041  21364781.74547  21364775.70349
  -1405691.23748  -1095341.12346         0.00041  22293535.61446  22293531.15048
  -1193299.30308   -929843.09508  22692354.06608  22692358.59908         0.00001
  -3830666.90948         0.00041         0.00041         0.00041  24535362.42248
 97 05 01 01 39 30.0000000  0  8 06 10 17 21 23 26 28 30
 -23986252.33349 -18690571.38447         0.00041  20541738.92647  20541733.94049
   3544526.87848         0.00041         0.00041         0.00041  25065042.93648
 -23682480.39949 -18453854.16247         0.00041  20856002.86947  20855997.10349
  -7272012.85548         0.00041         0.00041         0.00041  24170212.36748
 -20407065.42049 -15901577.89047         0.00041  21354128.60547  21354122.61549
  -1421052.17548  -1107310.67146         0.00041  22290612.92146  22290607.92448
  -1283911.86708  -1000450.25308  22675111.02808  22675115.52308         0.00001
  -3725378.94448         0.00041         0.00041         0.00041  24555398.31748
 97 05 01 01 40 00.0000000  0  8 06 10 17 21 23 26 28 30
 -23947079.39949 -18660047.04047         0.00041  20549193.18547  20549188.30949
   3648671.15348         0.00041         0.00041         0.00041  25084860.68548
 -23703661.91149 -18470359.22747         0.00041  20851971.84147  20851966.38949
  -7363940.12648         0.00041         0.00041         0.00041  24152718.79048
 -20462583.64849 -15944838.80847         0.00041  21343563.82147  21343557.92449
  -1435782.70148  -1118788.97646         0.00041  22287809.60046  22287804.77748
  -1374272.94308  -1070861.44908  22657915.81608  22657920.32108         0.00001
  -3620090.07748         0.00041         0.00041         0.00041  24575434.57248
 97 05 01 01 40 30.0000000  0  8 06 10 17 21 23 26 28 30
 -23907462.34049 -18629176.62147         0.00041  20556732.17547  20556727.24149
   3752798.86748         0.00041         0.00041         0.00041  25104675.63248
 -23724641.54049 -18486706.98047         0.00041  20847979.56247  20847974.06249
  -7455728.70848         0.00041         0.00041         0.00041  24135252.04548
 -20517706.55649 -15987791.68447         0.00041  21333074.25847  21333068.33149
  -1449973.96548  -1129847.08146         0.00041  22285109.25746  22285104.30248
  -1464465.74308  -1141141.52108  22640752.64708  22640757.14608         0.00001
  -3514907.59348         0.00041         0.00041         0.00041  24595450.51248
 97 05 01 01 41 00.0000000  0  8 06 10 17 21 23 26 28 30
 -23867405.22549 -18597963.30447         0.00041  20564354.70947  20564349.75149
   3856882.68048   3005371.87341         0.00041         0.00041  25124482.32248
 -23745437.67549 -18502911.74947         0.00041  20844022.32047  20844016.64549
  -7547383.99048  -5881057.15544         0.00041  24117820.66544  24117810.48848
 -20572453.84149 -16030451.87047         0.00041  21322656.08847  21322650.14349
  -1463638.27048  -1140494.57046         0.00041  22282509.05546  22282504.06048
  -1554511.83108  -1211307.26908  22623617.40108  22623621.89708         0.00001
  -3409854.65348         0.00041         0.00041         0.00041  24615441.45148
 97 05 01 01 41 30.0000000  0  8 06 10 17 21 23 26 28 30
 -23826884.51249 -18566388.74447         0.00041  20572065.44747  20572060.57849
   3960914.21448         0.00041         0.00041         0.00041  25144278.62848
 -23766054.19949 -18518976.56047         0.00041  20840098.84347  20840093.58749
  -7638877.73848  -5952350.82344         0.00041  24100408.21144  24100399.77248
 -20626825.28649 -16072819.19247         0.00041  21312309.62747  21312303.59149
  -1476757.59448  -1150717.39746         0.00041  22280012.07046  22280007.55248
  -1644403.32108  -1281352.55308  22606511.65908  22606516.14808         0.00001
  -3304906.84948  -2575268.91944         0.00041  24635422.18044  24635412.50048
 97 05 01 01 42 00.0000000  0  8 06 10 17 21 23 26 28 30
 -23785933.58349 -18534478.94747         0.00041  20579858.29247  20579853.33449
   4064853.24448         0.00041         0.00041         0.00041  25164057.70748
 -23786531.13049 -18534932.59647         0.00041  20836202.36847  20836196.87149
  -7730243.77048  -6023544.97044         0.00041  24083022.84744  24083013.16648
 -20680843.16549 -16114911.01147         0.00041  21302030.30247  21302024.30349
  -1489369.61048  -1160544.91846         0.00041  22277612.03446  22277607.42848
  -1734167.88308  -1351298.93408  22589429.97508  22589434.51508         0.00001
  -3200098.23548  -2493600.21344         0.00041  24655368.34244  24655357.17248
 97 05 01 01 42 30.0000000  0  8 06 10 17 21 23 26 28 30
 -23744512.44749 -18502202.75747         0.00041  20587740.55247  20587735.60949
   4168741.78648         0.00041         0.00041         0.00041  25183827.02848
 -23806847.99649 -18550763.90947         0.00041  20832336.24947  20832330.62749
  -7821448.22648  -6094613.24545         0.00041  24065666.88345  24065657.45148
 -20734467.64849 -16156696.28847         0.00041  21291825.96247  21291819.85949
  -1501434.40048  -1169946.03546         0.00041  22275316.08446  22275311.63148
  -1823760.50408  -1421111.33208  22572381.03208  22572385.57708         0.00001
  -3095384.06948         0.00041         0.00041         0.00041  24675283.85248
 97 05 01 01 43 00.0000000  0  8 06 10 17 21 23 26 28 30
 -23702615.74749 -18469555.99747         0.00041  20595713.19747  20595708.31249
   4272592.48048         0.00041         0.00041         0.00041  25203588.88848
 -23827010.98149 -18566475.31247         0.00041  20828499.25147  20828493.80249
  -7912471.20548  -6165540.06844         0.00041  24048345.00144  24048336.31448
 -20787703.94649 -16198179.08447         0.00041  21281695.19847  21281689.24849
  -1512946.61648  -1178916.56946         0.00041  22273125.95746  22273120.86048
  -1913168.91908  -1490780.19108  22555367.14008  22555371.70908         0.00001
  -2990751.33548         0.00041         0.00041         0.00041  24695194.99548
 97 05 01 01 43 30.0000000  0  8 06 10 17 21 23 26 28 30
 -23660216.68949 -18436517.78947         0.00041  20603781.50047  20603776.51749
   4376444.21148         0.00041         0.00041         0.00041  25223351.57948
 -23846972.68749 -18582029.87847         0.00041  20824700.61947  20824695.21049
  -8003288.78348  -6236306.84745         0.00041  24031064.64345  24031054.21848
 -20840515.92749 -16239331.24347         0.00041  21271645.42647  21271639.47549
  -1523879.03848  -1187435.31546         0.00041  22271045.32746  22271040.55848
  -2002348.60008  -1560270.81708  22538396.78708  22538401.31308         0.00001
  -2886176.36148         0.00041         0.00041         0.00041  24715095.34448
 97 05 01 01 44 00.0000000  0  8 06 10 17 21 23 26 28 30
 -23617308.74749 -18403083.04747         0.00041  20611946.60347  20611941.60449
   4480315.74448         0.00041         0.00041         0.00041  25243117.52748
 -23866716.30549 -18597414.50247         0.00041  20820943.71847  20820937.98849
  -8093898.73148  -6306911.83845         0.00041  24013822.88545  24013811.71648
 -20892894.42449 -16280145.62247         0.00041  21261678.09447  21261672.13949
  -1534224.39848  -1195496.61646         0.00041  22269076.50246  22269071.76948
  -2091294.03008  -1629578.91008  22521471.03808  22521475.55808         0.00001
  -2781680.11248  -2167561.50944         0.00041  24734991.38044  24734980.45948
 97 05 01 01 44 30.0000000  0  8 06 10 17 21 23 26 28 30
 -23573897.24649 -18369255.92447         0.00041  20620207.71147  20620202.54649
   4584194.43648         0.00041         0.00041         0.00041  25262885.03948
 -23886250.05649 -18612635.59947         0.00041  20817226.40147  20817220.88749
  -8184299.64348  -6377353.95945         0.00041  23996617.34345  23996608.90448
 -20944854.94749 -16320634.30847         0.00041  21251790.39347  21251784.39949
  -1543989.33048  -1203105.63046         0.00041  22267218.65746  22267213.74848
  -2180023.70108  -1698718.87708  22504586.30308  22504590.83008         0.00001
  -2677287.79248  -2086217.16844         0.00041  24754856.57444  24754846.14948
 97 05 01 01 45 00.0000000  0  7 06 17 21 23 26 28 30
 -23529994.74949 -18335046.20647         0.00041  20628562.02547  20628556.92449
 -23905596.62649 -18627710.83747         0.00041  20813544.98947  20813539.33349
  -8274525.04048  -6447659.28545         0.00041  23979450.17045  23979439.24848
 -20996431.09649 -16360823.48547         0.00041  21241975.80847  21241969.74749
  -1553195.96348  -1210279.61146         0.00041  22265466.24846  22265461.70448
  -2268567.52408  -1767714.02708  22487736.96608  22487741.46008         0.00001
  -2573026.57048         0.00041         0.00041         0.00041  24774686.72248
 97 05 01 01 45 30.0000000  0  8 06 17 21 22 23 26 28 30
 -23485586.65049 -18300442.51147         0.00041  20637012.57147  20637007.52449
 -23924730.55849 -18642620.38347         0.00041  20809903.93447  20809898.22149
  -8364573.24848  -6517826.58145         0.00041  23962314.13945  23962303.71448
        -0.31358         0.79655         0.00051  23257892.99655  23257886.63458
 -21047606.84349 -16400700.65947         0.00041  21232237.15747  21232231.29149
  -1561819.79848  -1216999.45846         0.00041  22263825.57946  22263820.63048
  -2356911.13508  -1836553.16708  22470925.73708  22470930.17308         0.00001
  -2468881.40648         0.00041         0.00041         0.00041  24794505.14248
 97 05 01 01 46 00.0000000  0  8 06 17 21 22 23 26 28 30
 -23440662.04549 -18265436.34747         0.00041  20645561.47947  20645556.42249
 -23943653.98749 -18657365.89847         0.00041  20806302.82047  20806297.29349
  -8454430.33648  -6587844.92545         0.00041  23945213.03445  23945204.34648
     -9174.53248     -7147.96645         0.00041  23256147.22045  23256140.64648
 -21098376.07549 -16440261.06947         0.00041  21222576.13947  21222570.19349
  -1569855.35948  -1223260.91746         0.00041  22262296.58346  22262291.54648
  -2445048.16108  -1905231.33408  22454153.76608  22454158.17408         0.00001
  -2364840.79848         0.00041         0.00041         0.00041  24814303.62548
 97 05 01 01 46 30.0000000  0  8 06 17 21 22 23 26 28 30
 -23395212.30749 -18230020.98747         0.00041  20654210.37347  20654205.28249
 -23962349.53149 -18671933.84547         0.00041  20802745.13847  20802739.62949
  -8544072.03848  -6657695.41545         0.00041  23928153.69045  23928145.79348
    -17807.66848    -13875.08745         0.00041  23254505.27545  23254497.85848
 -21148711.00349 -16479483.06047         0.00041  21212997.72947  21212991.73649
  -1577294.26848  -1229057.45146         0.00041  22260880.73546  22260875.94648
  -2532946.76608  -1973723.72108  22437427.17508  22437431.56808         0.00001
  -2260868.93648         0.00041         0.00041         0.00041  24834088.86048
 97 05 01 01 47 00.0000000  0  8 06 17 21 22 23 26 28 30
 -23349222.92349 -18194185.12447         0.00041  20662961.80047  20662956.71849
 -23980786.91949 -18686300.63347         0.00041  20799236.64447  20799230.98149
  -8633487.90848  -6727369.94745         0.00041  23911140.66245  23911130.48548
    -25878.83248    -20164.31445         0.00041  23252969.21845  23252961.87748
 -21198589.40149 -16518349.31347         0.00041  21203506.18147  21203500.16649
  -1584110.23148  -1234368.57446         0.00041  22259583.87846  22259578.80448
  -2620577.06408  -2042007.03508  22420751.69808  22420756.02108         0.00001
  -2156926.42148         0.00041         0.00041         0.00041  24853868.61948
 97 05 01 01 47 30.0000000  0  8 06 17 21 22 23 26 28 30
 -23302935.75649 -18158117.22347         0.00041  20671769.85147  20671764.91049
 -23999185.93249 -18700637.51847         0.00041  20795735.29447  20795729.92249
  -8722893.96148  -6797036.82445         0.00041  23894127.15645  23894116.73148
    -33599.38248    -26180.34045         0.00041  23251499.46445  23251492.67948
 -21248226.47649 -16557027.52547         0.00041  21194060.62747  21194054.49149
  -1590519.10348  -1239362.48446         0.00041  22258363.99646  22258359.16348
  -2708155.46508  -2110249.91508  22404086.01208  22404090.37108         0.00001
  -2053236.04648         0.00041         0.00041         0.00041  24873600.48848
 97 05 01 01 48 00.0000000  0  8 06 17 21 22 23 26 28 30
 -23256199.64349 -18121699.49447         0.00041  20680663.49247  20680658.45349
 -24017400.73649 -18714830.86447         0.00041  20792269.28947  20792263.67649
  -8812132.68048  -6866573.31745         0.00041  23877145.21945  23877135.04348
    -40803.85148    -31794.22145         0.00041  23250129.09845  23250121.79648
 -21297461.34249 -16595392.32647         0.00041  21184691.36547  21184685.39649
  -1596369.19748  -1243920.98646         0.00041  22257250.67646  22257246.04848
  -2795523.72608  -2178329.04808  22387460.29608  22387464.70208         0.00001
  -1949650.59148         0.00041         0.00041         0.00041  24893312.16248
 97 05 01 01 48 30.0000000  0  8 06 17 21 22 23 26 28 30
 -23208885.59949 -18084831.43247         0.00041  20689667.08247  20689662.08449
 -24035293.99349 -18728773.65747         0.00041  20788864.13147  20788858.72549
  -8901073.74548  -6935877.86245         0.00041  23860219.72245  23860210.04248
    -47351.05148    -36895.94945         0.00041  23248882.53045  23248875.97848
 -21346153.87449 -16633334.53147         0.00041  21175425.33447  21175419.47149
  -1601512.34748  -1247928.62046         0.00041  22256272.09446  22256267.24748
  -2882543.54908  -2246136.67108  22370900.93108  22370905.36508         0.00001
  -1846023.34648         0.00041         0.00041         0.00041  24913031.86048
 97 05 01 01 49 00.0000000  0  8 06 17 21 22 23 26 28 30
 -23161093.33049 -18047590.72647         0.00041  20698761.69947  20698756.62949
 -24052974.90949 -18742550.98947         0.00041  20785499.47347  20785494.11649
  -8989832.22848  -7005040.14645         0.00041  23843329.34545  23843319.91348
    -53362.72848    -41580.37445         0.00041  23247738.78345  23247731.93448
 -21394427.37949 -16670950.21947         0.00041  21166239.05847  21166233.27349
  -1606040.67148  -1251457.17246         0.00041  22255409.92546  22255405.49748
  -2969323.79808  -2313757.61608  22354387.23508  22354391.62408         0.00001
  -1742467.02248         0.00041         0.00041         0.00041  24932738.23148
 97 05 01 01 49 30.0000000  0  8 06 17 21 22 23 26 28 30
 -23112842.13149 -18009992.41247         0.00041  20707943.59347  20707938.55449
 -24070473.56549 -18756186.29747         0.00041  20782169.90847  20782164.22749
  -9078399.35548  -7074053.32545         0.00041  23826475.14845  23826465.96448
    -58855.59648    -45860.53645         0.00041  23246692.90445  23246686.90548
 -21442295.94849 -16708250.37447         0.00041  21157130.13647  21157124.20049
  -1609973.38248  -1254521.59146         0.00041  22254661.86646  22254657.02248
  -3055873.97608  -2381199.28708  22337917.25408  22337921.62108         0.00001
  -1639018.93748         0.00041         0.00041         0.00041  24952423.98448
 97 05 01 01 50 00.0000000  0  8 06 17 21 22 23 26 28 30
 -23064133.73149 -17972037.83647         0.00041  20717212.62847  20717207.57949
 -24087791.65749 -18769680.90747         0.00041  20778874.31547  20778868.71149
  -9166764.43848  -7142909.06445         0.00041  23809660.05845  23809650.62648
    -63826.97048    -49734.34845         0.00041  23245748.05345  23245740.91648
 -21489754.14949 -16745230.75947         0.00041  21148099.14147  21148093.22249
  -1613327.27048  -1257135.00146         0.00041  22254023.54946  22254018.79448
  -3142195.58208  -2448462.84808  22321490.71908  22321495.14408         0.00001
  -1535694.41348         0.00041         0.00041         0.00041  24972086.30048
 97 05 01 01 50 30.0000000  0  8 06 17 21 22 23 26 28 30
 -23014971.03249 -17933729.26547         0.00041  20726567.87347  20726562.90349
 -24104931.66049 -18783036.74847         0.00041  20775612.53347  20775607.05049
  -9254928.29848  -7211608.01445         0.00041  23792883.61345  23792873.43648
    -68293.33748    -53214.63845         0.00041  23244897.15045  23244890.71248
 -21536819.67049 -16781905.16247         0.00041  21139142.67847  21139136.85149
  -1616110.07048  -1259303.40046         0.00041  22253494.10146  22253489.39348
  -3228297.94808  -2515555.57508  22305105.95808  22305110.36408         0.00001
  -1432510.21048         0.00041         0.00041         0.00041  24991722.05648
 97 05 01 01 51 00.0000000  0  8 06 17 21 22 23 26 28 30
 -22965348.35249 -17895062.26447         0.00041  20736010.76347  20736005.76649
 -24121890.80749 -18796251.66147         0.00041  20772385.29247  20772379.89349
  -9342870.89248  -7280134.55045         0.00041  23776147.44245  23776138.25848
    -72248.57848    -56296.65145         0.00041  23244144.34045  23244138.19948
 -21583493.54649 -16818274.38747         0.00041  21130261.19247  21130255.12149
  -1618328.72848  -1261032.20246         0.00041  22253072.43546  22253067.22948
  -3314178.09408  -2582475.14408  22288763.45508  22288767.90208         0.00001
  -1329485.20148         0.00041         0.00041         0.00041  25011327.23148
 97 05 01 01 51 30.0000000  0  8 06 17 21 22 23 26 28 30
 -22915266.80149 -17856037.70347         0.00041  20745541.20747  20745536.06849
 -24138675.44249 -18809330.59047         0.00041  20769191.22447  20769185.94449
  -9430597.56748  -7348492.83045         0.00041  23759453.46845  23759444.28448
    -75687.18448    -58976.08545         0.00041  23243490.10145  23243483.64848
 -21629760.61149 -16854326.61747         0.00041  21121456.68947  21121450.73549
  -1620000.47548  -1262334.84746         0.00041  22252753.73746  22252748.93848
  -3399842.09308  -2649226.28808  22272462.13508  22272466.55508         0.00001
  -1226636.74748         0.00041         0.00041         0.00041  25030898.87048
 97 05 01 01 52 00.0000000  0  8 06 17 21 22 23 26 28 30
 -22864719.95549 -17816650.57647         0.00041  20755159.94747  20755154.84449
 -24155272.69949 -18822263.50747         0.00041  20766033.05147  20766027.58149
  -9518144.36148  -7416710.96145         0.00041  23742791.94645  23742784.45748
    -78615.14848    -61257.62045         0.00041  23242933.38645  23242926.64748
 -21675632.11649 -16890070.61747         0.00041  21112727.54547  21112721.60749
  -1621141.84648  -1263224.21246         0.00041  22252536.12646  22252531.82148
  -3485297.23408  -2715814.68708  22256200.58708  22256204.96408         0.00001
  -1123960.44648         0.00041         0.00041         0.00041  25050438.01648
 97 05 01 01 52 30.0000000  0  8 06 17 21 22 23 26 28 30
 -22813702.96249 -17776897.09947         0.00041  20764868.15847  20764863.02149
 -24171688.87349 -18835055.32147         0.00041  20762909.21747  20762903.51149
  -9605539.03148  -7484810.56145         0.00041  23726161.55245  23726153.92948
    -81054.74048    -63158.60445         0.00041  23242469.08445  23242462.44948
 -21721136.59849 -16925528.62647         0.00041  21104068.24747  21104062.40349
  -1621748.57548  -1263696.97146         0.00041  22252421.21346  22252416.39248
  -3570542.35408  -2782239.43108  22239979.01608  22239983.37008         0.00001
  -1021447.92248         0.00041         0.00041         0.00041  25069945.54748
 97 05 01 01 53 00.0000000  0  8 06 17 21 22 23 26 28 30
 -22762215.24149 -17736776.82247         0.00041  20774665.82147  20774660.66849
 -24187918.34949 -18847701.65547         0.00041  20759820.71047  20759815.27849
  -9692774.48448  -7552786.08445         0.00041  23709562.93245  23709553.50048
    -83000.78548    -64675.01745         0.00041  23242099.19445  23242092.11148
 -21766261.80649 -16960691.09747         0.00041  21095481.18647  21095475.38549
  -1621806.00448  -1263741.70246         0.00041  22252410.22746  22252405.37048
  -3655561.92908  -2848488.42708  22223800.33608  22223804.73008         0.00001
   -919083.76448   -716193.07544         0.00041  25089432.29744  25089424.94348
 97 05 01 01 53 30.0000000  0  8 06 17 21 22 23 26 28 30
 -22710235.35249 -17696273.03547         0.00041  20784557.34547  20784552.16549
 -24203936.33249 -18860183.18747         0.00041  20756772.53747  20756767.08349
  -9779835.43948  -7620625.64345         0.00041  23692995.58545  23692986.15348
    -84445.22648    -65800.55945         0.00041  23241824.37245  23241817.31148
 -21810982.40449 -16995538.29047         0.00041  21086971.10347  21086965.27849
  -1621274.90248  -1263327.83546         0.00041  22252510.95846  22252506.45248
  -3740324.98508  -2914537.53508  22207670.41408  22207674.84908         0.00001
   -816829.67048         0.00041         0.00041         0.00041  25108883.41948
 97 05 01 01 54 00.0000000  0  8 06 17 21 22 23 26 28 30
 -22657763.04449 -17655385.54847         0.00041  20794542.62747  20794537.35149
 -24219730.37649 -18872490.22547         0.00041  20753767.25747  20753761.53449
  -9866701.50348  -7688313.34245         0.00041  23676464.51645  23676455.82848
    -85382.58748    -66530.97945         0.00041  23241646.19545  23241638.75048
 -21855304.19049 -17030074.71647         0.00041  21078536.97347  21078531.06549
  -1620133.26548  -1262438.23146         0.00041  22252728.31046  22252723.57448
  -3824816.30408  -2980374.90008  22191592.21208  22191596.68708         0.00001
   -714663.49048         0.00041         0.00041         0.00041  25128325.31748
 97 05 01 01 54 30.0000000  0  8 06 17 21 22 23 26 28 30
 -22604802.83049 -17614117.87147         0.00041  20804620.67447  20804615.44649
 -24235319.15049 -18884637.31147         0.00041  20750800.57847  20750795.11549
  -9953338.33048  -7755822.41445         0.00041  23659978.22845  23659969.29348
    -85807.62848    -66862.18845         0.00041  23241564.29745  23241558.01048
 -21899204.11249 -17064282.41947         0.00041  21070183.15047  21070177.25949
  -1618354.01748  -1261051.78546         0.00041  22253067.03646  22253062.07748
  -3909031.09808  -3045996.79408  22175566.68108  22175571.05208         0.00001
   -612596.45648   -477372.75641         0.00041         0.00041  25147748.17148
 97 05 01 01 55 00.0000000  0  8 06 17 21 22 23 26 28 30
 -22551365.09149 -17572478.09747         0.00041  20814789.40847  20814784.33649
 -24250709.45049 -18896629.74247         0.00041  20747871.85747  20747866.46049
 -10039737.05648  -7823145.95145         0.00041  23643538.18145  23643528.25248
    -85715.65748    -66790.52445         0.00041  23241582.03845  23241575.41948
 -21942660.01549 -17098144.13647         0.00041  21061913.57547  21061907.84149
  -1615945.36548  -1259174.90546         0.00041  22253525.42846  22253520.45848
  -3992981.67208  -3111412.80108  22159591.38108  22159595.77008         0.00001
   -510659.46048         0.00041         0.00041         0.00041  25167146.09948
 97 05 01 01 55 30.0000000  0  8 06 17 21 22 23 26 28 30
 -22497499.64149 -17530505.04447         0.00041  20825039.59647  20825034.57849
 -24265944.78649 -18908501.42047         0.00041  20744972.57047  20744967.16349
 -10125956.13148  -7890329.50945         0.00041  23627130.29645  23627121.11248
    -85152.48748    -66351.70745         0.00041  23241690.07345  23241682.57948
 -21985717.59049 -17131695.46347         0.00041  21053720.05947  21053714.23549
  -1612975.95048  -1256861.05446         0.00041  22254090.05346  22254085.57748
  -4076719.95108  -3176663.38108  22143656.49108  22143660.88108         0.00001
   -408910.52248         0.00041         0.00041         0.00041  25186508.68648
 97 05 01 01 56 00.0000000  0  8 06 17 21 22 23 26 28 30
 -22443198.97949 -17488192.86347         0.00041  20835372.76747  20835367.55949
 -24281023.14149 -18920250.77847         0.00041  20742103.19547  20742097.84549
 -10212002.15648  -7957378.21845         0.00041  23610755.54345  23610747.10448
    -84104.84448    -65535.36845         0.00041  23241888.03045  23241881.95948
 -22028376.37249 -17164936.04647         0.00041  21045602.36747  21045596.53049
  -1609461.41248  -1254122.44046         0.00041  22254759.23546  22254754.27648
  -4160246.79708  -3241749.20908  22127761.82208  22127766.20608         0.00001
   -307372.23448         0.00041         0.00041         0.00041  25205831.13548
 97 05 01 01 56 30.0000000  0  8 06 17 21 22 23 26 28 30
 -22388377.11749 -17445474.55547         0.00041  20845805.13747  20845799.85149
 -24295858.15349 -18931810.52047         0.00041  20739280.28247  20739274.82949
 -10297801.42848  -8024234.66145         0.00041  23594427.04445  23594419.76248
    -82480.76948    -64269.85846         0.00041  23242198.27446  23242190.96148
 -22070539.72449 -17197790.57847         0.00041  21037578.80547  21037573.02249
  -1605319.86448  -1250895.24346         0.00041  22255546.89346  22255542.47048
  -4243472.29508  -3306600.22308  22111924.55908  22111928.82508         0.00001
   -205966.45348         0.00041         0.00041         0.00041  25225128.23048
 97 05 01 01 57 00.0000000  0  8 06 17 21 22 23 26 28 30
 -22333097.60849 -17402399.63747         0.00041  20856324.31047  20856319.19049
 -24310496.16049 -18943216.75347         0.00041  20736494.61047  20736489.29049
 -10383425.29348  -8090954.42845         0.00041  23578134.61545  23578125.92848
    -80340.51048    -62602.13145         0.00041  23242604.70645  23242598.38048
 -22112290.61249 -17230323.71047         0.00041  21029633.95747  21029628.08649
  -1600626.11348  -1247237.76246         0.00041  22256440.64446  22256435.65848
  -4326449.62308  -3371257.86008  22096134.53608  22096138.77508         0.00001
   -104739.61948         0.00041         0.00041         0.00041  25244391.17748
 97 05 01 01 57 30.0000000  0  8 06 17 21 22 23 26 28 30
 -22277352.79949 -17358962.14947         0.00041  20866932.28547  20866927.14649
 -24324929.68549 -18954463.64747         0.00041  20733748.17747  20733742.70949
 -10468862.66548  -8157528.87445         0.00041  23561875.50145  23561867.61248
    -77669.05448    -60520.47945         0.00041  23243114.45845  23243106.72348
 -22153647.04849 -17262549.47747         0.00041  21021763.97747  21021758.17949
  -1595368.75348  -1243141.10746         0.00041  22257440.56346  22257436.08048
  -4409157.36108  -3435705.42808  22080395.71108  22080399.98708         0.00001
     -3667.98148         0.00041         0.00041         0.00041  25263624.52348
 97 05 01 01 58 00.0000000  0  8 06 17 21 22 23 26 28 30
 -22221115.61149 -17315140.99047         0.00041  20877633.81247  20877628.71949
 -24339142.22749 -18965538.34947         0.00041  20731043.93047  20731038.18049
 -10554081.85148  -8223933.29445         0.00041  23545658.37945  23545650.94348
    -74447.91948    -58010.52045         0.00041  23243726.20745  23243719.68348
 -22194598.33449 -17294459.54347         0.00041  21013971.28347  21013965.43749
  -1589510.68448  -1238576.37546         0.00041  22258555.73546  22258550.76048
  -4491568.87908  -3499922.17308  22064713.21808  22064717.60408         0.00001
     97267.10248         0.00041         0.00041         0.00041  25282832.02648
 97 05 01 01 58 30.0000000  0  8 06 17 21 22 23 26 28 30
 -22164398.89249 -17270946.17047         0.00041  20888426.93347  20888421.60549
 -24353140.05749 -18976445.74147         0.00041  20728380.39447  20728374.54249
 -10639065.32148  -8290154.05845         0.00041  23529487.35445  23529479.16348
    -70690.25148    -55082.47046         0.00041  23244441.48446  23244434.83448
 -22235150.95249 -17326058.95647         0.00041  21006254.31147  21006248.43249
  -1583045.47848  -1233538.53346         0.00041  22259786.13146  22259781.08448
  -4573681.29008  -3563905.84808  22049087.66208  22049092.16608         0.00001
    198081.00848         0.00041         0.00041         0.00041  25302016.44948
 97 05 01 01 59 00.0000000  0  8 06 17 21 22 23 26 28 30
 -22107193.53249 -17226370.58847         0.00041  20899312.66247  20899307.49649
 -24366915.16449 -18987179.58447         0.00041  20725758.48047  20725753.02749
 -10723801.33048  -8356181.99745         0.00041  23513362.41945  23513354.22848
    -66399.04348    -51738.67346         0.00041  23245258.93746  23245251.50448
 -22275312.46049 -17357353.61047         0.00041  20998611.82047  20998605.92149
  -1575973.08948  -1228027.56546         0.00041  22261131.54346  22261126.91348
  -4655489.89208  -3627652.79008  22033519.99908  22033524.53408         0.00001
    298770.64848         0.00041         0.00041         0.00041  25321177.23548
 97 05 01 01 59 30.0000000  0  8 06 17 21 22 23 26 28 30
 -22049565.17749 -17181465.40147         0.00041  20910279.21047  20910273.80549
 -24380536.90949 -18997793.92347         0.00041  20723166.30247  20723161.01949
 -10808366.27148  -8422076.63945         0.00041  23497270.26745  23497262.07648
    -61648.76648    -48037.16945         0.00041  23246161.95445  23246155.15048
 -22315140.31949 -17388388.27847         0.00041  20991032.83047  20991026.99749
  -1568363.90048  -1222098.31446         0.00041  22262579.55846  22262574.88848
  -4737063.56908  -3691216.67308  22017996.99108  22018001.55808         0.00001
    399260.49748         0.00041         0.00041         0.00041  25340299.76148
 97 05 01 02 00 00.0000000  0  7 06 17 21 23 26 28 30
 -21991541.68749 -17136252.32047         0.00041  20921320.64847  20921315.25549
 -24394020.79749 -19008300.84547         0.00041  20720600.40047  20720595.03049
 -10892793.47048  -8487863.93945         0.00041  23481203.72245  23481195.89848
 -22354629.87249 -17419159.33247         0.00041  20983517.85947  20983512.34549
  -1560242.70548  -1215770.10246         0.00041  22264124.91046  22264120.29048
  -4818427.47908  -3754617.10208  22002513.98308  22002518.43308         0.00001
    499522.99248         0.00041         0.00041         0.00041  25359379.33348
 97 05 01 02 00 30.0000000  0  8 03 06 17 21 23 26 28 30
        -0.64458         0.00051         0.00051         0.00051  25316063.07758
 -21933075.37849 -17090694.18147         0.00041  20932446.24747  20932440.99949
 -24407325.15149 -19018667.87047         0.00041  20718068.81047  20718063.35349
 -10977025.82048  -8553499.41745         0.00041  23465175.60445  23465166.91748
 -22393710.46549 -17449611.71547         0.00041  20976081.29147  20976075.53449
  -1551565.86648  -1209008.91446         0.00041  22265776.52546  22265771.40348
  -4899528.05708  -3817812.34008  21987081.05408  21987085.43308         0.00001
    599610.78048         0.00041         0.00041         0.00041  25378425.46348
 97 05 01 02 01 00.0000000  0  8 03 06 17 21 23 26 28 30
   -106687.10448    -83132.65741         0.00041         0.00041  25295760.93148
 -21874041.92649 -17044694.11546         0.00041  20943680.03446  20943674.74249
 -24420320.96149 -19028794.47047         0.00041  20715595.74647  20715590.31449
 -11060949.07048  -8618894.04945         0.00041  23449204.90345  23449196.71248
 -22432254.98749 -17479646.38347         0.00041  20968746.22847  20968740.62149
  -1542224.12948  -1201729.62646         0.00041  22267554.01646  22267549.04448
  -4980244.71708  -3880708.42108  21971721.20708  21971725.51608         0.00001
    699629.03548         0.00041         0.00041         0.00041  25397458.51148
 97 05 01 02 01 30.0000000  0  8 03 06 17 21 23 26 28 30
   -213330.57848   -166231.41444         0.00041  25275475.83444  25275467.39548
 -21814541.56649 -16998330.22246         0.00041  20955002.45846  20954997.27349
 -24433104.77849 -19038755.88147         0.00041  20713163.07847  20713157.61149
 -11144657.40548  -8684121.19845         0.00041  23433275.99045  23433267.55048
 -22470347.07749 -17509328.50547         0.00041  20961497.82147  20961491.97249
  -1532301.85148  -1193997.97146         0.00041  22269442.18946  22269437.36948
  -5060672.28408  -3943379.23908  21956416.36908  21956420.65208         0.00001
    799474.75448         0.00041         0.00041         0.00041  25416458.84348
 97 05 01 02 02 00.0000000  0  8 03 06 17 21 23 26 28 30
   -319945.42448   -249307.91741         0.00041         0.00041  25255179.05248
 -21754571.08549 -16951600.00546         0.00041  20966414.64246  20966409.31049
 -24445677.17349 -19048552.54847         0.00041  20710770.52947  20710765.13849
 -11228119.57648  -8749156.54845         0.00041  23417392.17245  23417385.10248
 -22507985.01949 -17538656.74647         0.00041  20954335.42547  20954329.70849
  -1521783.33248  -1185801.71346         0.00041  22271443.36546  22271438.82648
  -5140803.10108  -4005818.82008  21941167.95908  21941172.25408         0.00001
    899139.41148         0.00041         0.00041         0.00041  25435424.65648
 97 05 01 02 02 30.0000000  0  8 03 06 17 21 23 26 28 30
   -426546.64948   -332373.79541         0.00041         0.00041  25234893.72248
 -21694142.04349 -16904512.46846         0.00041  20977913.88846  20977908.57849
 -24458049.23149 -19058193.10947         0.00041  20708416.25447  20708410.88249
 -11311327.12648  -8813993.48746         0.00041  23401558.58846  23401551.26848
 -22545199.42849 -17567654.96447         0.00041  20947253.78347  20947248.05449
  -1510675.14748  -1177145.97346         0.00041  22273557.09846  22273552.59248
  -5220642.29108  -4068031.16008  21925975.02008  21925979.38308         0.00001
    998607.12048         0.00041         0.00041         0.00041  25454352.93348
 97 05 01 02 03 00.0000000  0  8 03 06 17 21 23 26 28 30
   -533132.82248   -415427.85441         0.00041         0.00041  25214610.98348
 -21633264.21349 -16857075.22646         0.00041  20989498.68946  20989493.33749
 -24470201.22549 -19067662.19147         0.00041  20706103.80247  20706098.43149
 -11394288.55648  -8878638.64945         0.00041  23385772.89345  23385763.95748
 -22582008.75249 -17596337.53047         0.00041  20940249.35447  20940243.49449
  -1498960.68248  -1168017.81146         0.00041  22275786.67746  22275781.80748
  -5300185.40208  -4130012.78708  21910838.47708  21910842.86808         0.00001
   1097874.92148         0.00041         0.00041         0.00041  25473242.91048
 97 05 01 02 03 30.0000000  0  8 03 06 17 21 23 26 28 30
   -639730.20448   -498490.79041         0.00041         0.00041  25194326.10448
 -21571961.04649 -16809306.55246         0.00041  21001164.28046  21001158.90249
 -24482163.75949 -19076983.64147         0.00041  20703827.35447  20703822.05749
 -11477019.35448  -8943104.09245         0.00041  23370027.98045  23370020.77848
 -22618433.66749 -17624720.55747         0.00041  20933318.04147  20933312.07149
  -1486636.18748  -1158414.29546         0.00041  22278131.64146  22278127.17048
  -5379442.92908  -4191771.88108  21895756.21708  21895760.67608         0.00001
   1196931.93248         0.00041         0.00041         0.00041  25492092.78848
 97 05 01 02 04 00.0000000  0  8 03 06 17 21 23 26 28 30
   -746342.94348   -581565.59144         0.00041  25174045.44644  25174038.29548
 -21510239.47649 -16761211.85146         0.00041  21012909.39446  21012904.14249
 -24493953.10749 -19086170.13847         0.00041  20701583.94047  20701578.49549
 -11559531.84848  -9007399.43245         0.00041  23354325.94345  23354319.08548
 -22654488.12549 -17652814.91647         0.00041  20926456.84047  20926451.00749
  -1473724.62948  -1148353.33546         0.00041  22280588.68746  22280584.17648
  -5458416.87108  -4253310.00108  21880727.97008  21880732.40308         0.00001
   1295785.76548         0.00041         0.00041         0.00041  25510904.11848
 97 05 01 02 04 30.0000000  0  8 03 06 17 21 23 26 28 30
   -852920.77548   -664613.20944         0.00041  25153762.43844  25153756.93848
 -21448063.68749 -16712763.21446         0.00041  21024741.04346  21024735.90549
 -24505524.63149 -19095186.90147         0.00041  20699381.93847  20699376.52649
 -11641814.59648  -9071515.74446         0.00041  23338668.71746  23338661.09248
 -22690131.45649 -17680588.91947         0.00041  20919674.03647  20919668.27449
  -1460186.61648  -1137804.22946         0.00041  22283165.10146  22283160.21748
  -5537066.48308  -4314595.39608  21865761.37308  21865765.84508         0.00001
   1394486.23348         0.00041         0.00041         0.00041  25529686.49548
 97 05 01 02 05 00.0000000  0  8 03 06 17 21 23 26 28 30
   -959483.07848   -747648.73041         0.00041         0.00041  25133478.71548
 -21385460.04949 -16663981.18546         0.00041  21036654.18146  21036648.99149
 -24516927.99549 -19104072.63147         0.00041  20697211.98447  20697206.51949
 -11723915.37148  -9135490.27546         0.00041  23323045.09146  23323037.82148
 -22725388.05349 -17708061.57147         0.00041  20912964.67447  20912959.23549
  -1446053.39348  -1126791.32246         0.00041  22285854.54146  22285849.60948
  -5615425.43708  -4375654.30508  21850850.18208  21850854.56508         0.00001
   1492993.03048         0.00041         0.00041         0.00041  25548431.83048
 97 05 01 02 05 30.0000000  0  8 03 06 17 21 23 26 28 30
  -1066166.50448   -830778.65641         0.00041         0.00041  25113177.64048
 -21322548.27149 -16614959.04946         0.00041  21048626.21546  21048620.62449
 -24528318.80649 -19112948.58147         0.00041  20695044.42747  20695038.92549
 -11805980.10548  -9199436.72246         0.00041  23307428.47146  23307421.21748
 -22760385.02649 -17735331.91947         0.00041  20906305.17247  20906299.45149
  -1431486.14148  -1115440.21346         0.00041  22288626.61646  22288621.68148
  -5693635.82708  -4436597.45208  21835967.19408  21835971.58108         0.00001
   1591157.07048         0.00041         0.00041         0.00041  25567111.87848
 97 05 01 02 06 00.0000000  0  8 03 06 17 21 23 26 28 30
  -1172781.06348   -913854.83444         0.00041  25092895.77544  25092889.36748
 -21259132.64749 -16565544.30746         0.00041  21060693.78546  21060688.22749
 -24539495.52649 -19121657.70947         0.00041  20692917.52547  20692912.12849
 -11887829.43248  -9263215.31346         0.00041  23291853.85646  23291845.92548
 -22794927.96649 -17762248.47547         0.00041  20899731.79947  20899726.18349
  -1416310.94048  -1103615.37346         0.00041  22291514.24046  22291509.42148
  -5771510.64108  -4497279.10908  21821148.12708  21821152.49508         0.00001
   1689153.61048         0.00041         0.00041         0.00041  25585759.99448
 97 05 01 02 06 30.0000000  0  8 03 06 17 21 23 26 28 30
  -1279327.78648   -996878.23944         0.00041  25072620.32744  25072614.12448
 -21195217.73449 -16515740.50946         0.00041  21072856.27646  21072850.87849
 -24550452.99449 -19130195.99147         0.00041  20690832.49947  20690826.94649
 -11969453.49148  -9326818.37146         0.00041  23276320.82446  23276313.39648
 -22829013.07749 -17788808.28147         0.00041  20893245.48347  20893239.99049
  -1400517.72548  -1091308.96446         0.00041  22294519.78446  22294514.84848
  -5849046.00308  -4557696.25608  21806393.65008  21806398.01008         0.00001
   1786975.58848         0.00041         0.00041         0.00041  25604375.12648
 97 05 01 02 07 00.0000000  0  8 03 06 17 21 23 26 28 30
  -1385766.59448  -1079817.49041         0.00041         0.00041  25052359.42448
 -21130758.98149 -16465512.93946         0.00041  21085122.11646  21085116.97649
 -24561159.49649 -19138538.71447         0.00041  20688795.01747  20688789.60749
 -12050804.26748  -9390208.49346         0.00041  23260840.14146  23260832.72848
 -22862603.06449 -17814982.27947         0.00041  20886853.78847  20886848.00149
  -1384083.96448  -1078503.42246         0.00041  22297646.89846  22297642.06548
  -5926199.36308  -4617815.74208  21791711.84208  21791716.18508         0.00001
   1884660.40348         0.00041         0.00041         0.00041  25622963.86648
 97 05 01 02 07 30.0000000  0  8 03 06 17 21 23 26 28 30
  -1492207.45948  -1162758.41444         0.00041  25032111.58644  25032104.31648
 -21065857.59149 -16414940.45846         0.00041  21097472.53146  21097467.35249
 -24571685.98449 -19146741.16747         0.00041  20686791.89547  20686786.40949
 -12131962.60548  -9453448.66246         0.00041  23245395.15946  23245388.71248
 -22895799.03849 -17840849.25147         0.00041  20880536.40347  20880530.89949
  -1367117.50548  -1065282.80746         0.00041  22300875.90746  22300870.61048
  -6003059.74308  -4677706.93108  21777085.82608  21777090.12408         0.00001
   1982127.89148         0.00041         0.00041         0.00041  25641511.27748
 97 05 01 02 08 00.0000000  0  8 03 06 17 21 23 26 28 30
  -1598709.39448  -1245746.88144         0.00041  25011846.07644  25011837.63648
 -21000598.23849 -16364089.04546         0.00041  21109891.08646  21109885.95049
 -24582078.91449 -19154839.55347         0.00041  20684814.10947  20684808.71349
 -12212964.54448  -9516566.95646         0.00041  23229981.88046  23229974.51448
 -22928671.30549 -17866463.98547         0.00041  20874281.14747  20874275.58149
  -1349663.17348  -1051682.02046         0.00041  22304196.52846  22304192.09648
  -6079677.10508  -4737408.75708  21762505.97108  21762510.34208         0.00001
   2079334.82448         0.00041         0.00041         0.00041  25660009.30948
 97 05 01 02 08 30.0000000  0  8 03 06 17 21 23 26 28 30
  -1705098.31848  -1328647.30044         0.00041  24991599.47944  24991592.42748
 -20934824.39249 -16312836.72746         0.00041  21122407.66046  21122402.25949
 -24592170.02549 -19162702.75247         0.00041  20682893.70947  20682888.52049
 -12293637.26148  -9579428.72046         0.00041  23214630.41746  23214622.90748
 -22961062.37849 -17891703.76447         0.00041  20868117.34647  20868111.75049
  -1331565.30248  -1037579.77946         0.00041  22307641.03946  22307636.08048
  -6155886.10708  -4796792.38008  21748003.85808  21748008.20808         0.00001
   2176446.91248         0.00041         0.00041         0.00041  25678488.88148
 97 05 01 02 09 00.0000000  0  8 03 06 17 21 23 26 28 30
  -1811446.04648  -1411515.61444         0.00041  24971360.39344  24971355.07848
 -20868610.13549 -16261241.23146         0.00041  21135007.72946  21135002.40949
 -24602021.15249 -19170378.95247         0.00041  20681019.07747  20681013.82449
 -12374055.65948  -9642092.31346         0.00041  23199327.70646  23199319.51548
 -22993044.09349 -17916624.56147         0.00041  20862031.45647  20862025.74449
  -1312898.47948  -1023034.19246         0.00041  22311192.81346  22311188.15648
  -6231760.31708  -4855915.12708  21733565.49608  21733569.74308         0.00001
   2273375.94648         0.00041         0.00041         0.00041  25696933.77248
 97 05 01 02 09 30.0000000  0  8 03 06 17 21 23 26 28 30
  -1917755.16148  -1494353.85141         0.00041         0.00041  24951125.36948
 -20801972.95549 -16209316.18846         0.00041  21147688.41546  21147683.01149
 -24611619.58049 -19177858.24747         0.00041  20679192.70247  20679187.32449
 -12454214.91048  -9704553.97146         0.00041  23184073.22546  23184065.80248
 -23024611.48049 -17941222.50747         0.00041  20856024.35947  20856018.73649
  -1293658.79848  -1008042.22746         0.00041  22314853.42646  22314849.35148
  -6307302.97808  -4914779.52508  21719190.22008  21719194.41408         0.00001
   2370103.54248         0.00041         0.00041         0.00041  25715340.44048
 97 05 01 02 10 00.0000000  0  8 03 06 17 21 23 26 28 30
  -2023987.14748  -1577131.99644         0.00041  24930913.97244  24930910.24248
 -20734884.88849 -16157039.79946         0.00041  21160454.70146  21160449.52749
 -24620947.12749 -19185126.46347         0.00041  20677417.62547  20677412.34749
 -12534099.22948  -9766801.39846         0.00041  23168872.56746  23168864.37648
 -23055721.61149 -17965464.14947         0.00041  20850104.19447  20850098.60949
  -1273816.28048   -992580.52246         0.00041  22318629.77546  22318625.20848
  -6382487.84908  -4973365.12608  21704883.05308  21704887.22808         0.00001
   2466634.60048         0.00041         0.00041         0.00041  25733709.87348
 97 05 01 02 10 30.0000000  0  8 03 06 17 21 23 26 28 30
  -2130137.99648  -1659846.85044         0.00041  24910715.48944  24910710.32948
 -20667328.93749 -16104398.82946         0.00041  21173310.37146  21173305.04149
 -24630017.05649 -19192193.93847         0.00041  20675691.80747  20675686.35549
 -12613713.64848  -9828838.50946         0.00041  23153721.18646  23153714.14448
 -23086366.08849 -17989342.94547         0.00041  20844272.77547  20844267.19649
  -1253373.60248   -976651.15946         0.00041  22322520.12546  22322515.29748
  -6457313.54708  -5031670.85108  21690644.24208  21690648.38408         0.00001
   2562952.16848         0.00041         0.00041         0.00041  25752038.65448
 97 05 01 02 11 00.0000000  0  8 03 06 17 21 23 26 28 30
  -2236269.20148  -1742546.43444         0.00041  24890519.50144  24890514.15948
 -20599365.89749 -16051440.64546         0.00041  21186243.38446  21186237.95849
 -24638906.51149 -19199120.78347         0.00041  20674000.19747  20673994.69149
 -12693116.45348  -9890710.72646         0.00041  23138611.36046  23138604.24348
 -23116611.49249 -18012910.77247         0.00041  20838517.15947  20838511.63349
  -1232386.78548   -960297.79046         0.00041  22326513.82346  22326508.96248
  -6531838.55208  -5089742.27108  21676462.53808  21676466.76908         0.00001
   2658989.24747         0.00041         0.00041         0.00041  25770313.80647
 97 05 01 02 11 30.0000000  0  8 03 06 17 21 23 26 28 30
  -2342324.66548  -1825186.99144         0.00041  24870338.83944  24870332.44348
 -20530940.50449 -15998122.18846         0.00041  21199264.37246  21199258.88549
 -24647570.06549 -19205871.60047         0.00041  20672351.45947  20672346.11749
 -12772255.61948  -9952377.51346         0.00041  23123551.20846  23123544.38548
 -23146411.91049 -18036131.85947         0.00041  20832846.31547  20832840.69149
  -1210802.99448   -943479.25046         0.00041  22330620.91246  22330616.28648
  -6606007.30408  -5147536.09008  21662348.61408  21662352.87808         0.00001
   2754805.94248         0.00041         0.00041         0.00041  25788546.65648
 97 05 01 02 12 00.0000000  0  8 03 06 17 21 23 26 28 30
  -2448299.40648  -1907764.67444         0.00041  24850170.40444  24850166.11648
 -20462034.59349 -15944429.30246         0.00041  21212376.75646  21212371.25549
 -24656020.70249 -19212456.51047         0.00041  20670743.36347  20670737.97449
 -12851131.98748 -10013839.52946         0.00041  23108541.64046  23108534.60048
 -23175779.42249 -18059015.61747         0.00041  20827258.09547  20827252.29149
  -1188595.69148   -926174.85146         0.00041  22334847.11346  22334842.03848
  -6679805.89608  -5205041.47308  21648305.13308  21648309.43608         0.00001
   2850425.15548         0.00041         0.00041         0.00041  25806742.43048
 97 05 01 02 12 30.0000000  0  8 03 06 17 21 23 26 28 30
  -2554232.92448  -1990310.22344         0.00041  24830014.50144  24830007.74548
 -20392689.91549 -15890394.51746         0.00041  21225572.60946  21225567.19249
 -24664310.15249 -19218915.82047         0.00041  20669166.14947  20669160.63049
 -12929777.16048 -10075121.38746         0.00041  23093576.39046  23093568.94148
 -23204787.60049 -18081619.37447         0.00041  20821737.68547  20821732.19849
  -1165790.67948   -908404.71646         0.00041  22339186.41246  22339181.71648
  -6753273.24208  -5262288.74208  21634324.76008  21634329.04008         0.00001
   2945819.59547         0.00041         0.00041         0.00041  25824895.40547
 97 05 01 02 13 00.0000000  0  8 03 06 17 21 23 26 28 30
  -2660121.50648  -2072820.71544         0.00041  24809863.28444  24809857.77448
 -20322906.91549 -15836018.18546         0.00041  21238851.96446  21238846.43449
 -24672429.56149 -19225242.63347         0.00041  20667620.82047  20667615.44549
 -13008203.11248 -10136232.42146         0.00041  23078651.45946  23078644.87848
 -23233438.03449 -18103944.36847         0.00041  20816285.66647  20816280.22449
  -1142380.94548   -890163.35846         0.00041  22343641.33646  22343636.53848
  -6826407.01208  -5319276.08208  21620407.90108  21620412.10808         0.00001
   3041000.17847         0.00041         0.00041         0.00041  25843007.30747
 97 05 01 02 13 30.0000000  0  8 03 06 17 21 23 26 28 30
  -2765934.56548  -2155272.42044         0.00041  24789726.96944  24789722.12748
 -20252645.08749 -15781268.74446         0.00041  21252222.45546  21252216.82849
 -24680336.55149 -19231403.92347         0.00041  20666116.26647  20666110.68549
 -13086375.66748 -10197146.01446         0.00041  23063775.83446  23063769.12748
 -23261695.69849 -18125963.31047         0.00041  20810908.51747  20810902.92249
  -1118312.74348   -871408.91546         0.00041  22348221.12846  22348216.56248
  -6899167.48408  -5375972.54108  21606562.04508  21606566.22708         0.00001
   3136009.37747         0.00041         0.00041         0.00041  25861087.02747
 97 05 01 02 14 00.0000000  0  8 03 06 17 21 23 26 28 30
  -2871702.42848  -2237688.90944         0.00041  24769601.80844  24769595.14548
 -20181946.18449 -15726178.72346         0.00041  21265676.01546  21265670.43349
 -24688077.02649 -19237435.45947         0.00041  20664643.25847  20664637.83049
 -13164335.10348 -10257893.54246         0.00041  23048941.20846  23048933.87348
 -23289602.42749 -18147708.79847         0.00041  20805598.05647  20805592.41949
  -1093626.72148   -852173.05146         0.00041  22352918.60246  22352914.06248
  -6971590.16808  -5432405.78908  21592780.45208  21592784.64408         0.00001
   3230800.54147         0.00041         0.00041         0.00041  25879124.98447
 97 05 01 02 14 30.0000000  0  7 03 06 17 21 23 26 28
  -2977430.55148  -2320074.39444         0.00041  24749480.88544  24749475.66248
 -20110836.84849 -15670768.88546         0.00041  21279207.43646  21279202.07149
 -24695649.90649 -19243336.40147         0.00041  20663202.32947  20663196.84649
 -13242094.08348 -10318484.86046         0.00041  23034143.55046  23034136.69048
 -23317158.96349 -18169181.40847         0.00041  20800354.21747  20800348.66649
  -1068370.97348   -832493.24946         0.00041  22357724.99746  22357720.24348
  -7043693.74608  -5488590.38008  21579059.56108  21579063.79408         0.00001
 97 05 01 02 15 00.0000000  0  8 03 06 17 21 22 23 26 28
  -3083107.81048  -2402420.28844         0.00041  24729369.99644  24729365.92548
 -20039326.92649 -15615046.90046         0.00041  21292815.41646  21292809.97649
 -24703032.50849 -19249089.07647         0.00041  20661797.36847  20661792.02949
 -13319649.45648 -10378917.53646         0.00041  23019385.84646  23019378.34848
        -1.15158        -1.39556         0.00051  23320568.41456  23320561.08258
 -23344326.07849 -18190350.57247         0.00041  20795184.32547  20795178.89149
  -1042558.54748   -812379.66846         0.00041  22362636.92146  22362632.01248
  -7115468.88908  -5544519.04908  21565401.21708  21565405.43108         0.00001
 97 05 01 02 15 30.0000000  0  8 03 06 17 21 22 23 26 28
  -3188745.61248  -2484735.41544         0.00041  24709270.85944  24709263.73448
 -19967439.70249 -15559030.91546         0.00041  21306495.51646  21306489.75149
 -24710234.90949 -19254701.33647         0.00041  20660426.82847  20660421.49149
 -13396998.69048 -10439189.58346         0.00041  23004666.56346  23004659.19448
     20263.47248     15789.18845         0.00041  23324423.61645  23324417.40548
 -23371111.80649 -18211222.55247         0.00041  20790087.14147  20790081.69449
  -1016216.22148   -791853.18546         0.00041  22367649.49546  22367644.92448
  -7186923.89908  -5600198.26508  21551803.77408  21551807.99008         0.00001
 97 05 01 02 16 00.0000000  0  8 03 06 17 21 22 23 26 28
  -3294329.97448  -2567008.91544         0.00041  24689178.03344  24689171.63048
 -19895179.98349 -15502724.67946         0.00041  21320245.73846  21320240.24549
 -24717254.67049 -19260171.27847         0.00041  20659090.93247  20659085.54949
 -13474134.11948 -10499295.02246         0.00041  22989988.32146  22989980.63448
     40949.70348     31908.30245         0.00041  23328360.58045  23328353.93448
 -23397489.84849 -18231776.85447         0.00041  20785067.86347  20785062.06049
   -989362.27748   -770928.03246         0.00041  22372759.36446  22372754.97248
  -7258047.89108  -5655619.54608  21538269.31008  21538273.49808         0.00001
 97 05 01 02 16 30.0000000  0  8 03 06 17 21 22 23 26 28
  -3399849.08648  -2649231.56144         0.00041  24669098.86144  24669091.90248
 -19822535.35749 -15446118.51246         0.00041  21334069.77746  21334064.16249
 -24724073.59049 -19265484.72247         0.00041  20657793.16847  20657787.93049
 -13551032.65248 -10559215.87146         0.00041  22975354.34346  22975347.38748
     62078.14248     48371.99346         0.00041  23332381.25146  23332374.46848
 -23423428.76349 -18251988.97947         0.00041  20780131.55347  20780126.07349
   -961986.80448   -749596.49846         0.00041  22377969.09246  22377964.35248
  -7328820.96808  -5710767.38808  21524801.62608  21524805.81908         0.00001
 97 05 01 02 17 00.0000000  0  8 03 06 17 21 22 23 26 28
  -3505296.03348  -2731397.94444         0.00041  24649033.35844  24649025.73948
 -19749487.86449 -15389198.42446         0.00041  21347970.11346  21347964.65949
 -24730691.78149 -19270641.75247         0.00041  20656533.85647  20656528.47549
 -13627684.72848 -10618944.68846         0.00041  22960768.11846  22960760.87848
     83670.35548     65197.05646         0.00041  23336489.61646  23336483.20248
 -23448927.35049 -18271857.99347         0.00041  20775279.43147  20775273.90249
   -934067.73348   -727841.37846         0.00041  22383281.62646  22383277.12648
  -7399225.61408  -5765628.14008  21511404.09008  21511408.25408         0.00001
 97 05 01 02 17 30.0000000  0  8 03 06 17 21 22 23 26 28
  -3610660.66848  -2813500.23444         0.00041  24628980.95044  24628975.49548
 -19675998.24449 -15331933.82346         0.00041  21361954.77146  21361949.26949
 -24737104.23549 -19275638.46747         0.00041  20655313.66547  20655308.25549
 -13704080.08148 -10678473.45746         0.00041  22946230.37346  22946223.28448
    105738.89548     82393.30246         0.00041  23340689.92246  23340682.72848
 -23473989.87049 -18291387.21147         0.00041  20770509.97647  20770504.57349
   -905575.99748   -705640.02846         0.00041  22388703.57046  22388698.88248
  -7469240.88508  -5820185.48308  21498080.62008  21498084.76608         0.00001
 97 05 01 02 18 00.0000000  0  8 03 06 17 21 22 23 26 28
  -3715935.48748  -2895532.51244         0.00041  24608950.93644  24608942.24948
 -19602052.77849 -15274314.01246         0.00041  21376026.04846  21376020.63949
 -24743308.12549 -19280472.66647         0.00041  20654133.15147  20654127.72749
 -13780216.39848 -10737800.37846         0.00041  22931741.41546  22931734.78248
    128296.03548     99970.25546         0.00041  23344981.92246  23344975.13648
 -23498617.51849 -18310577.57047         0.00041  20765823.71047  20765818.10349
   -876502.16648   -682985.09846         0.00041  22394235.89646  22394231.64048
  -7538858.87708  -5874433.25808  21484832.78808  21484836.90808         0.00001
 97 05 01 02 18 30.0000000  0  8 03 06 17 21 22 23 26 28
  -3821113.71948  -2977489.55044         0.00041  24588933.74944  24588927.36448
 -19527644.45049 -15216333.53446         0.00041  21390185.47246  21390179.98949
 -24749282.35649 -19285127.90747         0.00041  20652996.30047  20652990.86149
 -13856080.34348 -10796915.07346         0.00041  22917305.26246  22917298.32648
    151351.63748    117935.63246         0.00041  23349370.09346  23349362.83548
 -23522832.08849 -18329446.04947         0.00041  20761215.72647  20761210.24649
   -846823.74848   -659859.05646         0.00041  22399883.77146  22399879.16648
  -7608071.11208  -5928364.86108  21471662.13808  21471666.26508         0.00001
 97 05 01 02 19 00.0000000  0  8 03 06 17 21 22 23 26 28
  -3926192.31048  -3059368.89544         0.00041  24568936.78844  24568931.51548
 -19452780.62849 -15157998.12746         0.00041  21404431.79546  21404426.06749
 -24755024.20549 -19289602.07747         0.00041  20651903.66147  20651898.12949
 -13931683.09948 -10855826.23046         0.00041  22902919.25746  22902911.65348
    174894.10348    136280.37946         0.00041  23353850.04146  23353842.76048
 -23546645.84549 -18348002.20947         0.00041  20756684.15447  20756678.54349
   -816535.32448   -636257.68446         0.00041  22405647.42146  22405642.82048
  -7676881.84808  -5981983.60808  21458567.82608  21458571.99108         0.00001
 97 05 01 02 19 30.0000000  0  8 03 06 17 21 22 23 26 28
  -4031194.20748  -3141188.53044         0.00041  24548958.03244  24548950.14348
 -19377492.36449 -15099331.98446         0.00041  21418758.95446  21418753.12249
 -24760548.00449 -19293906.33647         0.00041  20650852.51447  20650847.13649
 -14007040.88048 -10914546.50346         0.00041  22888578.30946  22888571.39248
    198900.20548    154986.39746         0.00041  23358418.11346  23358410.92948
 -23570080.68349 -18366263.10447         0.00041  20752224.66147  20752219.03949
   -785658.93248   -612198.15846         0.00041  22411523.04146  22411518.30748
  -7745316.24708  -6035309.10308  21445545.11808  21445549.36308         0.00001
 97 05 01 02 20 00.0000000  0  8 03 06 17 21 22 23 26 28
  -4136111.46748  -3222942.19544         0.00041  24528993.63044  24528985.19148
 -19301790.17049 -15040343.29546         0.00041  21433164.41046  21433158.81949
 -24765835.25549 -19298026.27147         0.00041  20649846.24647  20649840.82749
 -14082132.91448 -10973059.69946         0.00041  22874288.75346  22874281.79248
    223378.95648    174060.70746         0.00041  23363075.42046  23363069.08648
 -23593118.01349 -18384214.25447         0.00041  20747840.66447  20747835.30949
   -754194.68848   -587680.56746         0.00041  22417510.87146  22417505.71748
  -7813363.85908  -6088333.20708  21432596.09308  21432600.35908         0.00001
 97 05 01 02 20 30.0000000  0  8 03 06 17 21 22 23 26 28
  -4240958.44348  -3304641.08644         0.00041  24509039.93444  24509033.18548
 -19225698.58549 -14981051.19246         0.00041  21447644.25146  21447638.72249
 -24770906.91749 -19301978.21647         0.00041  20648881.31547  20648875.75549
 -14156991.97748 -11031391.36346         0.00041  22860042.92346  22860036.47248
    248290.42248    193472.22446         0.00041  23367816.65346  23367809.69748
 -23615781.54149 -18401874.13147         0.00041  20743527.93147  20743522.48049
   -722165.82548   -562723.00846         0.00041  22423605.52146  22423600.71648
  -7881046.76008  -6141073.12108  21419716.46908  21419720.79008         0.00001
 97 05 01 02 21 00.0000000  0  8 03 06 17 21 22 23 26 28
  -4345765.60948  -3386308.96244         0.00041  24489095.61944  24489089.24048
 -19149248.33649 -14921479.61146         0.00041  21462192.10446  21462186.61549
 -24775810.60949 -19305799.27547         0.00041  20647948.07747  20647942.66349
 -14231671.42148 -11089583.06846         0.00041  22845832.17446  22845825.45848
    273589.47748    213185.74246         0.00041  23372631.49446  23372623.91448
 -23638097.69249 -18419263.32447         0.00041  20739281.24747  20739275.83449
   -689628.84848   -537369.51646         0.00041  22429797.14446  22429792.31648
  -7948405.90908  -6193560.76308  21406898.43008  21406902.75508         0.00001
 97 05 01 02 21 30.0000000  0  8 03 06 17 21 22 23 26 28
  -4450439.04548  -3467872.65744         0.00041  24469177.66844  24469170.52948
 -19072337.02649 -14861548.76046         0.00041  21476828.02446  21476822.41549
 -24780456.27949 -19309419.27947         0.00041  20647064.15347  20647058.64749
 -14306081.82748 -11147565.13746         0.00041  22831672.09746  22831665.49548
    299368.03048    233272.89246         0.00041  23377535.68746  23377529.32548
 -23659978.03249 -18436312.92347         0.00041  20735117.47647  20735112.12349
   -656497.32648   -511552.74646         0.00041  22436101.69646  22436096.98948
  -8015342.81108  -6245719.38008  21394160.76608  21394165.06508         0.00001
 97 05 01 02 22 00.0000000  0  8 03 06 17 21 22 23 26 28
  -4554990.64148  -3549341.40044         0.00041  24449282.59744  24449274.93948
 -18994994.63749 -14801282.00546         0.00041  21491545.87846  21491540.18449
 -24784869.23449 -19312857.94547         0.00041  20646224.37447  20646218.83049
 -14380260.09048 -11205366.31046         0.00041  22817556.75346  22817549.89548
    325588.39948    253704.31546         0.00041  23382526.39546  23382518.97748
 -23681441.64249 -18453037.80047         0.00041  20731033.17047  20731027.64849
   -622806.11248   -485299.85446         0.00041  22442512.91346  22442508.35448
  -8081878.91508  -6297565.68808  21381499.38108  21381503.62908         0.00001
 97 05 01 02 22 30.0000000  0  8 03 06 17 21 22 23 26 28
  -4659396.08148  -3630696.26544         0.00041  24429414.50344  24429407.30148
 -18917223.82649 -14740681.41046         0.00041  21506345.35146  21506339.44549
 -24789047.17649 -19316113.48747         0.00041  20645429.36847  20645423.69649
 -14454214.47048 -11262993.03646         0.00041  22803484.22946  22803476.69348
    352259.71248    274487.12245         0.00041  23387600.31045  23387594.19648
 -23702493.72849 -18469442.00847         0.00041  20727026.96147  20727021.50949
   -588547.89448   -458605.13546         0.00041  22449032.07946  22449027.45148
  -8148009.63608  -6349096.11508  21368915.11108  21368919.36808         0.00001
 97 05 01 02 23 00.0000000  0  8 03 06 17 21 22 23 26 28
  -4763674.82248  -3711952.38644         0.00041  24409570.32644  24409563.65248
 -18839061.37649 -14679775.64646         0.00041  21521219.20946  21521213.35349
 -24793002.12949 -19319195.27147         0.00041  20644676.58947  20644671.23849
 -14527943.80548 -11320444.41246         0.00041  22789453.18246  22789446.47548
    379377.87748    295618.11846         0.00041  23392761.16646  23392754.87548
 -23723135.06249 -18485526.14947         0.00041  20723099.19847  20723093.59649
   -553729.69448   -431474.06946         0.00041  22455657.87346  22455653.02648
  -8213744.44908  -6400318.04008  21356406.19708  21356410.46908         0.00001
 97 05 01 02 23 30.0000000  0  8 03 06 17 21 22 23 26 28
  -4867824.92248  -3793108.31144         0.00041  24389749.78644  24389744.56548
 -18760516.93349 -14618572.22846         0.00041  21536165.50346  21536159.84849
 -24796729.65449 -19322099.83847         0.00041  20643967.31847  20643961.86049
 -14601423.50048 -11377701.25846         0.00041  22775470.71046  22775463.75948
    406952.30448    317104.64546         0.00041  23398009.69346  23398002.10648
 -23743362.82249 -18501288.02647         0.00041  20719249.79347  20719244.35849
   -518322.63448   -403884.15746         0.00041  22462395.26846  22462390.81348
  -8279065.83708  -6451217.81708  21343975.97308  21343980.19108         0.00001
 97 05 01 02 24 00.0000000  0  8 03 06 17 21 22 23 26 28
  -4971853.95048  -3874169.83144         0.00041  24369953.06744  24369948.40748
 -18681603.84149 -14557081.54546         0.00041  21551182.78746  21551176.48449
 -24800245.52649 -19324839.48347         0.00041  20643298.17847  20643292.81149
 -14674650.88348 -11434761.50146         0.00041  22761535.60646  22761528.95748
    434981.44148    338945.49145         0.00041  23403342.76645  23403335.83348
 -23763185.24349 -18516734.05247         0.00041  20715477.78647  20715472.30249
   -482333.78948   -375840.89746         0.00041  22469243.66346  22469239.13648
  -8343981.35408  -6501801.33208  21331622.99508  21331627.16408         0.00001
 97 05 01 02 24 30.0000000  0  8 03 06 17 21 22 23 26 28
  -5075771.16948  -3955144.26744         0.00041  24350179.51644  24350173.76648
 -18602315.07549 -14495298.13146         0.00041  21566270.55646  21566264.67249
 -24803575.91949 -19327434.59747         0.00041  20642664.53147  20642659.10249
 -14747607.30548 -11491610.60446         0.00041  22747652.47046  22747645.71548
    463467.64148    361142.48045         0.00041  23408762.75745  23408756.71048
 -23782616.91549 -18531875.60147         0.00041  20711779.99447  20711774.63649
   -445758.79248   -347340.89946         0.00041  22476203.69846  22476199.15048
  -8408489.97908  -6552067.78808  21319347.33008  21319351.56108         0.00001
 97 05 01 02 25 00.0000000  0  8 03 06 17 21 22 23 26 28
  -5179570.28448  -4036026.66144         0.00041  24330429.90644  24330421.46748
 -18522617.98149 -14433196.54446         0.00041  21581436.25646  21581430.51549
 -24806715.24449 -19329880.82847         0.00041  20642067.26247  20642061.64949
 -14820260.62348 -11548223.52946         0.00041  22733827.11246  22733820.37848
    492413.11648    383697.35745         0.00041  23414271.60245  23414264.84748
 -23801649.03449 -18546705.80947         0.00041  20708158.26747  20708152.96349
   -408582.73048   -318372.54146         0.00041  22483278.09246  22483273.67648
  -8472575.09308  -6602004.23408  21307152.29208  21307156.53108         0.00001
 97 05 01 02 25 30.0000000  0  8 03 06 17 21 22 23 26 28
  -5283256.18648  -4116820.83844         0.00041  24310698.13944  24310690.63048
 -18442499.39449 -14370766.52346         0.00041  21596682.57946  21596676.63949
 -24809687.36849 -19332196.77247         0.00041  20641501.53547  20641496.06049
 -14892629.74548 -11604615.00646         0.00041  22720055.43346  22720048.89948
    521789.71748    406588.17345         0.00041  23419861.85245  23419855.21048
 -23820316.94749 -18561252.22147         0.00041  20704605.80447  20704600.47049
   -370836.07248   -288959.55846         0.00041  22490461.37046  22490456.54848
  -8536254.09008  -6651624.22608  21295034.60808  21295038.79908         0.00001
 97 05 01 02 26 00.0000000  0  8 03 06 17 21 22 23 26 28
  -5386827.71548  -4197525.87944         0.00041  24290988.85944  24290981.73648
 -18361956.77749 -14308006.08646         0.00041  21612009.80646  21612003.37649
 -24812499.03449 -19334387.68147         0.00041  20640966.55847  20640961.11749
 -14964727.48248 -11660795.00946         0.00041  22706335.90146  22706329.03748
    551583.32948    429803.92145         0.00041  23425531.11845  23425524.74948
 -23838625.00349 -18575518.22447         0.00041  20701121.98847  20701116.56949
   -332558.81948   -259133.12646         0.00041  22497744.90546  22497740.40748
  -8599544.86308  -6700941.70408  21282990.75508  21282995.00808         0.00001
 97 05 01 02 26 30.0000000  0  8 03 06 17 21 22 23 26 28
  -5490306.95948  -4278159.04144         0.00041  24271298.31744  24271290.12648
 -18281020.07349 -14244938.56846         0.00041  21627411.12846  21627405.15249
 -24815153.67949 -19336456.23947         0.00041  20640461.38947  20640455.84849
 -15036571.82548 -11716777.57246         0.00041  22692664.16246  22692657.46648
    581754.69748    453314.04045         0.00041  23431272.10045  23431266.26348
 -23856587.43049 -18589514.90547         0.00041  20697703.82247  20697698.45149
   -293767.38148   -228906.03046         0.00041  22505126.94046  22505122.26048
  -8662465.86708  -6749971.05308  21271017.26508  21271021.57808         0.00001
 97 05 01 02 27 00.0000000  0  8 03 06 17 21 22 23 26 28
  -5593700.05148  -4358725.03444         0.00041  24251621.96244  24251615.08948
 -18199703.91149 -14181575.37346         0.00041  21642885.07646  21642879.21149
 -24817620.10249 -19338378.12947         0.00041  20639991.97547  20639986.51949
 -15108182.30948 -11772577.90446         0.00041  22679037.63646  22679030.43848
    612291.49748    477108.89545         0.00041  23437082.90245  23437077.04748
 -23874190.69149 -18603231.71847         0.00041  20694353.93947  20694348.66949
   -254475.45448   -198288.95046         0.00041  22512604.56046  22512599.18148
  -8725368.50008  -6798986.41506  21259115.58508  21259119.65006         0.00001
 97 05 01 02 27 30.0000000  0  7 03 06 17 21 22 23 26
  -5697026.58048  -4439239.18044         0.00041  24231959.45244  24231952.68848
 -18118036.64449 -14117938.58946         0.00041  21658426.28646  21658420.01249
 -24819897.62049 -19340152.81947         0.00041  20639558.51447  20639553.17249
 -15179583.52648 -11828215.17446         0.00041  22665449.32846  22665443.20648
    643194.68748    501189.25945         0.00041  23442964.80145  23442957.85648
 -23891429.81549 -18616664.79047         0.00041  20691073.42147  20691068.10549
   -214714.10348   -167306.07546         0.00041  22520170.51846  22520165.38948
 97 05 01 02 28 00.0000000  0  8 03 06 17 21 22 23 26 28
  -5800290.90548  -4519704.83544         0.00041  24212307.25844  24212302.10248
 -18036034.08249 -14054040.53746         0.00041  21674030.54146  21674024.64749
 -24821962.52649 -19341761.84047         0.00041  20639165.76347  20639160.14949
 -15250771.32648 -11883686.14446         0.00041  22651903.27146  22651896.61748
    674488.24648    525573.79645         0.00041  23448920.14445  23448912.65448
 -23908284.72649 -18629798.47447         0.00041  20687866.15447  20687860.72149
   -174468.45548   -135945.83446         0.00041  22527828.89046  22527824.01148
         0.04218        -0.18718  21235518.38218  21235522.63318         0.00011
 97 05 01 02 28 30.0000000  0  8 03 06 17 21 22 23 26 28
  -5903433.05648  -4600075.32344         0.00041  24192679.77844  24192674.71048
 -17953641.89249 -13989838.87746         0.00041  21689709.56546  21689703.39049
 -24823742.47649 -19343148.81747         0.00041  20638826.83047  20638821.54449
 -15321692.39648 -11938949.26946         0.00041  22638407.31346  22638400.73648
    706246.66248    550320.55945         0.00041  23454961.91645  23454956.17148
 -23924695.90649 -18642586.39347         0.00041  20684743.14547  20684737.76949
   -133646.75148   -104136.71646         0.00041  22535596.49646  22535592.13448
    -61345.39408    -47801.81908  21223844.72108  21223848.99908         0.00001
 97 05 01 02 29 00.0000000  0  8 03 06 17 21 22 23 26 28
  -6006460.00148  -4680356.00644         0.00041  24173076.21644  24173069.44048
 -17870871.46349 -13925342.48646         0.00041  21705460.45546  21705454.17349
 -24825262.26949 -19344333.07147         0.00041  20638537.76247  20638532.31549
 -15392376.30048 -11994027.59946         0.00041  22624956.63946  22624949.96648
    738472.94148    575431.88745         0.00041  23461097.18245  23461088.49448
 -23940691.94749 -18655050.82847         0.00041  20681699.08647  20681693.78049
    -92277.40848    -71900.86146         0.00041  22543469.03846  22543464.42948
   -122243.20408    -95254.65408  21212256.26108  21212260.51108         0.00001
 97 05 01 02 29 30.0000000  0  8 03 06 17 21 22 23 26 28
  -6109342.99048  -4760524.56244         0.00041  24153496.42844  24153491.26348
 -17787705.27049 -13860537.70546         0.00041  21721286.16846  21721280.13049
 -24826520.95649 -19345313.86547         0.00041  20638298.42247  20638292.73349
 -15462806.97648 -12048908.59946         0.00041  22611554.02546  22611547.32848
    771190.51948    600926.06245         0.00041  23467321.43445  23467314.34348
 -23956269.78249 -18667189.38747         0.00041  20678734.75947  20678729.37349
    -50327.65148    -39212.74046         0.00041  22551452.05946  22551447.09248
   -182671.48208   -142341.62008  21200757.13308  21200761.39108         0.00001
 97 05 01 02 30 00.0000000  0  8 03 06 17 21 22 23 26 28
  -6212045.51648  -4840552.46144         0.00041  24133952.79844  24133947.79648
 -17704119.45949 -13795405.95346         0.00041  21737192.02346  21737186.07249
 -24827508.37049 -19346083.28147         0.00041  20638110.34247  20638104.93149
 -15532964.86548 -12103577.04546         0.00041  22598203.24646  22598196.48948
    804395.87148    626800.31345         0.00041  23473639.69645  23473633.38848
 -23971424.18649 -18678998.00147         0.00041  20675850.88847  20675845.65549
     -7767.59748     -6049.06446         0.00041  22559550.54746  22559546.10048
   -242613.34708   -189049.56608  21189350.50408  21189354.81908         0.00001
 97 05 01 02 30 30.0000000  0  8 03 06 17 21 22 23 26 28
  -6314556.04148  -4920430.76144         0.00041  24114446.95444  24114440.65748
 -17620115.41548 -13729948.30146         0.00041  21753177.70346  21753171.50348
 -24828243.78749 -19346656.33847         0.00041  20637970.46947  20637964.98749
 -15602842.27848 -12158026.93946         0.00041  22584906.16246  22584899.23348
    838063.40748    653034.70145         0.00041  23480046.70345  23480040.27548
 -23986161.07949 -18690481.28147         0.00041  20673046.67747  20673041.38349
     35390.93248     27580.96246         0.00041  22567763.28046  22567758.95148
   -302082.61008   -235389.24908  21178033.87608  21178038.20108         0.00001
 97 05 01 02 31 00.0000000  0  8 03 06 17 21 22 23 26 28
  -6416885.99448  -5000168.34444         0.00041  24094971.45344  24094967.98848
 -17535713.83348 -13664180.88246         0.00041  21769238.77946  21769232.58748
 -24828747.42549 -19347048.78947         0.00041  20637874.53447  20637869.17849
 -15672436.90448 -12212256.47646         0.00041  22571662.11546  22571655.79248
    872153.48648    679598.34245         0.00041  23486533.64445  23486527.52448
 -24000500.70549 -18701655.00147         0.00041  20670318.00247  20670312.47249
     79105.03548     61643.89446         0.00041  22576082.04846  22576077.34148
   -361098.23208   -281375.44808  21166803.55208  21166807.89008         0.00001
 97 05 01 02 31 30.0000000  0  8 03 06 17 21 22 23 26 28
  -6519057.22148  -5079782.25744         0.00041  24075531.67744  24075525.53748
 -17450947.92148 -13598129.56746         0.00041  21785369.13046  21785363.06848
 -24829044.45849 -19347280.24447         0.00041  20637818.02147  20637812.58449
 -15741758.63548 -12266273.37146         0.00041  22558471.58746  22558464.39748
    906627.34248    706461.03045         0.00041  23493095.26745  23493087.73548
 -24014467.23749 -18712538.00647         0.00041  20667660.12647  20667654.63349
    123351.33648     96121.53046         0.00041  22584501.70946  22584497.24548
   -419682.07208   -327025.19308  21155655.43208  21155659.74908         0.00001
 97 05 01 02 32 00.0000000  0  8 03 06 17 21 22 23 26 28
  -6621047.05048  -5159254.82444         0.00041  24056123.36544  24056117.37848
 -17365805.46448 -13531784.84446         0.00041  21801571.10246  21801565.15348
 -24829117.87549 -19347337.45947         0.00041  20637804.27647  20637798.66549
 -15810776.34948 -12320053.36546         0.00041  22545337.36546  22545330.72148
    941502.87148    733636.71445         0.00041  23499732.19845  23499724.27348
 -24028044.07349 -18723117.34247         0.00041  20665076.71847  20665071.15149
    168140.79348    131022.41046         0.00041  22593025.03646  22593020.32148
   -477818.86808   -372326.59408  21144592.37608  21144596.67908         0.00001
 97 05 01 02 32 30.0000000  0  8 03 06 17 21 22 23 26 28
  -6722855.05748  -5238585.69244         0.00041  24036749.90844  24036744.02948
 -17280288.89748 -13465148.60046         0.00041  21817844.52446  21817838.48448
 -24828960.35449 -19347214.71947         0.00041  20637834.02447  20637828.54549
 -15879489.62448 -12373596.13346         0.00041  22532261.47946  22532255.01248
    976790.06648    761133.18145         0.00041  23506446.23945  23506439.21448
 -24041229.04549 -18733391.33447         0.00041  20662567.50747  20662562.07349
    213481.36648    166352.72646         0.00041  22601653.29546  22601648.25848
   -535499.71408   -417272.70908  21133616.11508  21133620.35808         0.00001
 97 05 01 02 33 00.0000000  0  8 03 06 17 21 22 23 26 28
  -6824478.27748  -5317772.57744         0.00041  24017412.55044  24017405.69248
 -17194388.81748 -13398213.51946         0.00041  21834190.67946  21834184.70648
 -24828560.65249 -19346903.26647         0.00041  20637910.23547  20637904.52149
 -15947910.18648 -12426910.81446         0.00041  22519241.25646  22519235.01148
   1012494.25848    788954.57445         0.00041  23513239.94345  23513233.59448
 -24054020.88049 -18743358.98647         0.00041  20660133.22047  20660127.89149
    259392.20248    202127.40546         0.00041  22610389.92246  22610384.99448
   -592711.55508   -461853.36808  21122729.12208  21122733.29208         0.00001
 97 05 01 02 33 30.0000000  0  8 03 06 17 21 22 23 26 28
  -6925989.83148  -5396872.45144         0.00041  23998095.24044  23998088.71548
 -17108179.43648 -13331037.41946         0.00041  21850595.98946  21850589.89148
 -24828001.29149 -19346467.40847         0.00041  20638016.74547  20638011.03249
 -16016129.12048 -12480068.38446         0.00041  22506259.59146  22506253.37248
   1048539.47248    817041.70545         0.00041  23520100.54445  23520092.87948
 -24066481.66249 -18753068.67547         0.00041  20657761.98147  20657756.62049
    305813.48348    238299.83546         0.00041  22619223.32046  22619218.69048
   -649531.98308   -506129.02708  21111916.57808  21111920.73108         0.00001
 97 05 01 02 34 00.0000000  0  8 03 06 17 21 22 23 26 28
  -7027432.10148  -5475918.33144         0.00041  23978790.25044  23978784.81848
 -17021693.36348 -13263645.71546         0.00041  21867054.16246  21867047.68848
 -24827323.30749 -19345939.11347         0.00041  20638145.66647  20638140.14749
 -16084184.12848 -12533098.21646         0.00041  22493308.93346  22493303.01648
   1084883.12148    845361.36345         0.00041  23527016.68245  23527008.86948
 -24078640.87249 -18762543.37347         0.00041  20655448.15947  20655442.85549
    352711.20248    274843.50946         0.00041  22628147.66546  22628142.98348
   -706002.28908   -550131.86108  21101170.56208  21101174.77608         0.00001
 97 05 01 02 34 30.0000000  0  8 03 06 17 21 22 23 26 28
  -7128639.39848  -5554781.12044         0.00041  23959532.48044  23959525.65148
 -16934753.61548 -13195900.50046         0.00041  21883598.00046  21883591.79548
 -24826349.37849 -19345180.21247         0.00041  20638331.19647  20638325.45849
 -16151909.40748 -12585871.11946         0.00041  22480421.93846  22480415.36248
   1121677.35048    874032.14745         0.00041  23534016.66145  23534010.62748
 -24090325.09549 -18771647.95247         0.00041  20653224.83047  20653219.45349
    400247.87348    311885.08646         0.00041  22637193.38046  22637188.92848
   -761950.16008   -593727.60408  21090523.97708  21090528.22008         0.00001
 97 05 01 02 35 00.0000000  0  8 03 06 17 21 22 23 26 28
  -7229658.36348  -5633497.17545         0.00041  23940307.69745  23940302.45448
 -16847402.47848 -13127834.72346         0.00041  21900220.42346  21900214.04448
 -24825122.54849 -19344224.24747         0.00041  20638564.46047  20638558.88849
 -16219342.85648 -12638416.62446         0.00041  22467589.41646  22467583.09348
   1158880.88248    903021.86145         0.00041  23541096.74145  23541090.04948
 -24101581.67649 -18780419.30347         0.00041  20651082.76547  20651077.42549
    448367.11448    349380.59646         0.00041  22646350.21646  22646345.58448
   -817422.02208   -636952.43108  21079968.08008  21079972.29108         0.00001
 97 05 01 02 35 30.0000000  0  8 03 06 17 21 22 23 26 28
  -7330516.66248  -5712088.02444         0.00041  23921115.14244  23921109.80648
 -16759669.64448 -13059471.51346         0.00041  21916915.27646  21916909.19048
 -24823658.99349 -19343083.81647         0.00041  20638843.08047  20638837.39949
 -16286499.70748 -12690746.59546         0.00041  22454810.40746  22454803.67148
   1196484.21948    932323.10245         0.00041  23548254.02745  23548245.83648
 -24112447.23749 -18788885.96547         0.00041  20649015.02347  20649009.71949
    497024.92348    387295.77246         0.00041  22655610.08146  22655604.94448
   -872443.66408   -679826.43808  21069497.83508  21069502.04908         0.00001
 97 05 01 02 36 00.0000000  0  8 03 06 17 21 22 23 26 28
  -7431322.11248  -5790637.70244         0.00041  23901931.98044  23901927.02548
 -16671667.25748 -12990898.26846         0.00041  21933661.36346  21933655.55548
 -24822063.05549 -19341840.23247         0.00041  20639146.69247  20639141.09049
 -16353494.51348 -12742950.30246         0.00041  22442061.43646  22442054.81248
   1234385.86448    961856.81345         0.00041  23555464.92245  23555458.16248
 -24123046.67649 -18797145.26047         0.00041  20646997.99647  20646992.63749
    546103.47948    425538.80346         0.00041  22664948.37146  22664944.24548
   -927115.98608   -722428.24508  21059094.01908  21059098.25308         0.00001
 97 05 01 02 36 30.0000000  0  8 03 06 17 21 22 23 26 28
  -7531939.95548  -5869041.19244         0.00041  23882784.91044  23882780.05048
 -16583268.57448 -12922016.22246         0.00041  21950483.42246  21950477.23248
 -24820200.44749 -19340388.85347         0.00041  20639500.94947  20639495.51249
 -16420215.43848 -12794940.59446         0.00041  22429364.62246  22429358.08948
   1272715.48448    991723.98945         0.00041  23562758.71645  23562752.05448
 -24133254.43149 -18805099.34647         0.00041  20645055.61547  20645050.23149
    595716.16048    464198.03446         0.00041  22674389.88046  22674385.34148
   -981301.38908   -764650.63408  21048782.87508  21048787.10408         0.00001
 97 05 01 02 37 00.0000000  0  8 03 06 17 21 22 23 26 28
  -7632404.46548  -5947325.21045         0.00041  23863668.13145  23863662.19648
 -16494516.99248 -12852859.18946         0.00041  21967372.30846  21967366.10848
 -24818109.75249 -19338759.74647         0.00041  20639899.03147  20639893.37849
 -16486695.17848 -12846742.94946         0.00041  22416713.90046  22416707.43148
   1311454.00748   1021909.80245         0.00041  23570129.96045  23570123.91648
 -24143106.78049 -18812776.49347         0.00041  20643180.95547  20643175.39749
    645830.32748    503248.03846         0.00041  22683926.25046  22683921.49348
  -1035027.48708   -806515.12008  21038559.13808  21038563.34608         0.00001
 97 05 01 02 37 30.0000000  0  8 03 06 17 21 22 23 26 28
  -7732692.68648  -6025471.84045         0.00041  23844583.69145  23844578.01948
 -16405412.08248 -12783426.83846         0.00041  21984328.34446  21984322.18448
 -24815785.53449 -19336948.67347         0.00041  20640341.20847  20640335.59849
 -16552920.76848 -12898347.26946         0.00041  22404111.78246  22404105.06348
   1350602.25948   1052414.86945         0.00041  23577578.88745  23577573.62148
 -24152576.33149 -18820155.35547         0.00041  20641378.72047  20641373.28849
    696464.99648    542703.62846         0.00041  22693561.96946  22693556.98748
  -1088272.74808   -848004.92808  21028426.89808  21028431.07108         0.00001
 97 05 01 02 38 00.0000000  0  8 03 06 17 21 22 23 26 28
  -7832800.73548  -6103478.10844         0.00041  23825535.57644  23825527.91148
 -16315960.40948 -12713724.27646         0.00041  22001350.56046  22001344.46748
 -24813243.87849 -19334968.16347         0.00041  20640824.66447  20640819.33049
 -16618893.45748 -12949754.51946         0.00041  22391557.48046  22391550.82748
   1390136.94548   1083221.05945         0.00041  23585105.34145  23585096.90148
 -24161654.53249 -18827229.27047         0.00041  20639651.07447  20639645.81349
    747612.63248    582558.92946         0.00041  22703294.36846  22703290.03648
  -1141037.62708   -889120.41108  21018386.04708  21018390.28608         0.00001
 97 05 01 02 38 30.0000000  0  8 03 06 17 21 22 23 26 28
  -7932714.40348  -6181332.90244         0.00041  23806520.07944  23806514.81648
 -16226153.29748 -12643744.75346         0.00041  22018440.07846  22018434.15048
 -24810470.71749 -19332807.26147         0.00041  20641352.63747  20641347.03749
 -16684586.32848 -13000943.72946         0.00041  22379056.72546  22379049.84848
   1430062.18448   1114331.58745         0.00041  23592701.32045  23592694.59348
 -24170333.78149 -18833992.31147         0.00041  20637999.53947  20637994.22549
    799284.02948    622822.35646         0.00041  22713127.68346  22713122.75848
  -1193309.70208   -929851.88908  21008438.93708  21008443.25908         0.00001
 97 05 01 02 39 00.0000000  0  8 03 06 17 21 22 23 26 28
  -8032426.61948  -6259030.69944         0.00041  23787546.22244  23787540.13248
 -16135995.52848 -12573491.99146         0.00041  22035596.95346  22035590.67948
 -24807470.54149 -19330469.45947         0.00041  20641923.55747  20641917.98349
 -16749991.96348 -13051909.12346         0.00041  22366609.94046  22366603.57148
   1470378.92048   1145747.16945         0.00041  23600374.29945  23600366.71448
 -24178627.57849 -18840454.99947         0.00041  20636421.16847  20636415.88349
    851493.06448    663504.72746         0.00041  22723063.08346  22723058.01548
  -1245088.33308   -970198.86508  20998585.84208  20998590.12308         0.00001
 97 05 01 02 39 30.0000000  0  8 03 06 17 21 22 23 26 28
  -8131930.81148  -6336566.40745         0.00041  23768611.57945  23768605.30748
 -16045479.75348 -12502960.26446         0.00041  22052821.38746  22052815.30048
 -24804252.08549 -19327961.57247         0.00041  20642535.98747  20642530.43649
 -16815113.00248 -13102652.75046         0.00041  22354218.01646  22354211.49348
   1511068.67148   1177453.40245         0.00041  23608116.94145  23608109.55248
 -24186535.82249 -18846617.25547         0.00041  20634916.26747  20634910.99249
    904221.10248    704591.51246         0.00041  22733096.69646  22733091.85948
  -1296379.26908  -1010165.82008  20988825.57608  20988829.76208         0.00001
 97 05 01 02 40 00.0000000  0  8 03 06 17 21 22 23 26 28
  -8231236.37448  -6413947.37345         0.00041  23749713.24645  23749708.12848
 -15954601.52348 -12432146.10646         0.00041  22070115.13146  22070108.87048
 -24800818.24649 -19325285.85347         0.00041  20643189.62447  20643183.86649
 -16879957.98548 -13153181.27246         0.00041  22341878.52346  22341871.93148
   1552126.19948   1209446.23045         0.00041  23615929.26445  23615922.59048
 -24194087.54149 -18852501.70047         0.00041  20633479.20247  20633474.00449
    957446.50748    746065.85146         0.00041  22743224.41146  22743220.22248
  -1347194.50708  -1049762.10108  20979155.76508  20979159.94308         0.00001
 97 05 01 02 40 30.0000000  0  8 03 06 17 21 22 23 26 28
  -8330337.32448  -6491168.86945         0.00041  23730856.60645  23730849.79748
 -15863354.00348 -12361044.18846         0.00041  22087478.70546  22087472.70748
 -24797158.96549 -19322434.46747         0.00041  20643885.73447  20643880.23749
 -16944518.38248 -13203488.03246         0.00041  22329592.81346  22329586.47348
   1593568.98848   1241739.25045         0.00041  23623815.22645  23623809.07348
 -24201287.34749 -18858111.92547         0.00041  20632109.18047  20632103.91749
   1011186.08748    787940.84546         0.00041  22753451.25746  22753446.49448
  -1397524.43808  -1088980.22008  20969578.27508  20969582.47908         0.00001
 97 05 01 02 41 00.0000000  0  8 03 06 17 21 22 23 26 28
  -8429218.01748  -6568218.74045         0.00041  23712039.38545  23712033.52348
 -15771723.56148 -12289643.88346         0.00041  22104915.63146  22104909.46048
 -24793262.45349 -19319398.22547         0.00041  20644627.13047  20644621.65049
 -17008785.42948 -13253566.21346         0.00041  22317362.97046  22317356.79648
   1635408.63548   1274341.51745         0.00041  23631777.69445  23631770.89148
 -24208109.64449 -18863427.98947         0.00041  20630810.93547  20630805.67949
   1065459.36648    830231.71846         0.00041  22763778.71246  22763774.39348
  -1447356.38908  -1127810.30408  20960095.52008  20960099.75208         0.00001
 97 05 01 02 41 30.0000000  0  8 03 06 17 21 22 23 26 28
  -8527925.46148  -6645133.60945         0.00041  23693255.53245  23693250.29248
 -15679752.64548 -12217978.27946         0.00041  22122417.27446  22122411.00348
 -24789155.81649 -19316198.25047         0.00041  20645408.86047  20645403.12449
 -17072790.73848 -13303440.44046         0.00041  22305183.26646  22305176.89048
   1677599.32448   1307217.31545         0.00041  23639806.93545  23639799.54648
 -24214584.38449 -18868473.22847         0.00041  20629578.95447  20629573.51449
   1120223.08948    872904.75646         0.00041  22774200.23546  22774195.59148
  -1496729.26208  -1166282.66708  20950700.16708  20950704.39208         0.00001
 97 05 01 02 42 00.0000000  0  8 03 06 17 21 22 23 26 28
  -8626522.14948  -6721962.15745         0.00041  23674493.15245  23674487.91348
 -15587528.80748 -12146115.58446         0.00041  22139966.97746  22139960.57048
 -24784879.41449 -19312865.98947         0.00041  20646222.42447  20646216.94049
 -17136608.49648 -13353168.52146         0.00041  22293039.35146  22293032.76648
   1720085.26948   1340323.18845         0.00041  23647891.99045  23647884.31848
 -24220783.47049 -18873303.67247         0.00041  20628399.03147  20628393.79849
   1175442.76348    915933.07146         0.00041  22784707.78646  22784703.64248
  -1545698.60408  -1204440.58908  20941381.62008  20941385.79608         0.00001
 97 05 01 02 42 30.0000000  0  8 03 06 17 21 22 23 26 28
  -8724925.21348  -6798639.82945         0.00041  23655768.37845  23655762.47748
 -15494986.76948 -12074004.94646         0.00041  22157576.77146  22157570.80448
 -24780338.44349 -19309327.57147         0.00041  20647086.74047  20647081.16049
 -17200166.28348 -13402694.02746         0.00041  22280944.23446  22280938.03348
   1762937.72548   1373714.64045         0.00041  23656045.34945  23656038.90148
 -24226616.01649 -18877848.49947         0.00041  20627289.26047  20627283.95449
   1231216.90948    959393.44046         0.00041  22795321.85046  22795317.08048
  -1594176.21208  -1242215.34208  20932156.62908  20932160.78408         0.00001
 97 05 01 02 43 00.0000000  0  8 03 06 17 21 22 23 26 28
  -8823160.92248  -6875187.09545         0.00041  23637075.43245  23637068.86748
 -15402169.31348 -12001679.69846         0.00041  22175239.94946  22175233.41648
 -24775557.22049 -19305601.94047         0.00041  20647996.35447  20647990.91549
 -17263500.07548 -13452044.99646         0.00041  22268892.36146  22268886.00648
   1806112.81548   1407357.50445         0.00041  23664262.59245  23664254.89448
 -24232102.06549 -18882123.33047         0.00041  20626245.44647  20626240.05049
   1287507.72448   1003256.41546         0.00041  22806033.14246  22806028.72948
  -1642191.78808  -1279630.07508  20923019.55108  20923023.71908         0.00001
 97 05 01 02 43 30.0000000  0  8 03 06 17 21 22 23 26 28
  -8921182.33148  -6951567.36845         0.00041  23618420.81645  23618415.83048
 -15309035.51348 -11929107.95146         0.00041  22192962.55446  22192956.17548
 -24770485.40049 -19301649.87247         0.00041  20648961.60547  20648956.00149
 -17326564.96148 -13501186.42846         0.00041  22256891.03646  22256885.19748
   1849657.00148   1441287.97445         0.00041  23672549.11245  23672541.20848
 -24237201.63549 -18886097.00747         0.00041  20625274.81347  20625269.57149
   1344341.41548   1047542.41046         0.00041  22816847.91146  22816843.89248
  -1689692.08608  -1316643.29108  20913980.50208  20913984.76208         0.00001
 97 05 01 02 44 00.0000000  0  7 03 06 17 21 23 26 28
  -9019007.16448  -7027794.46345         0.00041  23599806.30145  23599800.26748
 -15215612.03948 -11856310.47946         0.00041  22210740.39846  22210733.99448
 -24765158.54049 -19297499.07347         0.00041  20649975.29347  20649969.62449
 -17389384.14148 -13550136.39746         0.00041  22244937.49546  22244931.06248
 -24241938.62949 -18889788.15847         0.00041  20624373.30247  20624368.09549
   1401679.60648   1092221.51646         0.00041  22827759.04746  22827754.79148
  -1736698.53708  -1353271.69208  20905035.45308  20905039.75608         0.00001
 97 05 01 02 44 30.0000000  0  8 01 03 06 17 21 23 26 28
         0.15358         0.00051         0.00051         0.00051  25232083.19358
  -9116608.51648  -7103847.40845         0.00041  23581234.47545  23581227.35948
 -15121853.41448 -11783251.85946         0.00041  22228582.17046  22228575.75448
 -24759583.06749 -19293154.55047         0.00041  20651036.20147  20651030.59049
 -17451913.30748 -13598860.38446         0.00041  22233038.67646  22233032.08848
 -24246271.90649 -18893164.72547         0.00041  20623548.82947  20623543.45549
   1459517.96048   1137290.36046         0.00041  22838765.61846  22838761.18448
  -1783187.05508  -1389496.51008  20896189.02508  20896193.25808         0.00001
 97 05 01 02 45 00.0000000  0  8 01 03 06 17 21 23 26 28
   -109095.62148         0.00041         0.00041         0.00041  25211322.35648
  -9213995.58048  -7179733.38245         0.00041  23562701.37745  23562695.16848
 -15027753.27948 -11709927.12246         0.00041  22246489.05246  22246482.50648
 -24753790.73849 -19288641.04847         0.00041  20652138.44547  20652132.83249
 -17514147.09348 -13647354.20546         0.00041  22221195.81546  22221189.40848
 -24250203.28949 -18896228.12847         0.00041  20622800.54147  20622795.33449
   1517825.69848   1182724.95946         0.00041  22849861.05546  22849856.75148
  -1829167.23008  -1425325.21709  20887439.31008  20887443.50309         0.00001
 97 05 01 02 45 30.0000000  0  8 01 03 06 17 21 23 26 28
   -218222.29648         0.00041         0.00041         0.00041  25190555.90948
  -9311133.51848  -7255425.22845         0.00041  23544215.50545  23544210.24948
 -14933276.22648 -11636308.69546         0.00041  22264467.50046  22264460.81948
 -24747764.62849 -19283945.38047         0.00041  20653285.31047  20653279.61849
 -17576054.63948 -13695593.81346         0.00041  22209414.91446  22209408.68348
 -24253718.19249 -18898967.00147         0.00041  20622131.59247  20622126.42249
   1576624.35748   1228542.09546         0.00041  22861050.75046  22861045.64348
  -1874614.61108  -1460738.76109  20878790.95408  20878795.15809         0.00001
 97 05 01 02 46 00.0000000  0  8 01 03 06 17 21 23 26 28
   -327403.04848         0.00041         0.00041         0.00041  25169779.46048
  -9408026.21648  -7330925.98345         0.00041  23525777.24045  23525772.04948
 -14838438.69448 -11562409.36646         0.00041  22282514.36746  22282507.87048
 -24741532.14849 -19279088.90147         0.00041  20654471.21147  20654465.53349
 -17637654.57548 -13743593.72946         0.00041  22197692.93146  22197686.55448
 -24256842.29849 -18901401.35647         0.00041  20621537.29647  20621532.04249
   1635913.67448   1274741.56446         0.00041  22872332.12446  22872328.02848
  -1919547.59408  -1495751.47709  20870240.46108  20870244.70509         0.00001
 97 05 01 02 46 30.0000000  0  8 01 03 06 17 21 23 26 28
   -436639.02348         0.00041         0.00041         0.00041  25148992.18148
  -9504680.66448  -7406241.09445         0.00041  23507384.97245  23507379.28048
 -14743260.49348 -11488244.58446         0.00041  22300626.37646  22300619.77548
 -24735101.89649 -19274078.31447         0.00041  20655694.74747  20655689.20249
 -17698975.74548 -13791376.42646         0.00041  22186023.99946  22186017.53548
 -24259595.52949 -18903546.71647         0.00041  20621013.14847  20621008.03049
   1695692.49948   1321322.46946         0.00041  22883708.40846  22883703.70448
  -1963978.02408  -1530372.59309  20861785.65408  20861789.85409         0.00001
 97 05 01 02 47 00.0000000  0  8 01 03 06 17 21 23 26 28
   -545935.02148         0.00041         0.00041         0.00041  25128193.47648
  -9601073.95748  -7481352.70745         0.00041  23489041.85745  23489036.24748
 -14647750.70948 -11413821.42346         0.00041  22318801.34446  22318794.77348
 -24728432.89249 -19268881.68947         0.00041  20656963.87247  20656958.31349
 -17760019.33648 -13838942.82346         0.00041  22174407.21446  22174401.14148
 -24261987.28949 -18905410.41247         0.00041  20620558.15547  20620552.86149
   1755981.61948   1368300.99346         0.00041  22895180.66946  22895176.41248
  -2007888.19108  -1564588.31009  20853429.79508  20853434.04209         0.00001
 97 05 01 02 47 30.0000000  0  8 01 03 06 17 21 23 26 28
   -655329.86048   -510644.03244         0.00041  25107384.65944  25107375.97148
  -9697215.16948  -7556267.90245         0.00041  23470746.56845  23470741.19148
 -14551945.98948 -11339168.43946         0.00041  22337031.98546  22337025.90548
 -24721527.88249 -19263501.16147         0.00041  20658277.72247  20658272.29249
 -17820815.08248 -13886316.09646         0.00041  22162838.67646  22162831.99548
 -24264050.51649 -18907018.10947         0.00041  20620165.56547  20620160.26949
   1816781.19748   1415677.29246         0.00041  22906750.65146  22906746.07048
  -2051294.77108  -1598411.62109  20845169.78608  20845174.05609         0.00001
 97 05 01 02 48 00.0000000  0  8 01 03 06 17 21 23 26 28
   -764821.39348         0.00041         0.00041         0.00041  25086539.96848
  -9793123.16248  -7631001.37845         0.00041  23452497.43245  23452490.49148
 -14455863.04848 -11264298.66646         0.00041  22355316.37846  22355309.85648
 -24714386.27149 -19257936.26747         0.00041  20659636.78447  20659631.25749
 -17881382.50548 -13933511.46146         0.00041  22151313.16846  22151306.48348
 -24265786.15149 -18908370.54147         0.00041  20619835.25947  20619829.85549
   1878079.19148   1463441.96046         0.00041  22918415.01446  22918410.72648
  -2094202.66008  -1631846.33909  20837004.71008  20837008.94209         0.00001
 97 05 01 02 48 30.0000000  0  8 01 03 06 17 21 23 26 28
   -874416.92548         0.00041         0.00041         0.00041  25065684.23048
  -9888816.96748  -7705567.95245         0.00041  23434286.03345  23434280.39848
 -14359509.32148 -11189217.89346         0.00041  22373651.99246  22373645.37048
 -24707001.91549 -19252182.22147         0.00041  20661041.80847  20661036.42549
 -17941729.25048 -13980534.86046         0.00041  22139829.26446  22139822.89448
 -24267191.42649 -18909465.54847         0.00041  20619567.81447  20619562.54849
   1939851.99048   1511576.60246         0.00041  22930171.08846  22930165.75148
  -2136612.76208  -1664893.17309  20828934.36808  20828938.55009         0.00001
 97 05 01 02 49 00.0000000  0  8 01 03 06 17 21 23 26 28
   -984099.52848         0.00041         0.00041         0.00041  25044812.05948
  -9984287.66048  -7779960.68645         0.00041  23416118.50845  23416112.97348
 -14262863.24848 -11113909.30646         0.00041  22392042.32546  22392036.40648
 -24699363.84949 -19246230.48147         0.00041  20662495.46047  20662489.96449
 -18001819.83848 -14027358.65746         0.00041  22128394.30046  22128388.11148
 -24268252.24249 -18910292.14647         0.00041  20619366.05047  20619360.71049
   2002102.55848   1560083.53846         0.00041  22942016.38546  22942011.65448
  -2178509.32608  -1697539.84609  20820961.71908  20820965.90409         0.00001
 97 05 01 02 49 30.0000000  0  8 01 03 06 17 21 23 26 28
  -1093855.27448   -852350.32344         0.00041  25023935.24744  25023925.81448
 -10079548.91948  -7854190.23345         0.00041  23397991.20745  23397985.14348
 -14165911.28848 -11038362.36946         0.00041  22410492.40146  22410485.91448
 -24691492.16849 -19240096.70447         0.00041  20663993.51947  20663987.81149
 -18061655.50248 -14073983.81246         0.00041  22117007.75346  22117001.66148
 -24268972.04749 -18910853.02447         0.00041  20619228.84947  20619223.67149
   2064818.55948   1608953.14246         0.00041  22953950.98146  22953946.06348
  -2219904.04508  -1729795.47009  20813084.58008  20813088.75909         0.00001
 97 05 01 02 50 00.0000000  0  8 01 03 06 17 21 23 26 28
  -1203651.27348   -937905.17641         0.00041         0.00041  25003032.06548
 -10174584.74848  -7928244.11745         0.00041  23379904.99445  23379900.40848
 -14068633.19548 -10962561.29546         0.00041  22429004.16046  22428997.32848
 -24683369.46149 -19233767.32147         0.00041  20665538.99147  20665533.57749
 -18121208.48348 -14120388.69946         0.00041  22105675.20246  22105669.14548
 -24269331.24449 -18911132.90847         0.00041  20619160.54047  20619155.33249
   2127997.59248   1658183.55746         0.00041  22965973.76246  22965968.68448
  -2260774.31108  -1761642.42909  20805307.24608  20805311.44209         0.00001
 97 05 01 02 50 30.0000000  0  8 01 03 06 17 21 23 26 28
  -1313477.86548         0.00041         0.00041         0.00041  24982132.42348
 -10269383.81348  -8002113.51045         0.00041  23361866.33045  23361860.86348
 -13971031.28248 -10886507.90446         0.00041  22447576.69446  22447570.29248
 -24674989.30149 -19227237.32747         0.00041  20667133.73047  20667128.31349
 -18180458.27548 -14166557.32946         0.00041  22094400.95046  22094394.28548
 -24269335.82549 -18911136.47047         0.00041  20619159.69247  20619154.40549
   2191650.70248   1707783.37246         0.00041  22978085.95846  22978081.38848
  -2301112.36808  -1793074.67809  20797631.13008  20797635.31409         0.00001
 97 05 01 02 51 00.0000000  0  8 01 03 06 17 21 23 26 28
  -1423335.11548         0.00041         0.00041         0.00041  24961227.03148
 -10363951.17748  -8075802.36245         0.00041  23343872.42245  23343865.36748
 -13873124.14448 -10810216.67146         0.00041  22466208.04446  22466201.41848
 -24666365.57649 -19220517.54147         0.00041  20668774.76547  20668769.28049
 -18239409.15848 -14212493.04546         0.00041  22083182.10046  22083176.14948
 -24269001.29949 -18910875.79047         0.00041  20619223.42847  20619218.09849
   2255772.58848   1757748.47946         0.00041  22990288.36146  22990283.51348
  -2340934.81408  -1824105.14909  20790053.10908  20790057.31309         0.00001
 97 05 01 02 51 30.0000000  0  8 01 03 06 17 21 23 26 28
  -1533231.14548         0.00041         0.00041         0.00041  24940314.38948
 -10458268.09748  -8149296.06645         0.00041  23325922.56245  23325917.56748
 -13774916.54248 -10733691.31746         0.00041  22484896.57046  22484889.83948
 -24657488.61249 -19213600.42847         0.00041  20670464.06847  20670458.50749
 -18298071.86249 -14258204.19946         0.00041  22072019.60946  22072013.09849
 -24268328.34449 -18910351.39947         0.00041  20619351.34947  20619346.17249
   2320362.80348   1808078.50846         0.00041  23002578.91846  23002574.70948
  -2380233.71708  -1854727.66609  20782574.71308  20782578.98409         0.00001
 97 05 01 02 52 00.0000000  0  8 01 03 06 17 21 23 26 28
  -1643181.12248  -1280394.15644         0.00041  24919396.87444  24919391.02048
 -10552349.47148  -8222606.21945         0.00041  23308019.26745  23308014.43448
 -13676455.13348 -10656968.17846         0.00041  22503633.57046  22503626.40748
 -24648369.40849 -19206494.55647         0.00041  20672199.52647  20672193.92449
 -18356466.35449 -14303706.36446         0.00041  22060907.36746  22060900.95549
 -24267332.17549 -18909575.15447         0.00041  20619541.06247  20619535.66749
   2385408.45148   1858763.42746         0.00041  23014957.44846  23014952.28848
  -2419019.41308  -1884950.28009  20775194.07508  20775198.32309         0.00001
 97 05 01 02 52 30.0000000  0  8 01 03 06 17 21 23 26 28
  -1753173.88248         0.00041         0.00041         0.00041  24898459.97848
 -10646162.60848  -8295707.37545         0.00041  23290167.30045  23290162.46148
 -13577721.21448 -10580032.69846         0.00041  22522420.89446  22522414.81648
 -24638992.32949 -19199187.74347         0.00041  20673983.84447  20673978.19049
 -18414570.49549 -14348982.27946         0.00041  22049850.26446  22049844.20249
 -24265995.00349 -18908533.19247         0.00041  20619795.51747  20619790.11549
   2450944.01248   1909830.10046         0.00041  23027427.84246  23027423.31548
  -2457273.01008  -1914758.27309  20767914.69408  20767918.88609         0.00001
 97 05 01 02 53 00.0000000  0  8 01 03 06 17 21 23 26 28
  -1863219.93948  -1451852.18244         0.00041  24877528.84544  24877518.66848
 -10739699.87548  -8368593.55045         0.00041  23272367.53745  23272362.99748
 -13478717.48348 -10502886.97146         0.00041  22541261.04146  22541254.48048
 -24629373.79049 -19191692.78047         0.00041  20675814.25347  20675808.63749
 -18472405.53249 -14394048.49946         0.00041  22038844.73746  22038838.53549
 -24264321.46449 -18907229.12747         0.00041  20620113.94147  20620108.65549
   2516959.39148   1961270.63846         0.00041  23039990.04946  23039985.69948
  -2495000.29008  -1944156.14909  20760735.42608  20760739.59209         0.00001
 97 05 01 02 53 30.0000000  0  8 01 03 06 17 21 23 26 28
  -1973318.23848         0.00041         0.00041         0.00041  24856567.31848
 -10832955.33448  -8441260.14145         0.00041  23254622.08545  23254616.99248
 -13379441.89748 -10425529.42046         0.00041  22560153.16746  22560146.18048
 -24619513.45049 -19184009.39847         0.00041  20677690.52147  20677684.98649
 -18529982.82649 -14438913.88446         0.00041  22027888.31046  22027881.81849
 -24262312.76149 -18905663.89347         0.00041  20620496.15347  20620490.87949
   2583448.28748   2013080.16846         0.00041  23052643.08746  23052638.03048
  -2532196.06208  -1973139.86209  20753657.30408  20753661.48809         0.00001
 97 05 01 02 54 00.0000000  0  8 01 03 06 17 21 23 26 28
  -2083468.37348  -1623473.57044         0.00041  24835616.39644  24835606.21948
 -10925939.16048  -8513715.04045         0.00041  23236928.32745  23236922.51048
 -13279889.83748 -10347956.42346         0.00041  22579096.99946  22579090.30948
 -24609411.20549 -19176137.52047         0.00041  20679612.91147  20679607.34049
 -18587293.61549 -14483571.60046         0.00041  22016982.19246  22016975.81249
 -24259964.11849 -18903833.77047         0.00041  20620943.02447  20620937.73349
   2650420.82248   2065266.55246         0.00041  23065387.85546  23065382.75348
  -2568860.88808  -2001709.85209  20746680.19608  20746684.42909         0.00001
 97 05 01 02 54 30.0000000  0  8 01 03 06 17 21 23 26 28
  -2193681.73548         0.00041         0.00041         0.00041  24814633.04148
 -11018653.34148  -8585959.84045         0.00041  23219284.94945  23219279.55548
 -13180049.54648 -10270158.82846         0.00041  22598096.16346  22598089.34348
 -24599069.65449 -19168079.16847         0.00041  20681580.85447  20681575.17649
 -18644342.06349 -14528024.90046         0.00041  22006126.09046  22006119.71849
 -24257268.53649 -18901733.30647         0.00041  20621455.97047  20621450.69449
   2717863.28148   2117819.12046         0.00041  23078220.82346  23078216.43048
  -2604995.32908  -2029866.55409  20739804.05808  20739808.27909         0.00001
 97 05 01 02 55 00.0000000  0  8 01 03 06 17 21 23 26 28
  -2303981.82548         0.00041         0.00041         0.00041  24793643.55648
 -11111148.19948  -8658033.74445         0.00041  23201683.51845  23201678.42848
 -13079957.60148 -10192165.14246         0.00041  22617143.67846  22617136.30548
 -24588521.42449 -19159859.76947         0.00041  20683588.09547  20683582.47349
 -18701176.51349 -14572311.44446         0.00041  21995310.89846  21995304.58249
 -24254252.49949 -18899383.13547         0.00041  20622029.87647  20622024.67049
   2785715.58648   2170691.03646         0.00041  23091133.43246  23091128.37648
  -2640631.80008  -2057635.22909  20733022.69408  20733026.86809         0.00001
 97 05 01 02 55 30.0000000  0  8 01 03 06 17 21 23 26 28
  -2414305.29048         0.00041         0.00041         0.00041  24772649.28448
 -11203361.53548  -8729888.26445         0.00041  23184136.29145  23184130.93648
 -12979545.16548 -10113921.72546         0.00041  22636250.32346  22636244.20848
 -24577693.82049 -19151422.67647         0.00041  20685648.57147  20685643.01249
 -18757714.41249 -14616366.91246         0.00041  21984552.06846  21984545.76649
 -24250853.60649 -18896734.63547         0.00041  20622676.62547  20622671.39849
   2854035.64448   2223927.44746         0.00041  23104133.17746  23104129.19748
  -2675699.13308  -2084960.42109  20726349.56408  20726353.75709         0.00001
 97 05 01 02 56 00.0000000  0  8 01 03 06 17 21 23 26 28
  -2524658.76248         0.00041         0.00041         0.00041  24751649.56348
 -11295310.15648  -8801536.50845         0.00041  23166638.93845  23166633.64948
 -12878827.68548 -10035440.60246         0.00041  22655416.65246  22655410.11148
 -24566608.98049 -19142785.13947         0.00041  20687757.86347  20687752.46449
 -18813956.38549 -14660191.78946         0.00041  21973849.15446  21973843.26149
 -24247084.89649 -18893797.96847         0.00041  20623393.87347  20623388.57049
   2922816.17648   2277522.65446         0.00041  23117222.59246  23117217.62748
  -2710205.89908  -2111848.80809  20719783.10608  20719787.29909         0.00001
 97 05 01 02 56 30.0000000  0  8 01 03 06 17 21 23 26 28
  -2635029.48248  -2053259.59344         0.00041  24730656.33644  24730646.40748
 -11386984.42048  -8872970.97545         0.00041  23149193.83245  23149188.56548
 -12777812.71848  -9956727.68846         0.00041  22674639.75646  22674632.68848
 -24555277.73349 -19133955.59747         0.00041  20689914.10847  20689908.64849
 -18869915.80649 -14703796.49646         0.00041  21963200.34146  21963194.55149
 -24242951.07749 -18890576.79747         0.00041  20624180.53347  20624175.18249
   2992041.28248   2331464.29346         0.00041  23130395.37646  23130390.77648
  -2744155.56708  -2138303.09309  20713322.69808  20713326.89109         0.00001
 97 05 01 02 57 00.0000000  0  8 01 03 06 17 21 23 26 28
  -2745444.08448         0.00041         0.00041         0.00041  24709634.94048
 -11478407.89348  -8944210.01945         0.00041  23131795.81045  23131791.22648
 -12676534.82348  -9877809.88046         0.00041  22693912.62046  22693905.25048
 -24543734.15649 -19124960.60147         0.00041  20692110.91647  20692105.24549
 -18925616.83249 -14747199.85546         0.00041  21952601.12046  21952594.86449
 -24238513.77549 -18887119.15147         0.00041  20625024.94747  20625019.57149
   3061675.52448   2385724.72646         0.00041  23143647.13946  23143641.67748
  -2777588.14308  -2164354.45109  20706960.69308  20706964.89409         0.00001
 97 05 01 02 57 30.0000000  0  8 01 03 06 17 21 23 26 28
  -2855886.81848  -2225355.52344         0.00041  24688627.36844  24688617.93648
 -11569562.70048  -9015239.71845         0.00041  23114450.87745  23114445.02748
 -12574979.04348  -9798675.54446         0.00041  22713237.01446  22713230.69148
 -24531969.59849 -19115793.41247         0.00041  20694349.53447  20694343.99749
 -18981037.47849 -14790384.73746         0.00041  21942054.66846  21942048.69149
 -24233769.20749 -18883422.07247         0.00041  20625927.69847  20625922.45049
   3131746.92348   2440325.82246         0.00041  23156980.70146  23156975.80848
  -2810493.42908  -2189994.93109  20700699.02508  20700703.24009         0.00001
 97 05 01 02 58 00.0000000  0  8 01 03 06 17 21 23 26 28
  -2966295.79648  -2311388.17744         0.00041  24667619.07044  24667607.65248
 -11660386.82448  -9086011.73245         0.00041  23097167.81045  23097161.87348
 -12473103.82448  -9719292.29946         0.00041  22732623.62546  22732616.97748
 -24519924.38449 -19106407.53047         0.00041  20696641.79747  20696636.08849
 -19036138.76649 -14833320.77246         0.00041  21931569.18146  21931563.26349
 -24228655.93349 -18879437.69247         0.00041  20626900.66047  20626895.40249
   3202313.52948   2495312.77946         0.00041  23170410.19546  23170404.33748
  -2842816.78709  -2215181.96409  20694548.11909  20694552.34409         0.00001
 97 05 01 02 58 30.0000000  0  8 01 03 06 17 21 23 26 28
  -3076731.31848         0.00041         0.00041         0.00041  24646591.93048
 -11750930.89348  -9156565.53046         0.00041  23079937.58446  23079931.73448
 -12370985.69848  -9639719.77046         0.00041  22752055.50746  22752049.47448
 -24507640.18449 -19096835.42747         0.00041  20698979.43847  20698973.66049
 -19090989.49649 -14876061.56246         0.00041  21921131.67546  21921125.51549
 -24223240.33149 -18875217.73047         0.00041  20627931.32147  20627925.98249
   3273305.09748   2550630.87946         0.00041  23183918.76946  23183913.60048
  -2874618.59009  -2239962.59009  20688496.46209  20688500.64109         0.00001
 97 05 01 02 59 00.0000000  0  8 01 03 06 17 21 23 26 28
  -3187182.75048  -2483507.19144         0.00041  24625584.74344  24625573.57348
 -11841184.55348  -9226893.03046         0.00041  23062762.83046  23062756.82248
 -12268616.08348  -9559951.28646         0.00041  22771536.36846  22771529.86848
 -24495106.35249 -19087068.80747         0.00041  20701364.32147  20701358.75049
 -19145573.27049 -14918594.33846         0.00041  21910744.56146  21910738.44149
 -24217514.26649 -18870755.84547         0.00041  20629020.74947  20629015.55149
   3344737.67248   2606292.61846         0.00041  23197512.04246  23197506.80248
  -2905883.09409  -2264324.53909  20682547.02709  20682551.17009         0.00001
 97 05 01 02 59 30.0000000  0  8 01 03 06 17 21 23 26 28
  -3297651.19748  -2569586.16844         0.00041  24604561.50544  24604551.82548
 -11931150.38748  -9296996.24546         0.00041  23045643.16246  23045636.92948
 -12166019.18048  -9480005.69546         0.00041  22791059.47046  22791053.48348
 -24482323.21349 -19077107.91747         0.00041  20703797.05647  20703791.29649
 -19199907.67149 -14960932.79346         0.00041  21900404.97346  21900398.91849
 -24211464.52149 -18866041.74947         0.00041  20630172.08747  20630166.85149
   3416614.58548   2662300.59546         0.00041  23211188.99946  23211184.44848
  -2936600.79009  -2288260.40509  20676701.62709  20676705.79709         0.00001
 97 05 01 03 00 00.0000000  0  8 01 03 06 17 21 23 26 28
  -3408148.95448         0.00041         0.00041         0.00041  24583524.27748
 -12020828.36148  -9366875.17046         0.00041  23028578.39446  23028571.80648
 -12063221.02548  -9399903.28646         0.00041  22810622.09846  22810615.29248
 -24469296.01449 -19066956.85047         0.00041  20706275.85947  20706270.30549
 -19254006.89749 -15003087.99846         0.00041  21890110.35146  21890104.16149
 -24205105.34749 -18861086.53747         0.00041  20631382.15347  20631377.04849
   3488911.47248   2718635.82746         0.00041  23224947.10646  23224941.93548
  -2966775.98809  -2311773.54309  20670959.49609  20670963.66909         0.00001
 97 05 01 03 00 30.0000000  0  8 01 03 06 17 21 23 26 28
  -3518663.24148         0.00041         0.00041         0.00041  24562494.06748
 -12110214.72848  -9436526.85946         0.00041  23011567.73046  23011562.13148
 -11960198.21448  -9319625.81246         0.00041  22830226.53046  22830219.84648
 -24456024.54049 -19056615.44147         0.00041  20708801.35447  20708795.73749
 -19307848.90349 -15045042.77546         0.00041  21879864.33046  21879858.34049
 -24198436.46049 -18855889.98847         0.00041  20632651.22547  20632646.03049
   3561633.19248   2775302.09846         0.00041  23238785.15746  23238780.48648
  -2996395.76109  -2334853.88109  20665323.04309  20665327.24609         0.00001
 97 05 01 03 01 00.0000000  0  8 01 03 06 17 21 23 26 28
  -3629176.20848  -2827916.39544         0.00041  24541473.96144  24541464.03248
 -12199294.46248  -9505939.62446         0.00041  22994616.92646  22994610.79048
 -11856913.27648  -9239144.08146         0.00041  22849881.44146  22849874.28848
 -24442501.85549 -19046078.28347         0.00041  20711374.72747  20711369.13749
 -19361413.21249 -15086781.16146         0.00041  21869671.29046  21869665.50349
 -24191436.79249 -18850435.69047         0.00041  20633983.09847  20633977.93049
   3634795.30048   2832311.53145         0.00041  23252707.62645  23252702.85848
  -3025438.23109  -2357484.37109  20659796.42909  20659800.63909         0.00001
 97 05 01 03 01 30.0000000  0  8 01 03 06 17 21 23 26 28
  -3739688.22548  -2914029.36844         0.00041  24520441.07044  24520433.94048
 -12288077.54448  -9575121.22046         0.00041  22977721.30746  22977716.08148
 -11753373.13248  -9158463.50046         0.00041  22869583.97546  22869577.46148
 -24428725.27749 -19035343.28447         0.00041  20713996.24247  20713990.67449
 -19414705.41149 -15128307.51746         0.00041  21859529.98146  21859524.31349
 -24184110.93849 -18844727.21947         0.00041  20635377.16747  20635372.00249
   3708383.48748   2889652.96946         0.00041  23266712.20846  23266706.20848
  -3053905.85809  -2379666.93209  20654379.23909  20654383.40109         0.00001
 97 05 01 03 02 00.0000000  0  8 01 03 06 17 21 23 26 28
  -3850186.03348  -3000131.25144         0.00041  24499415.14944  24499406.71048
 -12376564.08748  -9644071.76346         0.00041  22960882.59746  22960877.66248
 -11649546.44148  -9077559.61345         0.00041  22889341.38145  22889334.96348
 -24414693.03549 -19024409.07047         0.00041  20716666.69147  20716660.92749
 -19467716.14049 -15169614.54546         0.00041  21849442.51546  21849436.66849
 -24176461.59149 -18838766.67847         0.00041  20636832.67147  20636827.58449
   3782394.97048   2947324.25146         0.00041  23280795.58046  23280790.09048
  -3081800.56809  -2401403.06209  20649071.05209  20649075.16809         0.00001
 97 05 01 03 02 30.0000000  0  8 01 03 06 17 21 23 26 28
  -3960669.91248  -3086222.28344         0.00041  24478392.09544  24478382.16648
 -12464767.78348  -9712801.89146         0.00041  22944097.84746  22944092.95348
 -11545437.70448  -8996435.97345         0.00041  22909152.43045  22909146.32448
 -24400411.61149 -19013280.68747         0.00041  20719384.10647  20719378.53849
 -19520449.10649 -15210705.13646         0.00041  21839407.54846  21839401.90349
 -24168497.50349 -18832560.88247         0.00041  20638348.26647  20638343.15849
   3856821.43148   3005318.89845         0.00041  23294957.91545  23294952.94748
  -3109135.44509  -2422702.96109  20643869.39709  20643873.45609         0.00001
 97 05 01 03 03 00.0000000  0  8 01 03 06 17 21 23 26 28
  -4071141.53448  -3172303.79644         0.00041  24457369.59344  24457359.91348
 -12552684.37448  -9781308.31546         0.00041  22927368.14546  22927362.86748
 -11441073.15048  -8915112.98045         0.00041  22929013.03845  22929006.32848
 -24385883.78649 -19001960.30447         0.00041  20722148.81947  20722143.14349
 -19572921.13049 -15251592.39646         0.00041  21829422.68846  21829416.69049
 -24160220.85649 -18826111.53347         0.00041  20639923.25647  20639918.11149
   3931651.63648   3063628.14145         0.00041  23309198.03645  23309192.61048
  -3135921.33709  -2443575.07709  20638772.18209  20638776.27509         0.00001
 97 05 01 03 03 30.0000000  0  8 01 03 06 17 21 23 26 28
  -4181602.58348  -3258377.09144         0.00041  24436350.91844  24436339.74848
 -12640292.70448  -9849574.54346         0.00041  22910697.11646  22910691.63248
 -11336473.96348  -8833607.16745         0.00041  22948916.78545  22948910.92348
 -24371096.15549 -18990437.47347         0.00041  20724962.76247  20724957.15749
 -19625123.48749 -15292269.52146         0.00041  21819488.93746  21819482.90449
 -24151635.12449 -18819421.34047         0.00041  20641556.90147  20641551.87049
   4006889.63948   3122255.16045         0.00041  23323514.04945  23323509.95248
  -3162158.63509  -2464019.71609  20633779.33109  20633783.48009         0.00001
 97 05 01 03 04 00.0000000  0  8 01 03 06 17 21 23 26 28
  -4292048.56948  -3344438.60044         0.00041  24415332.51244  24415322.08748
 -12727557.25848  -9917572.88746         0.00041  22894090.93646  22894085.67448
 -11231641.08548  -8751919.23945         0.00041  22968866.87945  22968859.87548
 -24356021.29249 -18978690.82647         0.00041  20727831.47747  20727825.82649
 -19677035.02649 -15332720.04346         0.00041  21809610.50546  21809604.39149
 -24142721.34049 -18812475.51947         0.00041  20643253.11947  20643248.07249
   4082546.77648   3181208.77745         0.00041  23337911.61345  23337907.03848
  -3187831.50709  -2484024.54309  20628893.94409  20628898.11809         0.00001
 97 05 01 03 04 30.0000000  0  8 01 03 06 17 21 23 26 28
  -4402524.90448  -3430523.80744         0.00041  24394308.96344  24394299.03548
 -12814491.81848  -9985314.09846         0.00041  22877547.54746  22877542.72548
 -11126623.84248  -8670087.66845         0.00041  22988850.26445  22988844.02748
 -24340690.09649 -18966744.43747         0.00041  20730748.88547  20730743.18449
 -19728680.33749 -15372963.10946         0.00041  21799782.75846  21799776.47949
 -24133499.23249 -18805289.44947         0.00041  20645008.04847  20645003.00249
   4158596.35448   3240468.18245         0.00041  23352383.52445  23352378.96348
  -3212961.74109  -2503606.53609  20624111.77309  20624115.99909         0.00001
 97 05 01 03 05 00.0000000  0  8 01 03 06 17 21 23 26 28
  -4513035.72648  -3516635.91744         0.00041  24373279.90244  24373269.22848
 -12901081.35748 -10052786.46346         0.00041  22861071.12146  22861065.31248
 -11021418.70248  -8588109.67145         0.00041  23008870.95845  23008863.88448
 -24325093.24049 -18954591.04347         0.00041  20733716.72047  20733711.21049
 -19780052.90049 -15412993.64646         0.00041  21790006.77346  21790000.67149
 -24123945.34749 -18797844.85247         0.00041  20646826.22047  20646821.04949
   4235047.07748   3300040.17545         0.00041  23366932.87045  23366927.02548
  -3237533.02909  -2522752.98809  20619436.01709  20619440.22209         0.00001
 97 05 01 03 05 30.0000000  0  8 01 03 06 17 21 23 26 28
  -4623567.15848  -3602764.07044         0.00041  24352245.27744  24352235.59648
 -12987323.76048 -10119988.32946         0.00041  22844659.32346  22844653.87048
 -10915995.26348  -8505961.57745         0.00041  23028931.77445  23028925.23648
 -24309200.24649 -18942206.89247         0.00041  20736740.98847  20736735.53049
 -19831130.31449 -15452794.19246         0.00041  21780286.96346  21780281.09349
 -24114047.33449 -18790132.10347         0.00041  20648709.84347  20648704.58449
   4311916.67548   3359938.56445         0.00041  23381559.60045  23381554.84048
  -3261522.08909  -2541445.75609  20614871.06709  20614875.23209         0.00001
 97 05 01 03 06 00.0000000  0  8 01 03 06 17 21 23 26 28
  -4734110.26648  -3688901.33744         0.00041  24331208.72444  24331199.78848
 -13073241.47748 -10186937.19146         0.00041  22828310.66846  22828304.16048
 -10810343.87248  -8423635.85045         0.00041  23049036.71545  23049030.11548
 -24293035.52349 -18929611.00347         0.00041  20739817.16347  20739811.55449
 -19881930.52849 -15492378.74846         0.00041  21770619.73646  21770614.08949
 -24103810.88149 -18782155.63547         0.00041  20650657.65847  20650652.45749
   4389193.54848   3420154.31445         0.00041  23396264.67545  23396260.18948
  -3284933.10409  -2559688.10009  20610416.11509  20610420.27309         0.00001
 97 05 01 03 06 30.0000000  0  7 01 03 06 21 23 26 28
  -4844625.72148  -3775017.06644         0.00041  24310178.87344  24310169.19348
 -13158836.27848 -10253634.44146         0.00041  22812021.04246  22812015.92648
 -10704441.94348  -8341114.91045         0.00041  23069189.99045  23069182.71548
 -19932449.14649 -15531743.87346         0.00041  21761006.48146  21761000.67849
 -24093235.55849 -18773915.11447         0.00041  20652669.87847  20652664.88849
   4466891.54748   3480698.21045         0.00041  23411049.48945  23411045.49548
  -3307750.15809  -2577467.61809  20606074.15609  20606078.33209         0.00001
 97 05 01 03 07 00.0000000  0  7 01 03 06 21 23 26 28
  -4955073.53848  -3861080.09144         0.00041  24289163.26644  24289151.60048
 -13244092.82248 -10320068.09946         0.00041  22795797.52346  22795792.23948
 -10598269.76748  -8258383.38145         0.00041  23089393.66345  23089386.67248
 -19982675.49449 -15570881.25546         0.00041  21751448.60446  21751442.74049
 -24082327.66049 -18765415.44247         0.00041  20654745.67947  20654740.69649
   4545027.43848   3541583.31945         0.00041  23425918.33445  23425914.08648
  -3329960.93609  -2594774.71509  20601847.56909  20601851.75809         0.00001
 97 05 01 03 07 30.0000000  0  7 01 03 06 21 23 26 28
  -5065428.04548  -3947070.42544         0.00041  24268160.51744  24268151.58248
 -13328994.97948 -10386225.61646         0.00041  22779641.53246  22779635.89048
 -10491826.07048  -8175440.28345         0.00041  23109648.62245  23109642.23948
 -20032623.09849 -15609801.43146         0.00041  21741944.01446  21741937.99949
 -24071112.52949 -18756676.36947         0.00041  20656879.81347  20656874.78849
   4623599.72648   3602808.46645         0.00041  23440870.57545  23440865.98848
  -3351565.51609  -2611609.45309  20597736.35609  20597740.55609         0.00001
 97 05 01 03 08 00.0000000  0  7 01 03 06 21 23 26 28
  -5175689.61748  -4032988.33844         0.00041  24247177.60144  24247169.40948
 -13413537.25648 -10452102.70046         0.00041  22763553.41546  22763548.06848
 -10385142.00048  -8092309.86645         0.00041  23129949.61445  23129943.61548
 -20082307.99249 -15648516.90146         0.00041  21732489.15646  21732483.24149
 -24059607.79749 -18747711.63247         0.00041  20659069.05247  20659064.11449
   4702586.70948   3664356.77145         0.00041  23455900.92545  23455896.77948
  -3372580.84009  -2627985.03109  20593737.25309  20593741.49909         0.00001
 97 05 01 03 08 30.0000000  0  7 01 03 06 21 23 26 28
  -5285892.65048  -4118860.67444         0.00041  24226206.62944  24226198.43848
 -13497733.96448 -10517710.51346         0.00041  22747531.90746  22747525.98048
 -10278255.95448  -8009022.08945         0.00041  23150289.88645  23150283.37648
 -20131747.00449 -15687040.77246         0.00041  21723081.26346  21723075.23049
 -24047843.12349 -18738544.34247         0.00041  20661307.93647  20661302.80149
   4781969.46648   3726213.45545         0.00041  23471008.40045  23471002.81148
  -3393029.35509  -2643918.93809  20589846.06109  20589850.30909         0.00001
 97 05 01 03 09 00.0000000  0  8 01 03 06 17 21 23 26 28
  -5396042.43948  -4204691.49844         0.00041  24205247.53744  24205237.60848
 -13581569.97748 -10583037.25746         0.00041  22731578.72946  22731572.52248
 -10171163.25248  -7925573.28245         0.00041  23170668.82945  23170662.32348
        -0.81759        -1.08157         0.00051  20759353.45757  20759347.72259
 -20180930.93049 -15725365.87646         0.00041  21713722.13046  21713715.87949
 -24035806.32149 -18729165.00647         0.00041  20663598.49147  20663593.25249
   4861750.44548   3788380.44945         0.00041  23486189.34345  23486184.84348
  -3412907.00609  -2659408.01909  20586063.50009  20586067.72709         0.00001
 97 05 01 03 09 30.0000000  0  8 01 03 06 17 21 23 26 28
  -5506204.96448  -4290532.25544         0.00041  24184284.65244  24184274.22748
 -13665121.84248 -10648142.58346         0.00041  22715679.23446  22715673.18348
 -10063943.83448  -7842025.71545         0.00041  23191071.27545  23191065.50548
     17946.75549     13984.04047         0.00041  20762768.31847  20762762.97249
 -20229919.74649 -15763538.94446         0.00041  21704399.62746  21704393.74049
 -24023543.38449 -18719609.46247         0.00041  20665931.91447  20665926.89649
   4941850.48148   3850796.05445         0.00041  23501431.14345  23501427.23548
  -3432274.96409  -2674499.93609  20582377.87009  20582382.09409         0.00001
 97 05 01 03 10 00.0000000  0  8 01 03 06 17 21 23 26 28
  -5616381.95448  -4376384.28844         0.00041  24163317.37944  24163308.19548
 -13748391.61248 -10713028.10346         0.00041  22699832.85346  22699827.53948
  -9956580.29048  -7758365.84145         0.00041  23211503.21245  23211496.21548
     36111.98649     28138.76947         0.00041  20766225.14247  20766219.70449
 -20278679.85449 -15801533.80246         0.00041  21695120.83046  21695114.97849
 -24011032.10449 -18709860.40247         0.00041  20668312.67547  20668307.66849
   5022279.22348   3913467.79745         0.00041  23516737.15545  23516732.33548
  -3451118.85109  -2689183.48709  20578792.04409  20578796.15709         0.00001
 97 05 01 03 10 30.0000000  0  8 01 03 06 17 21 23 26 28
  -5726501.78248  -4462191.77544         0.00041  24142362.13544  24142352.95148
 -13831306.82448 -10777637.33346         0.00041  22684055.13446  22684049.15148
  -9848980.36548  -7674521.78345         0.00041  23231978.22145  23231971.77048
     54593.85549     42540.22747         0.00041  20769742.27347  20769736.59949
 -20327124.55149 -15839282.88646         0.00041  21685901.65346  21685896.22049
 -23998182.04249 -18699847.35847         0.00041  20670758.12247  20670753.00849
   5103119.54648   3976460.25445         0.00041  23532120.84645  23532115.65048
  -3469351.39109  -2703390.66309  20575322.51209  20575326.62109         0.00001
 97 05 01 03 11 00.0000000  0  8 01 03 06 17 21 23 26 28
  -5836592.52848  -4547976.60944         0.00041  24121411.10044  24121403.20548
 -13913900.82648 -10841996.26246         0.00041  22668337.25546  22668331.89748
  -9741176.83248  -7590519.06545         0.00041  23252492.91245  23252486.22648
     73343.13349     57150.05747         0.00041  20773309.85647  20773304.45649
 -20375295.58849 -15876818.72946         0.00041  21676734.82546  21676729.42749
 -23985018.93249 -18689590.37947         0.00041  20673262.83047  20673257.80349
   5184315.87648   4039730.12445         0.00041  23547572.21345  23547566.89748
  -3487007.64208  -2717148.78209  20571962.59108  20571966.73309         0.00001
 97 05 01 03 11 30.0000000  0  8 01 03 06 17 21 23 26 28
  -5946656.86048  -4633740.85844         0.00041  24100467.98144  24100458.54848
 -13996178.69248 -10906108.86046         0.00041  22652679.98246  22652674.89348
  -9633182.44448  -7506367.63145         0.00041  23273043.83145  23273036.82548
     92355.17749     71964.63947         0.00041  20776928.07347  20776922.41949
 -20423198.76949 -15914145.85146         0.00041  21667619.58446  21667613.75549
 -23971551.92349 -18679096.59647         0.00041  20675825.49747  20675820.36749
   5265859.55848   4103270.65145         0.00041  23563088.22745  23563084.09148
  -3504090.77308  -2730460.31109  20568711.75308  20568715.92609         0.00001
 97 05 01 03 12 00.0000000  0  8 01 03 06 17 21 23 26 28
  -6056686.35548  -4719477.93744         0.00041  24079529.47744  24079520.54148
 -14078104.04548 -10969946.76646         0.00041  22637090.56446  22637085.13748
  -9524974.00748  -7422049.39945         0.00041  23293635.90345  23293628.36348
    111648.31749     86998.25647         0.00041  20780599.36947  20780593.71549
 -20470815.24349 -15951249.56546         0.00041  21658558.31046  21658552.72949
 -23957766.86149 -18668354.98147         0.00041  20678448.70247  20678443.55849
   5347773.33748   4167099.57145         0.00041  23578676.57645  23578671.80448
  -3520580.40709  -2743309.37609  20565573.92709  20565578.07109         0.00001
 97 05 01 03 12 30.0000000  0  8 01 03 06 17 21 23 26 28
  -6166670.11048  -4805179.40745         0.00041  24058600.87145  24058591.19048
 -14159659.59048 -11033496.51246         0.00041  22621571.33046  22621565.49748
  -9416553.71248  -7337566.09245         0.00041  23314266.80445  23314260.16748
    131222.96149    102251.22947         0.00041  20784324.28347  20784318.66149
 -20518147.31749 -15988131.67046         0.00041  21649551.40946  21649545.49249
 -23943664.91149 -18657366.43947         0.00041  20681132.31347  20681127.15749
   5430070.28848   4231227.05945         0.00041  23594337.57245  23594332.44448
  -3536468.28109  -2755689.53609  20562550.56809  20562554.74909         0.00001
 97 05 01 03 13 00.0000000  0  8 01 03 06 17 21 23 26 28
  -6276576.77148  -4890820.80444         0.00041  24037686.34544  24037676.66548
 -14240814.86648 -11096734.35846         0.00041  22606127.45146  22606122.18648
  -9307920.53048  -7252916.89945         0.00041  23334938.93745  23334932.39748
    151086.01849    117728.93947         0.00041  20788104.11347  20788098.42849
 -20565185.75549 -16024784.96646         0.00041  21640600.14746  21640594.39949
 -23929236.65649 -18646123.63447         0.00041  20683877.94647  20683872.68749
   5512771.08648   4295669.23045         0.00041  23610075.12345  23610069.74248
  -3551741.59208  -2767590.81409  20559644.10608  20559648.34309         0.00001
 97 05 01 03 13 30.0000000  0  8 01 03 06 17 21 23 26 28
  -6386408.73148  -4976403.99145         0.00041  24016786.72645  24016776.30148
 -14321567.66448 -11159658.58946         0.00041  22590761.44646  22590755.47948
  -9199090.92848  -7168114.65345         0.00041  23355649.13245  23355641.95148
    171247.77349    133439.40247         0.00041  20791940.68147  20791935.09149
 -20611938.20349 -16061215.41546         0.00041  21631703.67546  21631697.73149
 -23914497.47749 -18634638.55247         0.00041  20686682.67847  20686677.51349
   5595881.86548   4360430.86945         0.00041  23625888.37845  23625885.22648
  -3566407.79309  -2779019.01809  20556853.22809  20556857.48609         0.00001
 97 05 01 03 14 00.0000000  0  8 01 03 06 17 21 23 26 28
  -6496186.64748  -5061945.03945         0.00041  23995895.96745  23995886.03848
 -14401934.60548 -11222282.14246         0.00041  22575467.77046  22575462.01448
  -9090081.76548  -7083172.48945         0.00041  23376392.93545  23376385.58348
    191673.19049    149355.31647         0.00041  20795827.70047  20795821.92949
 -20658423.99449 -16097438.07846         0.00041  21622857.36646  21622851.79349
 -23899465.05949 -18622924.97147         0.00041  20689543.12447  20689537.98249
   5679376.19848   4425491.38045         0.00041  23641778.79145  23641773.80548
  -3580492.68809  -2789994.25609  20554172.96909  20554177.20409         0.00001
 97 05 01 03 14 30.0000000  0  8 01 03 06 17 21 23 26 28
  -6605900.63648  -5147436.29545         0.00041  23975016.83745  23975007.90148
 -14481915.87548 -11284605.17046         0.00041  22560247.76646  22560242.00348
  -8980895.31548  -6998092.18545         0.00041  23397169.82145  23397163.09948
    212357.30249    165472.80947         0.00041  20799763.69547  20799757.97049
 -20704646.11749 -16133455.28446         0.00041  21614061.81146  21614056.13049
 -23884136.17249 -18610980.37547         0.00041  20692460.21947  20692455.07649
   5763255.03448   4490851.51145         0.00041  23657740.12645  23657735.26948
  -3593995.54709  -2800515.95909  20551603.49009  20551607.68209         0.00001
 97 05 01 03 15 00.0000000  0  8 01 03 06 17 21 23 26 28
  -6715527.53448  -5232859.67845         0.00041  23954155.10645  23954146.66648
 -14561497.47948 -11346616.79046         0.00041  22545103.44946  22545098.16748
  -8871522.37548  -6912866.55345         0.00041  23417983.67345  23417976.00648
    233308.80449    181798.66347         0.00041  20803750.43647  20803744.95849
 -20750591.76849 -16169257.05946         0.00041  21605318.31346  21605312.88549
 -23868485.73449 -18598785.22047         0.00041  20695438.35747  20695433.26249
   5847515.45048   4556508.97445         0.00041  23673774.34345  23673769.40948
  -3606904.71609  -2810575.04709  20549146.91209  20549151.14109         0.00001
 97 05 01 03 15 30.0000000  0  8 01 03 06 17 21 23 26 28
  -6825109.61848  -5318248.13545         0.00041  23933301.26245  23933293.78748
 -14640715.84048 -11408345.34546         0.00041  22530028.40846  22530023.39448
  -8761986.39048  -6827513.86445         0.00041  23438826.52545  23438820.00948
    254497.60449    198309.42347         0.00041  20807782.68247  20807777.00849
 -20796279.37549 -16204857.76446         0.00041  21596624.44446  21596618.82549
 -23852554.45749 -18586371.22947         0.00041  20698469.99347  20698464.79349
   5932111.06848   4622427.63745         0.00041  23689872.06045  23689867.51548
  -3619246.89509  -2820192.32609  20546798.24709  20546802.46909         0.00001
 97 05 01 03 16 00.0000000  0  8 01 03 06 17 21 23 26 28
  -6934651.46948  -5403605.24745         0.00041  23912454.70045  23912448.58248
 -14719574.10048 -11469793.32446         0.00041  22515022.61946  22515017.18548
  -8652275.05148  -6742024.56545         0.00041  23459705.28845  23459697.41048
    275916.32549    214999.34047         0.00041  20811858.49247  20811852.92749
 -20841694.87149 -16240246.43146         0.00041  21587981.77746  21587976.43549
 -23836347.51749 -18573742.43447         0.00041  20701553.92847  20701548.97949
   6017032.53848   4688600.20945         0.00041  23706031.88645  23706027.57048
  -3631014.95809  -2829362.24209  20544558.91309  20544563.06209         0.00001
 97 05 01 03 16 30.0000000  0  8 01 03 06 17 21 23 26 28
  -7044144.30948  -5488924.16945         0.00041  23891620.21645  23891612.59648
 -14798063.58948 -11530953.94246         0.00041  22500086.72246  22500080.95448
  -8542399.18548  -6656407.03845         0.00041  23480614.50345  23480606.31248
    297583.39349    231882.77847         0.00041  20815981.42847  20815975.96349
 -20886828.18049 -16275415.21046         0.00041  21579393.47046  21579387.83049
 -23819877.87749 -18560908.93847         0.00041  20704688.16347  20704682.95549
   6102281.46148   4755027.94245         0.00041  23722254.40245  23722249.85048
  -3642199.27509  -2838077.29109  20542430.64009  20542434.73909         0.00001
 97 05 01 03 17 00.0000000  0  8 01 03 06 17 21 23 26 28
  -7153540.67348  -5574167.92845         0.00041  23870803.16145  23870794.97048
 -14876143.78048 -11591795.62846         0.00041  22485228.59346  22485222.90448
  -8432318.37148  -6570629.81545         0.00041  23501559.66245  23501553.82548
    319548.27249    248998.27547         0.00041  20820161.26247  20820155.67549
 -20931643.66349 -16310336.34046         0.00041  21570865.14446  21570859.55249
 -23803126.32449 -18547855.76847         0.00041  20707875.90247  20707870.61549
   6187875.09748   4821724.27145         0.00041  23738542.69845  23738537.95548
  -3652762.94509  -2846308.71809  20540420.38909  20540424.51509         0.00001
 97 05 01 03 17 30.0000000  0  8 01 03 06 17 21 23 26 28
  -7262878.85148  -5659366.35745         0.00041  23849997.59445  23849988.41048
 -14953836.77548 -11652335.60546         0.00041  22470443.93446  22470438.30848
  -8322062.34748  -6484716.05045         0.00041  23522543.12845  23522534.68948
    341802.26949    266339.05847         0.00041  20824396.10047  20824390.42749
 -20976175.63749 -16345036.55046         0.00041  21562391.42246  21562385.47749
 -23786129.27849 -18534611.30947         0.00041  20711110.29547  20711105.02349
   6273788.55248   4888669.82445         0.00041  23754891.28545  23754886.58048
  -3662726.82709  -2854072.77909  20538524.31209  20538528.44409         0.00001
 97 05 01 03 18 00.0000000  0  8 01 03 06 17 21 23 26 28
  -7372127.49648  -5744495.00045         0.00041  23829207.64545  23829198.95848
 -15031114.40548 -11712551.91946         0.00041  22455738.75246  22455732.90548
  -8211620.01348  -6398657.13345         0.00041  23543559.74745  23543551.30848
    364371.57849    283925.54047         0.00041  20828691.08547  20828685.25249
 -21020428.76949 -16379519.48646         0.00041  21553969.98646  21553964.35049
 -23768859.23949 -18521154.12547         0.00041  20714396.56447  20714391.37449
   6360046.65948   4955883.92945         0.00041  23771305.10845  23771300.89048
  -3672075.16009  -2861357.19309  20536745.40009  20536749.48909         0.00001
 97 05 01 03 18 30.0000000  0  8 01 03 06 17 21 23 26 28
  -7481276.60048  -5829546.09645         0.00041  23808438.63045  23808428.20548
 -15107980.91348 -11772447.88746         0.00041  22441111.07146  22441105.80648
  -8101012.46148  -6312469.47045         0.00041  23564606.64645  23564599.30748
    387242.38249    301746.95147         0.00041  20833043.26047  20833037.43049
 -21064435.06949 -16413810.08246         0.00041  21545596.04946  21545590.28949
 -23751318.99949 -18507486.39347         0.00041  20717734.38847  20717729.26449
   6446648.74748   5023366.07045         0.00041  23787784.72745  23787780.62948
  -3680821.00009  -2868172.13209  20535081.14009  20535085.19209         0.00001
 97 05 01 03 19 00.0000000  0  8 01 03 06 17 21 23 26 28
  -7590335.03948  -5914526.52745         0.00041  23787685.67345  23787675.00048
 -15184454.14448 -11832037.40546         0.00041  22426559.42246  22426553.42848
  -7990242.81648  -6226155.50345         0.00041  23585684.38545  23585678.14348
    410402.41449    319793.73647         0.00041  20837450.16347  20837444.69949
 -21108228.38149 -16447934.71446         0.00041  21537262.46546  21537256.68049
 -23733510.30149 -18493609.47647         0.00041  20721123.24947  20721118.12249
   6533573.35248   5091099.53345         0.00041  23804326.05645  23804322.05448
  -3688978.28409  -2874528.45809  20533528.87409  20533532.92609         0.00001
 97 05 01 03 19 30.0000000  0  8 01 03 06 17 21 23 26 28
  -7699275.24848  -5999414.84645         0.00041  23766953.25045  23766944.31448
 -15260509.55648 -11891301.35446         0.00041  22412085.67846  22412080.47148
  -7879288.36848  -6139697.51745         0.00041  23606798.82345  23606792.16048
    433864.16249    338075.61747         0.00041  20841914.75747  20841909.31149
 -21151778.66649 -16481869.97446         0.00041  21528974.98146  21528969.24049
 -23715393.83049 -18479492.73447         0.00041  20724570.76247  20724565.63049
   6620865.10348   5159119.07045         0.00041  23820937.87945  23820932.98348
  -3696519.42609  -2880404.67409  20532093.86709  20532097.91109         0.00001
 97 05 01 03 20 00.0000000  0  8 01 03 06 17 21 23 26 28
  -7808095.70648  -6084209.85545         0.00041  23746245.73945  23746236.30748
 -15336164.58748 -11950253.32046         0.00041  22397688.87246  22397683.81848
  -7768169.41448  -6053111.36345         0.00041  23627945.87345  23627937.43448
    457588.13649    356561.83547         0.00041  20846429.54447  20846423.89049
 -21195089.70549 -16515618.80946         0.00041  21520733.16646  21520727.36349
 -23696988.23049 -18465150.69947         0.00041  20728073.28247  20728068.07149
   6708501.77948   5227407.38445         0.00041  23837615.07845  23837609.79548
  -3703469.04709  -2885819.96509  20530771.39209  20530775.43909         0.00001
 97 05 01 03 20 30.0000000  0  8 01 03 06 17 21 23 26 28
  -7916813.04948  -6168924.52945         0.00041  23725557.92545  23725547.99648
 -15411448.23748 -12008915.89546         0.00041  22383363.29646  22383357.77948
  -7656895.81448  -5966404.68944         0.00041  23649118.39644  23649112.08148
    481563.08649    375243.61647         0.00041  20850991.70147  20850986.20549
 -21238156.17249 -16549177.06646         0.00041  21512537.76746  21512532.09949
 -23678314.40049 -18450599.65247         0.00041  20731626.76847  20731621.63349
   6796457.30148   5295944.15845         0.00041  23854351.95745  23854347.24748
  -3709838.39409  -2890783.09409  20529559.30509  20529563.40609         0.00001
 97 05 01 03 21 00.0000000  0  8 01 03 06 17 21 23 26 28
  -8025452.33348  -6253578.36045         0.00041  23704883.37245  23704874.43648
 -15486365.08148 -12067292.64446         0.00041  22369106.73446  22369101.55248
  -7545475.19248  -5879583.46945         0.00041  23670320.19345  23670314.70248
    505795.98149    394126.39247         0.00041  20855602.84547  20855597.49749
 -21280968.77749 -16582537.51246         0.00041  21504390.72546  21504385.17349
 -23659386.99449 -18435851.01647         0.00041  20735228.52247  20735223.40749
   6884708.05048   5364710.97145         0.00041  23871146.01045  23871140.64148
  -3715629.53109  -2895295.67109  20528457.32009  20528461.40309         0.00001
 97 05 01 03 21 30.0000000  0  8 01 03 06 17 21 23 26 28
  -8134000.15448  -6338160.93645         0.00041  23684227.09145  23684218.40448
 -15560884.89248 -12125360.01646         0.00041  22354926.68446  22354920.93848
  -7433914.17148  -5792652.83744         0.00041  23691550.01544  23691544.01448
    530301.46449    413221.57547         0.00041  20860266.32147  20860260.75249
 -21323496.15349 -16615675.70346         0.00041  21496297.94846  21496292.49349
 -23640192.21549 -18420894.03647         0.00041  20738880.98947  20738875.95749
   6973286.72648   5433733.32245         0.00041  23888001.29145  23887996.50248
  -3720822.41509  -2899342.07709  20527469.14509  20527473.23809         0.00001
 97 05 01 03 22 00.0000000  0  8 01 03 06 17 21 23 26 28
  -8242464.62948  -6422678.56745         0.00041  23663585.27645  23663578.24148
 -15635017.32748 -12183125.53946         0.00041  22340819.38246  22340813.97748
  -7322234.16948  -5705629.49744         0.00041  23712802.60644  23712796.09648
    555079.64949    432529.25547         0.00041  20864981.37347  20864975.94249
 -21365753.48049 -16648603.46246         0.00041  21488256.58446  21488251.16549
 -23620742.07149 -18405738.07047         0.00041  20742582.19647  20742577.11249
   7062180.69448   5503001.34945         0.00041  23904916.99745  23904912.51748
  -3725426.06909  -2902929.34309  20526593.09809  20526597.22509         0.00001
 97 05 01 03 22 30.0000000  0  8 01 03 06 17 21 23 26 28
  -8350837.57348  -6507124.88645         0.00041  23642962.40745  23642955.46948
 -15708745.82948 -12240576.30246         0.00041  22326789.72646  22326783.90848
  -7210421.50148  -5618502.77344         0.00041  23734080.99444  23734073.44348
    580154.67749    452068.23847         0.00041  20869752.88547  20869747.50349
 -21407738.59149 -16681319.10746         0.00041  21480267.42546  21480261.62749
 -23601026.83649 -18390375.54047         0.00041  20746333.79947  20746328.73149
   7151399.00248   5572522.11844         0.00041  23921893.85144  23921890.20248
  -3729423.07209  -2906043.89509  20525832.48309  20525836.62709         0.00001
 97 05 01 03 23 00.0000000  0  8 01 03 06 17 21 23 26 28
  -8459097.99048  -6591483.50545         0.00041  23622362.21245  23622354.02148
 -15782037.16348 -12297686.41446         0.00041  22312841.99246  22312837.10048
  -7098489.02748  -5531282.69644         0.00041  23755381.92144  23755373.48248
    605524.87649    471837.22447         0.00041  20874580.81647  20874575.23549
 -21449449.80349 -16713821.32246         0.00041  21472329.79446  21472324.24049
 -23581030.39049 -18374793.88447         0.00041  20750138.99947  20750133.91549
   7240964.27248   5642313.21444         0.00041  23938939.40544  23938933.96348
  -3732803.60209  -2908678.07709  20525189.15309  20525193.36309         0.00001
 97 05 01 03 23 30.0000000  0  8 01 03 06 17 21 23 26 28
  -8567216.20848  -6675731.33245         0.00041  23601787.14045  23601779.69348
 -15854880.82148 -12354447.69046         0.00041  22298980.51646  22298975.29148
  -6986427.81348  -5443962.30544         0.00041  23776707.84844  23776698.16848
    631193.74149    491838.93347         0.00041  20879465.40747  20879459.91849
 -21490885.05749 -16746108.50846         0.00041  21464445.08046  21464439.35649
 -23560742.70949 -18358985.29447         0.00041  20753999.61847  20753994.51949
   7330887.24648   5712383.06744         0.00041  23956050.57644  23956045.82748
  -3735560.01509  -2910825.93409  20524664.60209  20524668.83609         0.00001
 97 05 01 03 24 00.0000000  0  8 01 03 06 17 21 23 26 28
  -8675217.61248  -6759888.15945         0.00041  23581235.03045  23581227.56348
 -15927310.79248 -12410886.60446         0.00041  22285197.54146  22285192.21448
  -6874235.52748  -5356539.76444         0.00041  23798053.72344  23798047.71548
    657132.43449    512050.90247         0.00041  20884401.42047  20884395.87549
 -21532065.62149 -16778197.23446         0.00041  21456608.24846  21456602.86249
 -23540201.89649 -18342979.45747         0.00041  20757908.38747  20757903.36549
   7421111.57548   5782687.75244         0.00041  23973219.22844  23973214.84248
  -3737720.56209  -2912509.47909  20524253.47409  20524257.69309         0.00001
 97 05 01 03 24 30.0000000  0  8 01 03 06 17 21 23 26 28
  -8783085.74848  -6843941.11645         0.00041  23560709.70745  23560701.01948
 -15999292.67848 -12466976.35846         0.00041  22271500.00846  22271494.57448
  -6761881.29248  -5268991.05844         0.00041  23819434.07944  23819428.00448
    683365.88549    532492.55347         0.00041  20889393.50847  20889387.87449
 -21572968.23649 -16810069.37646         0.00041  21448824.71046  21448819.31149
 -23519397.70849 -18326768.39447         0.00041  20761867.40347  20761862.29249
   7511642.29848   5853231.18844         0.00041  23990448.00944  23990442.27748
  -3739264.45309  -2913712.51309  20523959.68109  20523963.92009         0.00001
 97 05 01 03 25 00.0000000  0  7 01 03 06 17 21 23 28
  -8890839.96448  -6927905.31445         0.00041  23540205.08645  23540195.90248
 -16070843.71248 -12522730.38546         0.00041  22257884.50346  22257878.91448
  -6649381.23248  -5181328.71544         0.00041  23840843.07944  23840836.11548
    709873.47049    553147.81647         0.00041  20894437.49647  20894432.08549
 -21613601.98549 -16841732.01346         0.00041  21441092.65046  21441087.02249
 -23498346.85249 -18310365.12047         0.00041  20765873.34347  20765868.12149
  -3740208.05609  -2914447.79009  20523780.16009  20523784.36309         0.00001
 97 05 01 03 25 30.0000000  0  7 01 03 06 17 21 23 28
  -8998533.67148  -7011822.37745         0.00041  23519711.14945  23519702.46148
 -16142029.66448 -12578199.93246         0.00041  22244338.14446  22244332.73648
  -6536763.15048  -5093574.39444         0.00041  23862274.72144  23862266.53048
    736610.22249    573981.65447         0.00041  20899525.26747  20899519.98049
 -21654006.30749 -16873215.87646         0.00041  21433403.71546  21433398.29349
 -23477104.69849 -18293812.78447         0.00041  20769915.50947  20769910.33349
  -3740602.81909  -2914755.39809  20523705.08609  20523709.24509         0.00001
 97 05 01 03 26 00.0000000  0  7 01 03 06 17 21 23 28
  -9106152.57348  -7095681.14145         0.00041  23499229.78545  23499223.07048
 -16212842.07848 -12633378.40846         0.00041  22230863.32046  22230857.51548
  -6424026.97548  -5005728.07244         0.00041  23883730.09744  23883719.67248
    763579.64749    594996.79547         0.00041  20904657.66347  20904652.06549
 -21694162.47149 -16904506.36946         0.00041  21425762.27146  21425756.78449
 -23455664.06649 -18277105.78947         0.00041  20773995.31847  20773990.40449
  -3740439.84309  -2914628.40309  20523736.04709  20523740.24209         0.00001
 97 05 01 03 26 30.0000000  0  8 01 03 06 17 21 23 28 31
  -9213633.20148  -7179432.15945         0.00041  23478778.52345  23478770.08348
 -16283226.42348 -12688223.32146         0.00041  22217469.26946  22217463.79148
  -6311150.79648  -4917772.62244         0.00041  23905206.58144  23905199.33648
    790832.70249    616232.94547         0.00041  20909843.90947  20909838.07649
 -21734036.32549 -16935576.87946         0.00041  21418174.61646  21418169.04049
 -23433968.58049 -18260200.20647         0.00041  20778124.15147  20778118.96149
  -3739668.18709  -2914027.11209  20523882.91309  20523887.03309         0.00001
        -0.59658         0.00051         0.00051         0.00051  25049678.78858
 97 05 01 03 27 00.0000000  0  8 01 03 06 17 21 23 28 31
  -9320968.88748  -7263070.23545         0.00041  23458352.55145  23458344.62948
 -16353187.23648 -12742738.21346         0.00041  22204156.33146  22204150.81348
  -6198145.62548  -4829716.68644         0.00041  23926712.27844  23926703.34248
    818368.61149    637689.50247         0.00041  20915083.57447  20915077.94149
 -21773626.76349 -16966426.54746         0.00041  21410640.47446  21410635.17049
 -23412007.22249 -18243087.44947         0.00041  20782303.07147  20782298.02449
  -3738283.56109  -2912948.18109  20524146.44109  20524150.52909         0.00001
   -102136.26148         0.00041         0.00041         0.00041  25030243.09548
 97 05 01 03 27 30.0000000  0  8 01 03 06 17 21 23 28 31
  -9428182.56948  -7346613.26145         0.00041  23437949.84445  23437942.40648
 -16422753.07748 -12796945.33246         0.00041  22190917.96346  22190912.73448
  -6085055.74748  -4741594.72244         0.00041  23948230.68544  23948223.63448
    846173.89849    659355.96447         0.00041  20920374.91647  20920369.20949
 -21812972.02149 -16997085.16546         0.00041  21403153.70046  21403148.03049
 -23389810.57649 -18225791.35247         0.00041  20786526.77547  20786521.82849
  -3736317.34409  -2911416.06409  20524520.56009  20524524.67309         0.00001
   -204106.76348   -159043.68641         0.00041         0.00041  25010838.83048
 97 05 01 03 28 00.0000000  0  8 01 03 06 17 21 23 28 31
  -9535236.00548  -7430031.41045         0.00041  23417579.53345  23417570.84548
 -16491862.68648 -12850796.94746         0.00041  22177766.55846  22177761.44048
  -5971848.45248  -4653381.27244         0.00041  23969772.26944  23969766.34148
    874306.71149    681277.64547         0.00041  20925728.22347  20925722.75149
 -21852042.03949 -17027529.31146         0.00041  21395719.00346  21395713.15949
 -23367328.84449 -18208273.10847         0.00041  20790804.86547  20790799.95149
  -3733721.87109  -2909393.61709  20525014.41309  20525018.55209         0.00001
   -305856.95648   -238329.53144         0.00041  24991478.83644  24991476.21048
 97 05 01 03 28 30.0000000  0  8 01 03 06 17 21 23 28 31
  -9642067.89148  -7513276.92045         0.00041  23397248.40745  23397241.32848
 -16560434.69248 -12904229.64846         0.00041  22164718.16346  22164712.57748
  -5858437.16148  -4565008.85244         0.00041  23991359.43944  23991347.77348
    902855.47749    703523.44247         0.00041  20931160.83247  20931155.45449
 -21890768.76349 -17057705.95346         0.00041  21388349.23246  21388343.72449
 -23344472.88249 -18190463.25647         0.00041  20795154.38547  20795149.44149
  -3730420.02609  -2906820.75009  20525642.72509  20525646.85809         0.00001
   -407301.82848   -317377.47241         0.00041         0.00041  24972172.22348
 97 05 01 03 29 00.0000000  0  8 01 03 06 17 21 23 28 31
  -9748741.07148  -7596398.76645         0.00041  23376949.43145  23376942.09148
 -16628530.77148 -12957291.50546         0.00041  22151759.78046  22151754.34848
  -5744875.39648  -4476519.21744         0.00041  24012964.59644  24012957.93348
    931760.24749    726046.64747         0.00041  20936661.08447  20936655.74749
 -21929201.80849 -17087653.75146         0.00041  21381035.61746  21381030.26349
 -23321296.10349 -18172403.41747         0.00041  20799564.58247  20799559.74149
  -3726471.02209  -2903743.60309  20526394.24109  20526398.36009         0.00001
   -508504.89548         0.00041         0.00041         0.00041  24952914.13248
 97 05 01 03 29 30.0000000  0  8 01 03 06 17 21 23 28 31
  -9855349.47548  -7679470.13545         0.00041  23356662.54845  23356655.12248
 -16696242.46348 -13010053.84246         0.00041  22138874.65846  22138869.25448
  -5631258.77848  -4387986.79744         0.00041  24034584.45944  24034578.57848
    960909.34449    748760.23947         0.00041  20942208.02047  20942202.58149
 -21967452.78049 -17117459.67546         0.00041  21373756.57346  21373751.26149
 -23297908.61449 -18154179.39047         0.00041  20804015.12847  20804010.16949
  -3721979.53409  -2900243.74009  20527248.92809  20527253.05409         0.00001
   -609591.23948         0.00041         0.00041         0.00041  24933677.94848
 97 05 01 03 30 00.0000000  0  8 01 03 06 17 21 23 28 31
  -9961834.32048  -7762445.22945         0.00041  23336398.21445  23336391.69648
 -16763512.26148 -13062471.84846         0.00041  22126073.43946  22126068.17948
  -5517528.15048  -4299365.53544         0.00041  24056228.76444  24056220.85648
    990332.64449    771687.49747         0.00041  20947807.08147  20947801.65449
 -22005470.02049 -17147083.47046         0.00041  21366522.40746  21366516.76949
 -23274259.52449 -18135751.51747         0.00041  20808515.35547  20808510.42249
  -3716892.58709  -2896279.88609  20528216.94009  20528221.03509         0.00001
   -710523.65248   -553654.15441         0.00041         0.00041  24914471.36748
 97 05 01 03 30 30.0000000  0  8 01 03 06 17 21 23 28 31
 -10068160.49648  -7845296.68145         0.00041  23316167.26045  23316158.32448
 -16830323.92448 -13114532.87146         0.00041  22113359.50546  22113354.43748
  -5403664.94948  -4210640.98444         0.00041  24077896.19844  24077888.31848
   1020035.45149    794832.55147         0.00041  20953459.44047  20953453.98549
 -22043227.94749 -17176505.20346         0.00041  21359337.02646  21359331.67549
 -23250335.91049 -18117109.73247         0.00041  20813067.92547  20813062.95149
  -3711190.70709  -2891836.86109  20529301.91209  20529306.06209         0.00001
   -811283.88148   -632168.54941         0.00041         0.00041  24895297.23748
 97 05 01 03 31 00.0000000  0  8 01 03 06 17 21 23 28 31
 -10174304.48048  -7928006.16145         0.00041  23295967.08845  23295959.77348
 -16896655.86048 -13166220.08146         0.00041  22100736.90546  22100731.80448
  -5289675.38348  -4121817.96544         0.00041  24099588.52144  24099579.83448
   1050025.19649    818201.19247         0.00041  20959166.35947  20959160.91249
 -22080715.82849 -17205716.50846         0.00041  21352203.41546  21352197.91949
 -23226147.10249 -18098261.30047         0.00041  20817670.99347  20817665.93149
  -3704862.99309  -2886906.17509  20530506.05009  20530510.21209         0.00001
   -911862.35348   -710541.33741         0.00041         0.00041  24876157.69148
 97 05 01 03 31 30.0000000  0  8 01 03 06 17 21 23 28 31
 -10280281.09648  -8010585.22745         0.00041  23275799.82945  23275792.84748
 -16962518.60848 -13217541.69146         0.00041  22088203.98546  22088198.43748
  -5175584.74748  -4032916.21044         0.00041  24121295.67944  24121290.42048
   1080297.45949    841789.97947         0.00041  20964926.63747  20964921.36549
 -22117945.68749 -17234726.76046         0.00041  21345118.75446  21345113.25149
 -23201714.74149 -18079223.08747         0.00041  20822320.25447  20822315.26649
  -3697925.61609  -2881500.42609  20531826.22609  20531830.32409         0.00001
  -1012259.03348   -788772.48441         0.00041         0.00041  24857052.52448
 97 05 01 03 32 00.0000000  0  8 01 03 06 17 21 23 28 31
 -10386071.47448  -8093019.17745         0.00041  23255669.97345  23255661.53448
 -17027904.96548 -13268492.08546         0.00041  22075761.52846  22075755.78848
  -5061396.49948  -3943938.35044         0.00041  24143025.57644  24143019.69848
   1110876.13749    865617.53047         0.00041  20970745.99347  20970740.21149
 -22154878.66149 -17263505.66746         0.00041  21338090.79846  21338085.09749
 -23177019.09749 -18059979.71847         0.00041  20827019.63647  20827014.75249
  -3690362.71909  -2875607.26109  20533265.37809  20533269.51609         0.00001
  -1112425.31548   -866824.13841         0.00041         0.00041  24837991.67148
 97 05 01 03 32 30.0000000  0  8 01 03 06 17 21 23 28 31
 -10491711.86748  -8175336.25545         0.00041  23235566.62345  23235558.72048
 -17092837.08248 -13319088.53246         0.00041  22063405.42846  22063399.72048
  -4947142.73648  -3854909.47844         0.00041  24164768.14844  24164761.44948
   1141744.08949    889670.48647         0.00041  20976620.01747  20976614.23149
 -22191540.86349 -17292073.58646         0.00041  21331113.92646  21331108.51249
 -23152097.20349 -18040560.05247         0.00041  20831762.11547  20831757.08649
  -3682202.45709  -2869248.61709  20534818.22009  20534822.37509         0.00001
  -1212376.80648   -944708.46241         0.00041         0.00041  24818971.63648
 97 05 01 03 33 00.0000000  0  8 01 03 06 17 21 23 28 31
 -10597227.76548  -8257556.31145         0.00041  23215486.59945  23215479.71848
 -17157322.50948 -13369336.90746         0.00041  22051133.72946  22051128.57948
  -4832859.85748  -3765857.90744         0.00041  24186515.35744  24186508.95448
   1172878.95149    913931.42647         0.00041  20982544.43147  20982539.04749
 -22227964.46249 -17320455.57746         0.00041  21324182.85246  21324177.29949
 -23126983.80649 -18020991.15947         0.00041  20836541.05547  20836536.05049
  -3673469.50809  -2862443.72109  20536480.03409  20536484.18309         0.00001
  -1312152.75048  -1022455.95341         0.00041         0.00041  24799984.80248
 97 05 01 03 33 30.0000000  0  8 01 03 06 17 21 23 28 31
 -10702540.69648  -8339618.22545         0.00041  23195446.77845  23195439.23748
 -17221287.83248 -13419180.00846         0.00041  22038961.73646  22038956.31848
  -4718459.16848  -3676714.50644         0.00041  24208285.81744  24208278.59148
   1204354.52049    938457.85247         0.00041  20988534.18447  20988528.71749
 -22264069.26349 -17348589.15646         0.00041  21317312.45646  21317306.74549
 -23101600.22749 -18001211.73847         0.00041  20841371.39347  20841366.38649
  -3664088.21609  -2855133.62409  20538265.27809  20538269.36909         0.00001
  -1411685.01548  -1100013.55444         0.00041  24781042.44044  24781044.36848
 97 05 01 03 34 00.0000000  0  8 01 03 06 17 21 23 28 31
 -10807703.79448  -8421563.37445         0.00041  23175434.86545  23175427.31248
 -17284770.16348 -13468646.74846         0.00041  22026881.45346  22026876.07748
  -4603982.40348  -3587511.84644         0.00041  24230068.05044  24230062.64848
   1236102.96849    963196.90947         0.00041  20994575.79147  20994570.15249
 -22299915.00249 -17376520.86846         0.00041  21310490.96246  21310485.47449
 -23076016.36349 -17981276.25047         0.00041  20846239.77747  20846234.80249
  -3654112.70509  -2847360.50009  20540163.59409  20540167.66309         0.00001
  -1511052.41348  -1177442.73944         0.00041  24762137.74844  24762135.58548
 97 05 01 03 34 30.0000000  0  8 01 03 06 17 21 23 28 31
 -10912757.76248  -8503423.50745         0.00041  23155443.72145  23155435.97548
 -17347796.46948 -13517758.13846         0.00041  22014887.76646  22014882.55248
  -4489449.85448  -3498265.72244         0.00041  24251865.40944  24251857.78248
   1268090.74749    988122.45347         0.00041  21000662.44747  21000657.21449
 -22335564.76949 -17404299.87646         0.00041  21303706.92846  21303701.60449
 -23050279.49249 -17961221.53747         0.00041  20851137.45047  20851132.29349
  -3643578.34409  -2839151.91009  20542168.20409  20542172.30509         0.00001
  -1610302.43448  -1254780.45944         0.00041  24743253.95544  24743248.65148
 97 05 01 03 35 00.0000000  0  8 01 03 06 17 21 23 28 31
 -11017634.47448  -8585145.50745         0.00041  23135485.56245  23135478.59148
 -17410318.61448 -13566476.67746         0.00041  22002990.40546  22002985.08248
  -4374808.80148  -3408935.03244         0.00041  24273681.67244  24273673.23348
   1300384.00249   1013286.03747         0.00041  21006807.93547  21006802.43749
 -22370960.79249 -17431881.15946         0.00041  21296971.32446  21296966.04049
 -23024325.35349 -17940997.52047         0.00041  20856076.32047  20856071.31449
  -3632427.77709  -2830463.15809  20544290.06009  20544294.16309         0.00001
  -1709367.18948  -1331973.76044         0.00041  24724402.23744  24724397.14548
 97 05 01 03 35 30.0000000  0  8 01 03 06 17 21 23 28 31
 -11122327.83548  -8666724.64245         0.00041  23115563.63045  23115556.06348
 -17472355.06848 -13614816.75546         0.00041  21991185.15746  21991179.92648
  -4260046.45748  -3319509.81744         0.00041  24295519.87644  24295511.68548
   1332994.69649   1038696.97347         0.00041  21013013.36047  21013008.03449
 -22406098.57449 -17459261.21946         0.00041  21290284.92446  21290279.44449
 -22998139.78049 -17920593.16547         0.00041  20861059.08947  20861054.16749
  -3620658.94309  -2821292.64009  20546529.58409  20546533.68709         0.00001
  -1808219.27348  -1409001.36744         0.00041  24705589.21844  24705586.01448
 97 05 01 03 36 00.0000000  0  8 01 03 06 17 21 23 28 31
 -11226849.23248  -8748169.77445         0.00041  23095672.75345  23095666.15748
 -17533925.59148 -13662793.76046         0.00041  21979468.62146  21979463.53148
  -4145189.20248  -3230010.66044         0.00041  24317377.11244  24317368.17748
   1365913.22149   1064347.77747         0.00041  21019277.61347  21019272.18249
 -22441004.56249 -17486460.66146         0.00041  21283642.43446  21283637.07449
 -22971732.19149 -17900015.81047         0.00041  20866084.60747  20866079.40549
  -3608279.19209  -2811646.08209  20548885.35409  20548889.49009         0.00001
  -1906838.76648  -1485847.72044         0.00041  24686825.39644  24686819.54348
 97 05 01 03 36 30.0000000  0  8 01 03 06 17 21 23 28 31
 -11331188.29448  -8829472.82945         0.00041  23075817.72045  23075811.10948
 -17595054.30848 -13710426.49946         0.00041  21967836.30246  21967831.13848
  -4030253.34748  -3140450.23244         0.00041  24339243.80744  24339239.92148
   1399150.02749   1090246.59247         0.00041  21025602.51847  21025596.94849
 -22475679.65649 -17513480.18546         0.00041  21277043.78246  21277038.55049
 -22945084.22149 -17879251.14447         0.00041  20871155.44247  20871150.36749
  -3595288.15809  -2801523.19909  20551357.47809  20551361.61809         0.00001
  -2005197.97948  -1562491.25941         0.00041         0.00041  24668102.51648
 97 05 01 03 37 00.0000000  0  8 01 03 06 17 21 23 28 31
 -11435354.67148  -8910641.32546         0.00041  23055996.62746  23055988.72348
 -17655766.99648 -13757735.05746         0.00041  21956283.16146  21956277.73648
  -3915274.52948  -3050856.35844         0.00041  24361126.99944  24361119.50748
   1432677.66249   1116372.02747         0.00041  21031982.31147  21031977.04949
 -22510122.10649 -17540318.42646         0.00041  21270489.98046  21270484.31449
 -22918210.89949 -17858310.88447         0.00041  20876269.06447  20876264.14749
  -3581708.91309  -2790941.96909  20553941.57209  20553945.70709         0.00001
  -2103324.65248  -1638953.57444         0.00041  24649435.94544  24649429.39848
 97 05 01 03 37 30.0000000  0  8 01 03 06 17 21 23 28 31
 -11539374.15748  -8991695.37346         0.00041  23036201.22546  23036194.47748
 -17716071.80348 -13804725.78646         0.00041  21944807.34946  21944802.08848
  -3800279.44148  -2961249.81444         0.00041  24383007.18744  24383002.20448
   1466456.17449   1142692.94946         0.00041  21038410.20946  21038404.87549
 -22544344.03549 -17566984.83446         0.00041  21263977.56746  21263972.07649
 -22891147.16949 -17837222.25047         0.00041  20881419.07047  20881414.25649
  -3567566.87209  -2779922.19709  20556632.71809  20556636.84809         0.00001
  -2201244.40148  -1715254.66644         0.00041  24630801.74344  24630795.95148
 97 05 01 03 38 00.0000000  0  8 01 03 06 17 21 23 28 31
 -11643170.80348  -9072575.77346         0.00041  23016449.64546  23016442.62148
 -17775884.96748 -13851333.41746         0.00041  21933425.26346  21933420.01948
  -3685210.70048  -2871585.81444         0.00041  24404903.33944  24404899.04348
   1500546.94149   1169257.18346         0.00041  21044897.60346  21044892.19349
 -22578271.91649 -17593422.11746         0.00041  21257521.06946  21257515.79449
 -22863838.35049 -17815942.63247         0.00041  20886615.80747  20886610.85949
  -3552798.86109  -2768414.65609  20559442.94809  20559447.09009         0.00001
  -2298903.01248  -1791352.25644         0.00041  24612216.48344  24612212.27248
 97 05 01 03 38 30.0000000  0  8 01 03 06 17 21 23 28 31
 -11746746.30048  -9153283.85246         0.00041  22996739.60446  22996732.70648
 -17835190.98048 -13897545.86846         0.00041  21922139.89146  21922134.36548
  -3570068.44348  -2781864.55144         0.00041  24426815.36144  24426809.85848
   1534949.37649   1196064.28646         0.00041  21051444.06746  21051438.67749
 -22611901.72149 -17619627.13146         0.00041  21251121.52446  21251116.13449
 -22836294.24849 -17794479.68847         0.00041  20891857.41647  20891852.34549
  -3537418.82409  -2756430.21209  20562369.63909  20562373.77709         0.00001
  -2396343.47248  -1867279.84044         0.00041  24593674.16644  24593669.89648
 97 05 01 03 39 00.0000000  0  8 01 03 06 17 21 23 28 31
 -11850140.47248  -9233850.64046         0.00041  22977064.29146  22977057.37548
 -17893998.69748 -13943370.03746         0.00041  21910949.18246  21910943.63948
  -3454881.23348  -2692108.26644         0.00041  24448739.25044  24448729.32148
   1569624.68149   1223084.00646         0.00041  21058042.63346  21058037.14749
 -22645274.08249 -17645631.53746         0.00041  21244770.95346  21244765.67749
 -22808557.89449 -17772866.93447         0.00041  20897135.44247  20897130.38249
  -3521459.89109  -2743994.67809  20565406.54309  20565410.66409         0.00001
  -2493603.46248  -1943066.81444         0.00041  24575166.50144  24575162.08848
